<?xml version="1.0" encoding="utf-8"?>
<gpx xmlns:xsi="http://www.w3.org/2001/XMLSchema-instance" xmlns:xsd="http://www.w3.org/2001/XMLSchema" version="1.1" creator="Shapelink.com" xmlns="http://www.topografix.com/GPX/1/1" xmlns:gpxtpx="http://www.garmin.com/xmlschemas/TrackPointExtension/v1">
  <metadata>
    <name>Sykling 84.94 km, 2012-04-15</name>
    <desc></desc>
    <author><name>Mikael Blom</name></author> 
    <time>2012-04-15T09:56:55Z</time>
  </metadata>
  <trk>
    <name>Sykling 84.94 km, 2012-04-15</name>
    <trkseg>
      <trkpt lat="59.9787552" lon="17.739394">
        <ele>47.7225</ele>
        <time>2012-04-15T09:56:55Z</time>
      </trkpt>
      <trkpt lat="59.978476" lon="17.7392575">
        <ele>46.7612</ele>
        <time>2012-04-15T09:57:02Z</time>
      </trkpt>
      <trkpt lat="59.9783042" lon="17.7391994">
        <ele>47.2418</ele>
        <time>2012-04-15T09:57:06Z</time>
      </trkpt>
      <trkpt lat="59.9781217" lon="17.7391674">
        <ele>46.2806</ele>
        <time>2012-04-15T09:57:10Z</time>
      </trkpt>
      <trkpt lat="59.9779317" lon="17.7390897">
        <ele>42.4354</ele>
        <time>2012-04-15T09:57:14Z</time>
      </trkpt>
      <trkpt lat="59.9774771" lon="17.7390146">
        <ele>38.5901</ele>
        <time>2012-04-15T09:57:21Z</time>
      </trkpt>
      <trkpt lat="59.97708" lon="17.7391878">
        <ele>34.7449</ele>
        <time>2012-04-15T09:57:27Z</time>
      </trkpt>
      <trkpt lat="59.9767635" lon="17.7393337">
        <ele>34.7449</ele>
        <time>2012-04-15T09:57:32Z</time>
      </trkpt>
      <trkpt lat="59.9764675" lon="17.7395219">
        <ele>33.3029</ele>
        <time>2012-04-15T09:57:37Z</time>
      </trkpt>
      <trkpt lat="59.9762673" lon="17.7397403">
        <ele>32.8223</ele>
        <time>2012-04-15T09:57:41Z</time>
      </trkpt>
      <trkpt lat="59.9761052" lon="17.7395813">
        <ele>32.3416</ele>
        <time>2012-04-15T09:57:44Z</time>
      </trkpt>
      <trkpt lat="59.9760529" lon="17.7394853">
        <ele>31.8607</ele>
        <time>2012-04-15T09:57:45Z</time>
      </trkpt>
      <trkpt lat="59.9756018" lon="17.7386534">
        <ele>30.4188</ele>
        <time>2012-04-15T09:57:53Z</time>
      </trkpt>
      <trkpt lat="59.9751078" lon="17.7377716">
        <ele>31.3801</ele>
        <time>2012-04-15T09:58:02Z</time>
      </trkpt>
      <trkpt lat="59.9747676" lon="17.7370645">
        <ele>31.3801</ele>
        <time>2012-04-15T09:58:09Z</time>
      </trkpt>
      <trkpt lat="59.974482" lon="17.7361406">
        <ele>31.3801</ele>
        <time>2012-04-15T09:58:17Z</time>
      </trkpt>
      <trkpt lat="59.9743356" lon="17.735248">
        <ele>30.8995</ele>
        <time>2012-04-15T09:58:24Z</time>
      </trkpt>
      <trkpt lat="59.974289" lon="17.7342359">
        <ele>30.4188</ele>
        <time>2012-04-15T09:58:31Z</time>
      </trkpt>
      <trkpt lat="59.9743469" lon="17.7330709">
        <ele>29.9381</ele>
        <time>2012-04-15T09:58:39Z</time>
      </trkpt>
      <trkpt lat="59.9743413" lon="17.7317738">
        <ele>30.4188</ele>
        <time>2012-04-15T09:58:48Z</time>
      </trkpt>
      <trkpt lat="59.9743807" lon="17.7306282">
        <ele>30.8995</ele>
        <time>2012-04-15T09:58:56Z</time>
      </trkpt>
      <trkpt lat="59.9744658" lon="17.7294128">
        <ele>31.3801</ele>
        <time>2012-04-15T09:59:05Z</time>
      </trkpt>
      <trkpt lat="59.9744487" lon="17.7284185">
        <ele>30.8995</ele>
        <time>2012-04-15T09:59:12Z</time>
      </trkpt>
      <trkpt lat="59.9744263" lon="17.7272593">
        <ele>31.3801</ele>
        <time>2012-04-15T09:59:20Z</time>
      </trkpt>
      <trkpt lat="59.9743934" lon="17.7260641">
        <ele>31.3801</ele>
        <time>2012-04-15T09:59:29Z</time>
      </trkpt>
      <trkpt lat="59.974299" lon="17.7249941">
        <ele>31.3801</ele>
        <time>2012-04-15T09:59:37Z</time>
      </trkpt>
      <trkpt lat="59.9741138" lon="17.7237001">
        <ele>30.8995</ele>
        <time>2012-04-15T09:59:47Z</time>
      </trkpt>
      <trkpt lat="59.9739239" lon="17.7226942">
        <ele>30.8995</ele>
        <time>2012-04-15T09:59:55Z</time>
      </trkpt>
      <trkpt lat="59.9736409" lon="17.7217886">
        <ele>30.8995</ele>
        <time>2012-04-15T10:00:03Z</time>
      </trkpt>
      <trkpt lat="59.9733318" lon="17.7211266">
        <ele>30.8995</ele>
        <time>2012-04-15T10:00:10Z</time>
      </trkpt>
      <trkpt lat="59.9729317" lon="17.7205299">
        <ele>30.8995</ele>
        <time>2012-04-15T10:00:18Z</time>
      </trkpt>
      <trkpt lat="59.9724361" lon="17.7200354">
        <ele>30.4188</ele>
        <time>2012-04-15T10:00:27Z</time>
      </trkpt>
      <trkpt lat="59.9718839" lon="17.7195478">
        <ele>29.4575</ele>
        <time>2012-04-15T10:00:37Z</time>
      </trkpt>
      <trkpt lat="59.9713147" lon="17.7190307">
        <ele>29.9381</ele>
        <time>2012-04-15T10:00:47Z</time>
      </trkpt>
      <trkpt lat="59.9707976" lon="17.7185674">
        <ele>29.4575</ele>
        <time>2012-04-15T10:00:56Z</time>
      </trkpt>
      <trkpt lat="59.9703608" lon="17.7181639">
        <ele>29.9381</ele>
        <time>2012-04-15T10:01:04Z</time>
      </trkpt>
      <trkpt lat="59.9697252" lon="17.7176172">
        <ele>30.4188</ele>
        <time>2012-04-15T10:01:16Z</time>
      </trkpt>
      <trkpt lat="59.9692278" lon="17.7173592">
        <ele>30.8995</ele>
        <time>2012-04-15T10:01:25Z</time>
      </trkpt>
      <trkpt lat="59.9688758" lon="17.7171871">
        <ele>30.8995</ele>
        <time>2012-04-15T10:01:31Z</time>
      </trkpt>
      <trkpt lat="59.9684023" lon="17.7169523">
        <ele>29.9381</ele>
        <time>2012-04-15T10:01:38Z</time>
      </trkpt>
      <trkpt lat="59.968049" lon="17.716564">
        <ele>27.5349</ele>
        <time>2012-04-15T10:01:43Z</time>
      </trkpt>
      <trkpt lat="59.967847" lon="17.7162017">
        <ele>26.0929</ele>
        <time>2012-04-15T10:01:46Z</time>
      </trkpt>
      <trkpt lat="59.9675461" lon="17.7152187">
        <ele>23.209</ele>
        <time>2012-04-15T10:01:52Z</time>
      </trkpt>
      <trkpt lat="59.9674436" lon="17.7145411">
        <ele>24.1703</ele>
        <time>2012-04-15T10:01:56Z</time>
      </trkpt>
      <trkpt lat="59.9673533" lon="17.7138257">
        <ele>25.6123</ele>
        <time>2012-04-15T10:02:01Z</time>
      </trkpt>
      <trkpt lat="59.9672274" lon="17.7130561">
        <ele>28.0155</ele>
        <time>2012-04-15T10:02:08Z</time>
      </trkpt>
      <trkpt lat="59.9669919" lon="17.7122415">
        <ele>28.9769</ele>
        <time>2012-04-15T10:02:17Z</time>
      </trkpt>
      <trkpt lat="59.9667472" lon="17.7115942">
        <ele>28.9769</ele>
        <time>2012-04-15T10:02:24Z</time>
      </trkpt>
      <trkpt lat="59.9664933" lon="17.7107652">
        <ele>28.4962</ele>
        <time>2012-04-15T10:02:32Z</time>
      </trkpt>
      <trkpt lat="59.9661986" lon="17.7097186">
        <ele>28.0155</ele>
        <time>2012-04-15T10:02:41Z</time>
      </trkpt>
      <trkpt lat="59.9658144" lon="17.7085213">
        <ele>28.4962</ele>
        <time>2012-04-15T10:02:51Z</time>
      </trkpt>
      <trkpt lat="59.9656108" lon="17.708142">
        <ele>28.4962</ele>
        <time>2012-04-15T10:02:55Z</time>
      </trkpt>
      <trkpt lat="59.9651109" lon="17.7076797">
        <ele>28.4962</ele>
        <time>2012-04-15T10:03:03Z</time>
      </trkpt>
      <trkpt lat="59.9645578" lon="17.7072936">
        <ele>28.4962</ele>
        <time>2012-04-15T10:03:12Z</time>
      </trkpt>
      <trkpt lat="59.9641163" lon="17.7071351">
        <ele>28.9769</ele>
        <time>2012-04-15T10:03:19Z</time>
      </trkpt>
      <trkpt lat="59.9634755" lon="17.7070502">
        <ele>28.9769</ele>
        <time>2012-04-15T10:03:29Z</time>
      </trkpt>
      <trkpt lat="59.9629149" lon="17.7070622">
        <ele>29.4575</ele>
        <time>2012-04-15T10:03:38Z</time>
      </trkpt>
      <trkpt lat="59.9625053" lon="17.7069879">
        <ele>29.4575</ele>
        <time>2012-04-15T10:03:45Z</time>
      </trkpt>
      <trkpt lat="59.9620602" lon="17.7067679">
        <ele>29.9381</ele>
        <time>2012-04-15T10:03:53Z</time>
      </trkpt>
      <trkpt lat="59.9616153" lon="17.7063503">
        <ele>30.4188</ele>
        <time>2012-04-15T10:04:01Z</time>
      </trkpt>
      <trkpt lat="59.9611826" lon="17.7056231">
        <ele>30.4188</ele>
        <time>2012-04-15T10:04:10Z</time>
      </trkpt>
      <trkpt lat="59.9607265" lon="17.7049147">
        <ele>31.3801</ele>
        <time>2012-04-15T10:04:19Z</time>
      </trkpt>
      <trkpt lat="59.9602274" lon="17.7043234">
        <ele>32.8223</ele>
        <time>2012-04-15T10:04:28Z</time>
      </trkpt>
      <trkpt lat="59.9600365" lon="17.7039966">
        <ele>32.8223</ele>
        <time>2012-04-15T10:04:32Z</time>
      </trkpt>
      <trkpt lat="59.959834" lon="17.7033831">
        <ele>32.3416</ele>
        <time>2012-04-15T10:04:38Z</time>
      </trkpt>
      <trkpt lat="59.9595971" lon="17.7025993">
        <ele>32.8223</ele>
        <time>2012-04-15T10:04:46Z</time>
      </trkpt>
      <trkpt lat="59.9593796" lon="17.7017829">
        <ele>32.3416</ele>
        <time>2012-04-15T10:04:53Z</time>
      </trkpt>
      <trkpt lat="59.9592123" lon="17.7008512">
        <ele>32.3416</ele>
        <time>2012-04-15T10:05:00Z</time>
      </trkpt>
      <trkpt lat="59.9591163" lon="17.69984">
        <ele>32.3416</ele>
        <time>2012-04-15T10:05:07Z</time>
      </trkpt>
      <trkpt lat="59.9590585" lon="17.6988732">
        <ele>33.3029</ele>
        <time>2012-04-15T10:05:14Z</time>
      </trkpt>
      <trkpt lat="59.9590158" lon="17.6978104">
        <ele>33.3029</ele>
        <time>2012-04-15T10:05:22Z</time>
      </trkpt>
      <trkpt lat="59.9588792" lon="17.6969439">
        <ele>31.8607</ele>
        <time>2012-04-15T10:05:28Z</time>
      </trkpt>
      <trkpt lat="59.958657" lon="17.6961647">
        <ele>31.8607</ele>
        <time>2012-04-15T10:05:34Z</time>
      </trkpt>
      <trkpt lat="59.9581825" lon="17.6949672">
        <ele>30.8995</ele>
        <time>2012-04-15T10:05:45Z</time>
      </trkpt>
      <trkpt lat="59.957711" lon="17.6936366">
        <ele>30.4188</ele>
        <time>2012-04-15T10:05:57Z</time>
      </trkpt>
      <trkpt lat="59.9573502" lon="17.6925961">
        <ele>30.4188</ele>
        <time>2012-04-15T10:06:06Z</time>
      </trkpt>
      <trkpt lat="59.9569839" lon="17.6915317">
        <ele>30.8995</ele>
        <time>2012-04-15T10:06:15Z</time>
      </trkpt>
      <trkpt lat="59.956741" lon="17.6908182">
        <ele>32.8223</ele>
        <time>2012-04-15T10:06:22Z</time>
      </trkpt>
      <trkpt lat="59.9564384" lon="17.690018">
        <ele>33.7834</ele>
        <time>2012-04-15T10:06:31Z</time>
      </trkpt>
      <trkpt lat="59.9564058" lon="17.6899226">
        <ele>33.7834</ele>
        <time>2012-04-15T10:06:32Z</time>
      </trkpt>
      <trkpt lat="59.9563467" lon="17.6897143">
        <ele>33.7834</ele>
        <time>2012-04-15T10:06:34Z</time>
      </trkpt>
      <trkpt lat="59.9561873" lon="17.6893035">
        <ele>32.3416</ele>
        <time>2012-04-15T10:06:38Z</time>
      </trkpt>
      <trkpt lat="59.9560375" lon="17.6885142">
        <ele>32.3416</ele>
        <time>2012-04-15T10:06:44Z</time>
      </trkpt>
      <trkpt lat="59.9558291" lon="17.6871473">
        <ele>32.3416</ele>
        <time>2012-04-15T10:06:54Z</time>
      </trkpt>
      <trkpt lat="59.9556508" lon="17.6859076">
        <ele>31.8607</ele>
        <time>2012-04-15T10:07:03Z</time>
      </trkpt>
      <trkpt lat="59.9554196" lon="17.6843556">
        <ele>31.3801</ele>
        <time>2012-04-15T10:07:14Z</time>
      </trkpt>
      <trkpt lat="59.9551812" lon="17.6832202">
        <ele>30.8995</ele>
        <time>2012-04-15T10:07:22Z</time>
      </trkpt>
      <trkpt lat="59.9548391" lon="17.6820601">
        <ele>30.4188</ele>
        <time>2012-04-15T10:07:31Z</time>
      </trkpt>
      <trkpt lat="59.9546197" lon="17.6816838">
        <ele>30.4188</ele>
        <time>2012-04-15T10:07:35Z</time>
      </trkpt>
      <trkpt lat="59.9545782" lon="17.6815716">
        <ele>30.4188</ele>
        <time>2012-04-15T10:07:36Z</time>
      </trkpt>
      <trkpt lat="59.954274" lon="17.6806057">
        <ele>29.9381</ele>
        <time>2012-04-15T10:07:44Z</time>
      </trkpt>
      <trkpt lat="59.9539388" lon="17.6796781">
        <ele>30.4188</ele>
        <time>2012-04-15T10:07:52Z</time>
      </trkpt>
      <trkpt lat="59.953714" lon="17.678944">
        <ele>30.4188</ele>
        <time>2012-04-15T10:07:58Z</time>
      </trkpt>
      <trkpt lat="59.9533795" lon="17.6779401">
        <ele>30.4188</ele>
        <time>2012-04-15T10:08:07Z</time>
      </trkpt>
      <trkpt lat="59.9530516" lon="17.6770489">
        <ele>29.9381</ele>
        <time>2012-04-15T10:08:16Z</time>
      </trkpt>
      <trkpt lat="59.9527775" lon="17.676373">
        <ele>31.3801</ele>
        <time>2012-04-15T10:08:23Z</time>
      </trkpt>
      <trkpt lat="59.9524725" lon="17.6755291">
        <ele>33.3029</ele>
        <time>2012-04-15T10:08:32Z</time>
      </trkpt>
      <trkpt lat="59.9522917" lon="17.6749708">
        <ele>34.2642</ele>
        <time>2012-04-15T10:08:39Z</time>
      </trkpt>
      <trkpt lat="59.9521963" lon="17.6743503">
        <ele>32.8223</ele>
        <time>2012-04-15T10:08:44Z</time>
      </trkpt>
      <trkpt lat="59.952009" lon="17.6733947">
        <ele>31.3801</ele>
        <time>2012-04-15T10:08:51Z</time>
      </trkpt>
      <trkpt lat="59.9518492" lon="17.6722045">
        <ele>29.4575</ele>
        <time>2012-04-15T10:08:59Z</time>
      </trkpt>
      <trkpt lat="59.9518115" lon="17.6714537">
        <ele>28.4962</ele>
        <time>2012-04-15T10:09:04Z</time>
      </trkpt>
      <trkpt lat="59.9517447" lon="17.6709915">
        <ele>27.5349</ele>
        <time>2012-04-15T10:09:07Z</time>
      </trkpt>
      <trkpt lat="59.9517587" lon="17.6702944">
        <ele>26.0929</ele>
        <time>2012-04-15T10:09:11Z</time>
      </trkpt>
      <trkpt lat="59.9518172" lon="17.6692971">
        <ele>25.1317</ele>
        <time>2012-04-15T10:09:17Z</time>
      </trkpt>
      <trkpt lat="59.9518281" lon="17.6688494">
        <ele>24.651</ele>
        <time>2012-04-15T10:09:20Z</time>
      </trkpt>
      <trkpt lat="59.9516875" lon="17.6681626">
        <ele>24.1703</ele>
        <time>2012-04-15T10:09:25Z</time>
      </trkpt>
      <trkpt lat="59.9515017" lon="17.6679922">
        <ele>24.1703</ele>
        <time>2012-04-15T10:09:28Z</time>
      </trkpt>
      <trkpt lat="59.9514344" lon="17.6679988">
        <ele>24.651</ele>
        <time>2012-04-15T10:09:29Z</time>
      </trkpt>
      <trkpt lat="59.9509345" lon="17.6681538">
        <ele>26.0929</ele>
        <time>2012-04-15T10:09:37Z</time>
      </trkpt>
      <trkpt lat="59.9504963" lon="17.6682262">
        <ele>26.5736</ele>
        <time>2012-04-15T10:09:45Z</time>
      </trkpt>
      <trkpt lat="59.9499949" lon="17.6681471">
        <ele>27.5349</ele>
        <time>2012-04-15T10:09:54Z</time>
      </trkpt>
      <trkpt lat="59.9494753" lon="17.6679091">
        <ele>27.5349</ele>
        <time>2012-04-15T10:10:03Z</time>
      </trkpt>
      <trkpt lat="59.9488971" lon="17.6675871">
        <ele>28.0155</ele>
        <time>2012-04-15T10:10:13Z</time>
      </trkpt>
      <trkpt lat="59.948144" lon="17.6671651">
        <ele>28.4962</ele>
        <time>2012-04-15T10:10:26Z</time>
      </trkpt>
      <trkpt lat="59.9475182" lon="17.6668427">
        <ele>28.4962</ele>
        <time>2012-04-15T10:10:37Z</time>
      </trkpt>
      <trkpt lat="59.9470136" lon="17.666611">
        <ele>28.4962</ele>
        <time>2012-04-15T10:10:46Z</time>
      </trkpt>
      <trkpt lat="59.9467393" lon="17.6665038">
        <ele>28.4962</ele>
        <time>2012-04-15T10:10:51Z</time>
      </trkpt>
      <trkpt lat="59.9464159" lon="17.666449">
        <ele>28.9769</ele>
        <time>2012-04-15T10:10:57Z</time>
      </trkpt>
      <trkpt lat="59.946262" lon="17.6663325">
        <ele>28.9769</ele>
        <time>2012-04-15T10:11:00Z</time>
      </trkpt>
      <trkpt lat="59.9458378" lon="17.6661428">
        <ele>28.9769</ele>
        <time>2012-04-15T10:11:08Z</time>
      </trkpt>
      <trkpt lat="59.9451414" lon="17.6658801">
        <ele>29.4575</ele>
        <time>2012-04-15T10:11:21Z</time>
      </trkpt>
      <trkpt lat="59.9445433" lon="17.6656565">
        <ele>29.4575</ele>
        <time>2012-04-15T10:11:32Z</time>
      </trkpt>
      <trkpt lat="59.9440016" lon="17.6654317">
        <ele>29.9381</ele>
        <time>2012-04-15T10:11:42Z</time>
      </trkpt>
      <trkpt lat="59.9434905" lon="17.6651095">
        <ele>30.8995</ele>
        <time>2012-04-15T10:11:52Z</time>
      </trkpt>
      <trkpt lat="59.9429562" lon="17.6646526">
        <ele>32.3416</ele>
        <time>2012-04-15T10:12:03Z</time>
      </trkpt>
      <trkpt lat="59.9425343" lon="17.6641834">
        <ele>33.7834</ele>
        <time>2012-04-15T10:12:12Z</time>
      </trkpt>
      <trkpt lat="59.9421299" lon="17.6636388">
        <ele>34.2642</ele>
        <time>2012-04-15T10:12:21Z</time>
      </trkpt>
      <trkpt lat="59.9417875" lon="17.6630805">
        <ele>33.7834</ele>
        <time>2012-04-15T10:12:29Z</time>
      </trkpt>
      <trkpt lat="59.9414755" lon="17.6625582">
        <ele>33.3029</ele>
        <time>2012-04-15T10:12:36Z</time>
      </trkpt>
      <trkpt lat="59.9411375" lon="17.6622325">
        <ele>32.8223</ele>
        <time>2012-04-15T10:12:42Z</time>
      </trkpt>
      <trkpt lat="59.9407686" lon="17.6620987">
        <ele>32.8223</ele>
        <time>2012-04-15T10:12:48Z</time>
      </trkpt>
      <trkpt lat="59.9407053" lon="17.6620837">
        <ele>32.3416</ele>
        <time>2012-04-15T10:12:49Z</time>
      </trkpt>
      <trkpt lat="59.940478" lon="17.661816">
        <ele>31.8607</ele>
        <time>2012-04-15T10:12:53Z</time>
      </trkpt>
      <trkpt lat="59.9404096" lon="17.6614064">
        <ele>31.3801</ele>
        <time>2012-04-15T10:12:56Z</time>
      </trkpt>
      <trkpt lat="59.9404563" lon="17.6608334">
        <ele>31.8607</ele>
        <time>2012-04-15T10:13:00Z</time>
      </trkpt>
      <trkpt lat="59.9405413" lon="17.6603283">
        <ele>32.8223</ele>
        <time>2012-04-15T10:13:04Z</time>
      </trkpt>
      <trkpt lat="59.9405209" lon="17.6600838">
        <ele>33.3029</ele>
        <time>2012-04-15T10:13:06Z</time>
      </trkpt>
      <trkpt lat="59.9403462" lon="17.6593974">
        <ele>33.3029</ele>
        <time>2012-04-15T10:13:12Z</time>
      </trkpt>
      <trkpt lat="59.9401343" lon="17.6583361">
        <ele>32.8223</ele>
        <time>2012-04-15T10:13:20Z</time>
      </trkpt>
      <trkpt lat="59.9399051" lon="17.6572492">
        <ele>33.7834</ele>
        <time>2012-04-15T10:13:29Z</time>
      </trkpt>
      <trkpt lat="59.939731" lon="17.6563712">
        <ele>34.7449</ele>
        <time>2012-04-15T10:13:37Z</time>
      </trkpt>
      <trkpt lat="59.9394673" lon="17.6550816">
        <ele>35.2255</ele>
        <time>2012-04-15T10:13:49Z</time>
      </trkpt>
      <trkpt lat="59.9392078" lon="17.6538137">
        <ele>34.7449</ele>
        <time>2012-04-15T10:14:00Z</time>
      </trkpt>
      <trkpt lat="59.9389183" lon="17.6526073">
        <ele>34.2642</ele>
        <time>2012-04-15T10:14:10Z</time>
      </trkpt>
      <trkpt lat="59.9386535" lon="17.6516868">
        <ele>33.7834</ele>
        <time>2012-04-15T10:14:18Z</time>
      </trkpt>
      <trkpt lat="59.9384738" lon="17.6511399">
        <ele>33.3029</ele>
        <time>2012-04-15T10:14:23Z</time>
      </trkpt>
      <trkpt lat="59.938213" lon="17.6505411">
        <ele>33.3029</ele>
        <time>2012-04-15T10:14:29Z</time>
      </trkpt>
      <trkpt lat="59.9380123" lon="17.6499671">
        <ele>33.7834</ele>
        <time>2012-04-15T10:14:35Z</time>
      </trkpt>
      <trkpt lat="59.9379055" lon="17.6497205">
        <ele>34.2642</ele>
        <time>2012-04-15T10:14:40Z</time>
      </trkpt>
      <trkpt lat="59.9377807" lon="17.6493909">
        <ele>34.2642</ele>
        <time>2012-04-15T10:14:47Z</time>
      </trkpt>
      <trkpt lat="59.9376888" lon="17.6491008">
        <ele>34.7449</ele>
        <time>2012-04-15T10:14:51Z</time>
      </trkpt>
      <trkpt lat="59.9375932" lon="17.6487838">
        <ele>35.2255</ele>
        <time>2012-04-15T10:14:55Z</time>
      </trkpt>
      <trkpt lat="59.9374394" lon="17.6485014">
        <ele>35.7061</ele>
        <time>2012-04-15T10:14:59Z</time>
      </trkpt>
      <trkpt lat="59.9372688" lon="17.6481839">
        <ele>35.2255</ele>
        <time>2012-04-15T10:15:03Z</time>
      </trkpt>
      <trkpt lat="59.9367901" lon="17.6475878">
        <ele>35.7061</ele>
        <time>2012-04-15T10:15:13Z</time>
      </trkpt>
      <trkpt lat="59.9363529" lon="17.6470059">
        <ele>36.1868</ele>
        <time>2012-04-15T10:15:22Z</time>
      </trkpt>
      <trkpt lat="59.9359806" lon="17.6465234">
        <ele>37.1481</ele>
        <time>2012-04-15T10:15:30Z</time>
      </trkpt>
      <trkpt lat="59.9355924" lon="17.6460436">
        <ele>36.6675</ele>
        <time>2012-04-15T10:15:38Z</time>
      </trkpt>
      <trkpt lat="59.9352205" lon="17.6456104">
        <ele>36.1868</ele>
        <time>2012-04-15T10:15:45Z</time>
      </trkpt>
      <trkpt lat="59.934862" lon="17.6451999">
        <ele>36.6675</ele>
        <time>2012-04-15T10:15:52Z</time>
      </trkpt>
      <trkpt lat="59.9345581" lon="17.6448117">
        <ele>36.1868</ele>
        <time>2012-04-15T10:15:58Z</time>
      </trkpt>
      <trkpt lat="59.9342152" lon="17.6442886">
        <ele>33.7834</ele>
        <time>2012-04-15T10:16:04Z</time>
      </trkpt>
      <trkpt lat="59.93389" lon="17.643879">
        <ele>32.8223</ele>
        <time>2012-04-15T10:16:09Z</time>
      </trkpt>
      <trkpt lat="59.9334062" lon="17.6433488">
        <ele>31.3801</ele>
        <time>2012-04-15T10:16:16Z</time>
      </trkpt>
      <trkpt lat="59.9330471" lon="17.6428036">
        <ele>28.0155</ele>
        <time>2012-04-15T10:16:21Z</time>
      </trkpt>
      <trkpt lat="59.9328906" lon="17.642601">
        <ele>27.0543</ele>
        <time>2012-04-15T10:16:23Z</time>
      </trkpt>
      <trkpt lat="59.9327529" lon="17.6423724">
        <ele>26.5736</ele>
        <time>2012-04-15T10:16:25Z</time>
      </trkpt>
      <trkpt lat="59.932393" lon="17.6419353">
        <ele>25.1317</ele>
        <time>2012-04-15T10:16:30Z</time>
      </trkpt>
      <trkpt lat="59.9318992" lon="17.6415091">
        <ele>24.651</ele>
        <time>2012-04-15T10:16:37Z</time>
      </trkpt>
      <trkpt lat="59.9313252" lon="17.641112">
        <ele>23.6896</ele>
        <time>2012-04-15T10:16:45Z</time>
      </trkpt>
      <trkpt lat="59.9309461" lon="17.6408442">
        <ele>21.767</ele>
        <time>2012-04-15T10:16:50Z</time>
      </trkpt>
      <trkpt lat="59.9305757" lon="17.6408112">
        <ele>21.767</ele>
        <time>2012-04-15T10:16:55Z</time>
      </trkpt>
      <trkpt lat="59.9301271" lon="17.6408217">
        <ele>20.8057</ele>
        <time>2012-04-15T10:17:01Z</time>
      </trkpt>
      <trkpt lat="59.9296463" lon="17.6408582">
        <ele>20.8057</ele>
        <time>2012-04-15T10:17:08Z</time>
      </trkpt>
      <trkpt lat="59.9291168" lon="17.6409211">
        <ele>20.325</ele>
        <time>2012-04-15T10:17:16Z</time>
      </trkpt>
      <trkpt lat="59.9286239" lon="17.6410009">
        <ele>20.8057</ele>
        <time>2012-04-15T10:17:24Z</time>
      </trkpt>
      <trkpt lat="59.9280284" lon="17.6410857">
        <ele>20.325</ele>
        <time>2012-04-15T10:17:34Z</time>
      </trkpt>
      <trkpt lat="59.9271361" lon="17.6411728">
        <ele>20.325</ele>
        <time>2012-04-15T10:17:49Z</time>
      </trkpt>
      <trkpt lat="59.9264912" lon="17.6412446">
        <ele>20.8057</ele>
        <time>2012-04-15T10:18:00Z</time>
      </trkpt>
      <trkpt lat="59.9258219" lon="17.6413344">
        <ele>21.2864</ele>
        <time>2012-04-15T10:18:12Z</time>
      </trkpt>
      <trkpt lat="59.9251796" lon="17.6413954">
        <ele>22.2476</ele>
        <time>2012-04-15T10:18:24Z</time>
      </trkpt>
      <trkpt lat="59.9246091" lon="17.6414726">
        <ele>22.7283</ele>
        <time>2012-04-15T10:18:35Z</time>
      </trkpt>
      <trkpt lat="59.9241797" lon="17.6415227">
        <ele>22.7283</ele>
        <time>2012-04-15T10:18:43Z</time>
      </trkpt>
      <trkpt lat="59.9236282" lon="17.6415851">
        <ele>23.6896</ele>
        <time>2012-04-15T10:18:53Z</time>
      </trkpt>
      <trkpt lat="59.9231146" lon="17.6416555">
        <ele>25.6123</ele>
        <time>2012-04-15T10:19:03Z</time>
      </trkpt>
      <trkpt lat="59.9226293" lon="17.6417092">
        <ele>27.0543</ele>
        <time>2012-04-15T10:19:13Z</time>
      </trkpt>
      <trkpt lat="59.9221694" lon="17.6417783">
        <ele>27.0543</ele>
        <time>2012-04-15T10:19:22Z</time>
      </trkpt>
      <trkpt lat="59.9216619" lon="17.6418409">
        <ele>27.5349</ele>
        <time>2012-04-15T10:19:32Z</time>
      </trkpt>
      <trkpt lat="59.9212479" lon="17.6418974">
        <ele>26.5736</ele>
        <time>2012-04-15T10:19:40Z</time>
      </trkpt>
      <trkpt lat="59.920791" lon="17.6419229">
        <ele>25.6123</ele>
        <time>2012-04-15T10:19:47Z</time>
      </trkpt>
      <trkpt lat="59.9201522" lon="17.6419403">
        <ele>26.0929</ele>
        <time>2012-04-15T10:19:57Z</time>
      </trkpt>
      <trkpt lat="59.9200291" lon="17.6419475">
        <ele>26.0929</ele>
        <time>2012-04-15T10:19:59Z</time>
      </trkpt>
      <trkpt lat="59.9194193" lon="17.642057">
        <ele>26.5736</ele>
        <time>2012-04-15T10:20:09Z</time>
      </trkpt>
      <trkpt lat="59.9187723" lon="17.6421348">
        <ele>26.5736</ele>
        <time>2012-04-15T10:20:20Z</time>
      </trkpt>
      <trkpt lat="59.9181912" lon="17.642203">
        <ele>25.6123</ele>
        <time>2012-04-15T10:20:29Z</time>
      </trkpt>
      <trkpt lat="59.9174839" lon="17.6422448">
        <ele>24.1703</ele>
        <time>2012-04-15T10:20:39Z</time>
      </trkpt>
      <trkpt lat="59.9172033" lon="17.6422441">
        <ele>24.1703</ele>
        <time>2012-04-15T10:20:43Z</time>
      </trkpt>
      <trkpt lat="59.9168122" lon="17.6423371">
        <ele>24.651</ele>
        <time>2012-04-15T10:20:49Z</time>
      </trkpt>
      <trkpt lat="59.916337" lon="17.6424085">
        <ele>25.6123</ele>
        <time>2012-04-15T10:20:57Z</time>
      </trkpt>
      <trkpt lat="59.9158417" lon="17.6424267">
        <ele>25.1317</ele>
        <time>2012-04-15T10:21:05Z</time>
      </trkpt>
      <trkpt lat="59.9153676" lon="17.642504">
        <ele>25.1317</ele>
        <time>2012-04-15T10:21:12Z</time>
      </trkpt>
      <trkpt lat="59.9151896" lon="17.6426199">
        <ele>25.6123</ele>
        <time>2012-04-15T10:21:15Z</time>
      </trkpt>
      <trkpt lat="59.914884" lon="17.6427221">
        <ele>26.0929</ele>
        <time>2012-04-15T10:21:21Z</time>
      </trkpt>
      <trkpt lat="59.9144239" lon="17.6428049">
        <ele>27.0543</ele>
        <time>2012-04-15T10:21:30Z</time>
      </trkpt>
      <trkpt lat="59.9139308" lon="17.6428947">
        <ele>28.0155</ele>
        <time>2012-04-15T10:21:40Z</time>
      </trkpt>
      <trkpt lat="59.9135357" lon="17.6429747">
        <ele>28.0155</ele>
        <time>2012-04-15T10:21:48Z</time>
      </trkpt>
      <trkpt lat="59.9131743" lon="17.6430537">
        <ele>28.4962</ele>
        <time>2012-04-15T10:21:55Z</time>
      </trkpt>
      <trkpt lat="59.9127979" lon="17.6431227">
        <ele>28.9769</ele>
        <time>2012-04-15T10:22:02Z</time>
      </trkpt>
      <trkpt lat="59.9125494" lon="17.6430319">
        <ele>28.0155</ele>
        <time>2012-04-15T10:22:06Z</time>
      </trkpt>
      <trkpt lat="59.9124081" lon="17.643038">
        <ele>28.0155</ele>
        <time>2012-04-15T10:22:08Z</time>
      </trkpt>
      <trkpt lat="59.9119782" lon="17.6431675">
        <ele>29.4575</ele>
        <time>2012-04-15T10:22:15Z</time>
      </trkpt>
      <trkpt lat="59.9115351" lon="17.6432505">
        <ele>29.4575</ele>
        <time>2012-04-15T10:22:23Z</time>
      </trkpt>
      <trkpt lat="59.9110778" lon="17.6433532">
        <ele>29.4575</ele>
        <time>2012-04-15T10:22:31Z</time>
      </trkpt>
      <trkpt lat="59.9106328" lon="17.6434342">
        <ele>28.9769</ele>
        <time>2012-04-15T10:22:38Z</time>
      </trkpt>
      <trkpt lat="59.9103315" lon="17.6435675">
        <ele>29.4575</ele>
        <time>2012-04-15T10:22:43Z</time>
      </trkpt>
      <trkpt lat="59.9100854" lon="17.643584">
        <ele>28.9769</ele>
        <time>2012-04-15T10:22:47Z</time>
      </trkpt>
      <trkpt lat="59.9098756" lon="17.6435131">
        <ele>28.4962</ele>
        <time>2012-04-15T10:22:50Z</time>
      </trkpt>
      <trkpt lat="59.9094583" lon="17.6435681">
        <ele>28.0155</ele>
        <time>2012-04-15T10:22:56Z</time>
      </trkpt>
      <trkpt lat="59.9088058" lon="17.64366">
        <ele>28.0155</ele>
        <time>2012-04-15T10:23:06Z</time>
      </trkpt>
      <trkpt lat="59.9082509" lon="17.6436597">
        <ele>28.4962</ele>
        <time>2012-04-15T10:23:15Z</time>
      </trkpt>
      <trkpt lat="59.9077008" lon="17.6435774">
        <ele>27.5349</ele>
        <time>2012-04-15T10:23:24Z</time>
      </trkpt>
      <trkpt lat="59.9069325" lon="17.6434295">
        <ele>26.5736</ele>
        <time>2012-04-15T10:23:36Z</time>
      </trkpt>
      <trkpt lat="59.9064285" lon="17.6432857">
        <ele>26.0929</ele>
        <time>2012-04-15T10:23:44Z</time>
      </trkpt>
      <trkpt lat="59.9059568" lon="17.6430759">
        <ele>25.1317</ele>
        <time>2012-04-15T10:23:51Z</time>
      </trkpt>
      <trkpt lat="59.9054024" lon="17.6429003">
        <ele>25.1317</ele>
        <time>2012-04-15T10:23:59Z</time>
      </trkpt>
      <trkpt lat="59.9048035" lon="17.6426127">
        <ele>25.6123</ele>
        <time>2012-04-15T10:24:08Z</time>
      </trkpt>
      <trkpt lat="59.9043908" lon="17.6423347">
        <ele>25.1317</ele>
        <time>2012-04-15T10:24:14Z</time>
      </trkpt>
      <trkpt lat="59.9038195" lon="17.6420191">
        <ele>26.0929</ele>
        <time>2012-04-15T10:24:23Z</time>
      </trkpt>
      <trkpt lat="59.9037033" lon="17.6419622">
        <ele>26.5736</ele>
        <time>2012-04-15T10:24:25Z</time>
      </trkpt>
      <trkpt lat="59.9034837" lon="17.6419187">
        <ele>26.0929</ele>
        <time>2012-04-15T10:24:29Z</time>
      </trkpt>
      <trkpt lat="59.9030106" lon="17.6416514">
        <ele>25.1317</ele>
        <time>2012-04-15T10:24:37Z</time>
      </trkpt>
      <trkpt lat="59.9023587" lon="17.6412633">
        <ele>24.651</ele>
        <time>2012-04-15T10:24:48Z</time>
      </trkpt>
      <trkpt lat="59.9019333" lon="17.6409412">
        <ele>25.1317</ele>
        <time>2012-04-15T10:24:55Z</time>
      </trkpt>
      <trkpt lat="59.9013211" lon="17.640387">
        <ele>25.6123</ele>
        <time>2012-04-15T10:25:05Z</time>
      </trkpt>
      <trkpt lat="59.9006321" lon="17.6396918">
        <ele>26.0929</ele>
        <time>2012-04-15T10:25:17Z</time>
      </trkpt>
      <trkpt lat="59.9000772" lon="17.6391344">
        <ele>26.5736</ele>
        <time>2012-04-15T10:25:27Z</time>
      </trkpt>
      <trkpt lat="59.8998573" lon="17.6389053">
        <ele>26.5736</ele>
        <time>2012-04-15T10:25:31Z</time>
      </trkpt>
      <trkpt lat="59.8995169" lon="17.6385738">
        <ele>28.0155</ele>
        <time>2012-04-15T10:25:37Z</time>
      </trkpt>
      <trkpt lat="59.8990948" lon="17.6381849">
        <ele>28.9769</ele>
        <time>2012-04-15T10:25:45Z</time>
      </trkpt>
      <trkpt lat="59.898654" lon="17.6377798">
        <ele>29.9381</ele>
        <time>2012-04-15T10:25:54Z</time>
      </trkpt>
      <trkpt lat="59.8982092" lon="17.6373903">
        <ele>30.4188</ele>
        <time>2012-04-15T10:26:03Z</time>
      </trkpt>
      <trkpt lat="59.8978179" lon="17.6370758">
        <ele>31.8607</ele>
        <time>2012-04-15T10:26:11Z</time>
      </trkpt>
      <trkpt lat="59.8976594" lon="17.6369933">
        <ele>32.3416</ele>
        <time>2012-04-15T10:26:15Z</time>
      </trkpt>
      <trkpt lat="59.8974396" lon="17.6368189">
        <ele>32.8223</ele>
        <time>2012-04-15T10:26:20Z</time>
      </trkpt>
      <trkpt lat="59.8972971" lon="17.6367778">
        <ele>33.3029</ele>
        <time>2012-04-15T10:26:23Z</time>
      </trkpt>
      <trkpt lat="59.8971224" lon="17.6367853">
        <ele>33.7834</ele>
        <time>2012-04-15T10:26:27Z</time>
      </trkpt>
      <trkpt lat="59.8967953" lon="17.6366354">
        <ele>34.2642</ele>
        <time>2012-04-15T10:26:34Z</time>
      </trkpt>
      <trkpt lat="59.896374" lon="17.6364875">
        <ele>34.2642</ele>
        <time>2012-04-15T10:26:42Z</time>
      </trkpt>
      <trkpt lat="59.8960301" lon="17.6363553">
        <ele>33.7834</ele>
        <time>2012-04-15T10:26:48Z</time>
      </trkpt>
      <trkpt lat="59.895563" lon="17.6364364">
        <ele>33.3029</ele>
        <time>2012-04-15T10:26:56Z</time>
      </trkpt>
      <trkpt lat="59.8950355" lon="17.6367666">
        <ele>32.8223</ele>
        <time>2012-04-15T10:27:05Z</time>
      </trkpt>
      <trkpt lat="59.8945583" lon="17.6370772">
        <ele>32.3416</ele>
        <time>2012-04-15T10:27:13Z</time>
      </trkpt>
      <trkpt lat="59.8940788" lon="17.6373727">
        <ele>31.8607</ele>
        <time>2012-04-15T10:27:21Z</time>
      </trkpt>
      <trkpt lat="59.893674" lon="17.6376762">
        <ele>31.3801</ele>
        <time>2012-04-15T10:27:28Z</time>
      </trkpt>
      <trkpt lat="59.8930815" lon="17.6380673">
        <ele>29.4575</ele>
        <time>2012-04-15T10:27:38Z</time>
      </trkpt>
      <trkpt lat="59.8928278" lon="17.6381953">
        <ele>28.4962</ele>
        <time>2012-04-15T10:27:42Z</time>
      </trkpt>
      <trkpt lat="59.8926025" lon="17.6382973">
        <ele>27.0543</ele>
        <time>2012-04-15T10:27:46Z</time>
      </trkpt>
      <trkpt lat="59.8926045" lon="17.6384844">
        <ele>27.0543</ele>
        <time>2012-04-15T10:27:48Z</time>
      </trkpt>
      <trkpt lat="59.8926702" lon="17.6387571">
        <ele>27.0543</ele>
        <time>2012-04-15T10:27:51Z</time>
      </trkpt>
      <trkpt lat="59.8926698" lon="17.6388538">
        <ele>27.0543</ele>
        <time>2012-04-15T10:27:52Z</time>
      </trkpt>
      <trkpt lat="59.8926552" lon="17.6398498">
        <ele>27.5349</ele>
        <time>2012-04-15T10:28:02Z</time>
      </trkpt>
      <trkpt lat="59.8926256" lon="17.6408096">
        <ele>27.5349</ele>
        <time>2012-04-15T10:28:11Z</time>
      </trkpt>
      <trkpt lat="59.892572" lon="17.6417499">
        <ele>28.0155</ele>
        <time>2012-04-15T10:28:19Z</time>
      </trkpt>
      <trkpt lat="59.8924986" lon="17.6426843">
        <ele>28.9769</ele>
        <time>2012-04-15T10:28:27Z</time>
      </trkpt>
      <trkpt lat="59.8924101" lon="17.6437457">
        <ele>29.4575</ele>
        <time>2012-04-15T10:28:37Z</time>
      </trkpt>
      <trkpt lat="59.8923309" lon="17.6445125">
        <ele>29.4575</ele>
        <time>2012-04-15T10:28:44Z</time>
      </trkpt>
      <trkpt lat="59.8922087" lon="17.6457215">
        <ele>28.9769</ele>
        <time>2012-04-15T10:28:54Z</time>
      </trkpt>
      <trkpt lat="59.8920667" lon="17.6470377">
        <ele>29.4575</ele>
        <time>2012-04-15T10:29:05Z</time>
      </trkpt>
      <trkpt lat="59.8919529" lon="17.6477826">
        <ele>29.4575</ele>
        <time>2012-04-15T10:29:12Z</time>
      </trkpt>
      <trkpt lat="59.8918695" lon="17.6482933">
        <ele>29.4575</ele>
        <time>2012-04-15T10:29:17Z</time>
      </trkpt>
      <trkpt lat="59.8917962" lon="17.648572">
        <ele>29.4575</ele>
        <time>2012-04-15T10:29:20Z</time>
      </trkpt>
      <trkpt lat="59.8916421" lon="17.6490076">
        <ele>28.9769</ele>
        <time>2012-04-15T10:29:25Z</time>
      </trkpt>
      <trkpt lat="59.8915352" lon="17.6493778">
        <ele>28.4962</ele>
        <time>2012-04-15T10:29:29Z</time>
      </trkpt>
      <trkpt lat="59.8915217" lon="17.6497788">
        <ele>28.9769</ele>
        <time>2012-04-15T10:29:33Z</time>
      </trkpt>
      <trkpt lat="59.8915036" lon="17.6498769">
        <ele>28.9769</ele>
        <time>2012-04-15T10:29:34Z</time>
      </trkpt>
      <trkpt lat="59.8912169" lon="17.6508518">
        <ele>28.4962</ele>
        <time>2012-04-15T10:29:44Z</time>
      </trkpt>
      <trkpt lat="59.8911501" lon="17.6510528">
        <ele>28.4962</ele>
        <time>2012-04-15T10:29:46Z</time>
      </trkpt>
      <trkpt lat="59.8910834" lon="17.6513827">
        <ele>28.9769</ele>
        <time>2012-04-15T10:29:49Z</time>
      </trkpt>
      <trkpt lat="59.8909194" lon="17.6519018">
        <ele>28.4962</ele>
        <time>2012-04-15T10:29:54Z</time>
      </trkpt>
      <trkpt lat="59.8904583" lon="17.6530365">
        <ele>27.5349</ele>
        <time>2012-04-15T10:30:05Z</time>
      </trkpt>
      <trkpt lat="59.8899962" lon="17.6543055">
        <ele>27.0543</ele>
        <time>2012-04-15T10:30:17Z</time>
      </trkpt>
      <trkpt lat="59.8895804" lon="17.6554418">
        <ele>27.0543</ele>
        <time>2012-04-15T10:30:28Z</time>
      </trkpt>
      <trkpt lat="59.8891675" lon="17.6565712">
        <ele>27.0543</ele>
        <time>2012-04-15T10:30:39Z</time>
      </trkpt>
      <trkpt lat="59.8888262" lon="17.6575042">
        <ele>26.5736</ele>
        <time>2012-04-15T10:30:48Z</time>
      </trkpt>
      <trkpt lat="59.8884998" lon="17.6583867">
        <ele>26.5736</ele>
        <time>2012-04-15T10:30:57Z</time>
      </trkpt>
      <trkpt lat="59.8881134" lon="17.6594348">
        <ele>26.0929</ele>
        <time>2012-04-15T10:31:08Z</time>
      </trkpt>
      <trkpt lat="59.887786" lon="17.6603195">
        <ele>25.6123</ele>
        <time>2012-04-15T10:31:17Z</time>
      </trkpt>
      <trkpt lat="59.8875581" lon="17.6607466">
        <ele>26.0929</ele>
        <time>2012-04-15T10:31:22Z</time>
      </trkpt>
      <trkpt lat="59.8873997" lon="17.6609126">
        <ele>26.5736</ele>
        <time>2012-04-15T10:31:25Z</time>
      </trkpt>
      <trkpt lat="59.8871675" lon="17.6608932">
        <ele>26.5736</ele>
        <time>2012-04-15T10:31:29Z</time>
      </trkpt>
      <trkpt lat="59.8869953" lon="17.6608991">
        <ele>26.5736</ele>
        <time>2012-04-15T10:31:32Z</time>
      </trkpt>
      <trkpt lat="59.8869411" lon="17.661109">
        <ele>26.5736</ele>
        <time>2012-04-15T10:31:34Z</time>
      </trkpt>
      <trkpt lat="59.8869989" lon="17.6614765">
        <ele>26.5736</ele>
        <time>2012-04-15T10:31:37Z</time>
      </trkpt>
      <trkpt lat="59.8870106" lon="17.661981">
        <ele>27.0543</ele>
        <time>2012-04-15T10:31:41Z</time>
      </trkpt>
      <trkpt lat="59.8869731" lon="17.6622155">
        <ele>27.0543</ele>
        <time>2012-04-15T10:31:43Z</time>
      </trkpt>
      <trkpt lat="59.8867541" lon="17.6629767">
        <ele>26.5736</ele>
        <time>2012-04-15T10:31:50Z</time>
      </trkpt>
      <trkpt lat="59.8865095" lon="17.6634131">
        <ele>26.5736</ele>
        <time>2012-04-15T10:31:55Z</time>
      </trkpt>
      <trkpt lat="59.8864032" lon="17.6635487">
        <ele>26.5736</ele>
        <time>2012-04-15T10:31:57Z</time>
      </trkpt>
      <trkpt lat="59.886176" lon="17.6636578">
        <ele>26.5736</ele>
        <time>2012-04-15T10:32:02Z</time>
      </trkpt>
      <trkpt lat="59.8860698" lon="17.6636089">
        <ele>27.0543</ele>
        <time>2012-04-15T10:32:04Z</time>
      </trkpt>
      <trkpt lat="59.8859594" lon="17.6635429">
        <ele>27.0543</ele>
        <time>2012-04-15T10:32:06Z</time>
      </trkpt>
      <trkpt lat="59.8857239" lon="17.6635955">
        <ele>27.0543</ele>
        <time>2012-04-15T10:32:10Z</time>
      </trkpt>
      <trkpt lat="59.885558" lon="17.6639144">
        <ele>27.5349</ele>
        <time>2012-04-15T10:32:14Z</time>
      </trkpt>
      <trkpt lat="59.8855048" lon="17.6641192">
        <ele>27.5349</ele>
        <time>2012-04-15T10:32:16Z</time>
      </trkpt>
      <trkpt lat="59.8852926" lon="17.6649701">
        <ele>27.5349</ele>
        <time>2012-04-15T10:32:24Z</time>
      </trkpt>
      <trkpt lat="59.8851405" lon="17.6656519">
        <ele>28.0155</ele>
        <time>2012-04-15T10:32:31Z</time>
      </trkpt>
      <trkpt lat="59.8850328" lon="17.6666901">
        <ele>28.4962</ele>
        <time>2012-04-15T10:32:41Z</time>
      </trkpt>
      <trkpt lat="59.8850209" lon="17.6667942">
        <ele>28.4962</ele>
        <time>2012-04-15T10:32:42Z</time>
      </trkpt>
      <trkpt lat="59.8849145" lon="17.6671572">
        <ele>28.4962</ele>
        <time>2012-04-15T10:32:46Z</time>
      </trkpt>
      <trkpt lat="59.8847822" lon="17.6676001">
        <ele>28.4962</ele>
        <time>2012-04-15T10:32:51Z</time>
      </trkpt>
      <trkpt lat="59.8848021" lon="17.6680254">
        <ele>28.9769</ele>
        <time>2012-04-15T10:32:55Z</time>
      </trkpt>
      <trkpt lat="59.8847299" lon="17.6684386">
        <ele>28.9769</ele>
        <time>2012-04-15T10:32:59Z</time>
      </trkpt>
      <trkpt lat="59.8844105" lon="17.6693836">
        <ele>29.4575</ele>
        <time>2012-04-15T10:33:09Z</time>
      </trkpt>
      <trkpt lat="59.8840562" lon="17.6701579">
        <ele>28.9769</ele>
        <time>2012-04-15T10:33:18Z</time>
      </trkpt>
      <trkpt lat="59.8838443" lon="17.6703171">
        <ele>29.4575</ele>
        <time>2012-04-15T10:33:22Z</time>
      </trkpt>
      <trkpt lat="59.8836507" lon="17.6705304">
        <ele>29.4575</ele>
        <time>2012-04-15T10:33:26Z</time>
      </trkpt>
      <trkpt lat="59.8835643" lon="17.6709459">
        <ele>29.4575</ele>
        <time>2012-04-15T10:33:30Z</time>
      </trkpt>
      <trkpt lat="59.8834886" lon="17.6711113">
        <ele>29.4575</ele>
        <time>2012-04-15T10:33:32Z</time>
      </trkpt>
      <trkpt lat="59.8829766" lon="17.6717929">
        <ele>28.9769</ele>
        <time>2012-04-15T10:33:43Z</time>
      </trkpt>
      <trkpt lat="59.882499" lon="17.6721985">
        <ele>28.4962</ele>
        <time>2012-04-15T10:33:52Z</time>
      </trkpt>
      <trkpt lat="59.8818618" lon="17.6727227">
        <ele>28.0155</ele>
        <time>2012-04-15T10:34:04Z</time>
      </trkpt>
      <trkpt lat="59.8814387" lon="17.6730801">
        <ele>28.4962</ele>
        <time>2012-04-15T10:34:12Z</time>
      </trkpt>
      <trkpt lat="59.8808041" lon="17.6736319">
        <ele>28.4962</ele>
        <time>2012-04-15T10:34:24Z</time>
      </trkpt>
      <trkpt lat="59.8802339" lon="17.6741767">
        <ele>28.4962</ele>
        <time>2012-04-15T10:34:35Z</time>
      </trkpt>
      <trkpt lat="59.8796477" lon="17.6747573">
        <ele>28.9769</ele>
        <time>2012-04-15T10:34:47Z</time>
      </trkpt>
      <trkpt lat="59.8792927" lon="17.6750817">
        <ele>28.9769</ele>
        <time>2012-04-15T10:34:54Z</time>
      </trkpt>
      <trkpt lat="59.8790771" lon="17.6750958">
        <ele>28.9769</ele>
        <time>2012-04-15T10:34:58Z</time>
      </trkpt>
      <trkpt lat="59.8789498" lon="17.6748595">
        <ele>28.9769</ele>
        <time>2012-04-15T10:35:01Z</time>
      </trkpt>
      <trkpt lat="59.8788135" lon="17.6746564">
        <ele>29.4575</ele>
        <time>2012-04-15T10:35:04Z</time>
      </trkpt>
      <trkpt lat="59.8786847" lon="17.6746539">
        <ele>29.9381</ele>
        <time>2012-04-15T10:35:06Z</time>
      </trkpt>
      <trkpt lat="59.8786196" lon="17.6746796">
        <ele>29.9381</ele>
        <time>2012-04-15T10:35:07Z</time>
      </trkpt>
      <trkpt lat="59.8785007" lon="17.6747568">
        <ele>29.9381</ele>
        <time>2012-04-15T10:35:09Z</time>
      </trkpt>
      <trkpt lat="59.8782949" lon="17.6749402">
        <ele>29.4575</ele>
        <time>2012-04-15T10:35:13Z</time>
      </trkpt>
      <trkpt lat="59.8781946" lon="17.6749974">
        <ele>29.4575</ele>
        <time>2012-04-15T10:35:15Z</time>
      </trkpt>
      <trkpt lat="59.8779696" lon="17.6752077">
        <ele>29.4575</ele>
        <time>2012-04-15T10:35:20Z</time>
      </trkpt>
      <trkpt lat="59.8777502" lon="17.6754064">
        <ele>28.9769</ele>
        <time>2012-04-15T10:35:25Z</time>
      </trkpt>
      <trkpt lat="59.8777599" lon="17.6757301">
        <ele>28.0155</ele>
        <time>2012-04-15T10:35:28Z</time>
      </trkpt>
      <trkpt lat="59.8777775" lon="17.6758445">
        <ele>28.0155</ele>
        <time>2012-04-15T10:35:29Z</time>
      </trkpt>
      <trkpt lat="59.8778868" lon="17.6764855">
        <ele>27.0543</ele>
        <time>2012-04-15T10:35:34Z</time>
      </trkpt>
      <trkpt lat="59.8780737" lon="17.677119">
        <ele>26.5736</ele>
        <time>2012-04-15T10:35:39Z</time>
      </trkpt>
      <trkpt lat="59.8782104" lon="17.6773614">
        <ele>28.4962</ele>
        <time>2012-04-15T10:35:42Z</time>
      </trkpt>
      <trkpt lat="59.8781981" lon="17.6776349">
        <ele>29.4575</ele>
        <time>2012-04-15T10:35:45Z</time>
      </trkpt>
      <trkpt lat="59.8781863" lon="17.6780266">
        <ele>30.4188</ele>
        <time>2012-04-15T10:35:50Z</time>
      </trkpt>
      <trkpt lat="59.8781815" lon="17.6782457">
        <ele>30.4188</ele>
        <time>2012-04-15T10:35:53Z</time>
      </trkpt>
      <trkpt lat="59.8781541" lon="17.6783115">
        <ele>30.4188</ele>
        <time>2012-04-15T10:35:54Z</time>
      </trkpt>
      <trkpt lat="59.8779387" lon="17.6787595">
        <ele>30.4188</ele>
        <time>2012-04-15T10:36:01Z</time>
      </trkpt>
      <trkpt lat="59.8776491" lon="17.6791624">
        <ele>29.9381</ele>
        <time>2012-04-15T10:36:08Z</time>
      </trkpt>
      <trkpt lat="59.8776095" lon="17.679223">
        <ele>29.9381</ele>
        <time>2012-04-15T10:36:09Z</time>
      </trkpt>
      <trkpt lat="59.8774491" lon="17.67955">
        <ele>29.9381</ele>
        <time>2012-04-15T10:36:14Z</time>
      </trkpt>
      <trkpt lat="59.8774268" lon="17.6798584">
        <ele>30.8995</ele>
        <time>2012-04-15T10:36:18Z</time>
      </trkpt>
      <trkpt lat="59.8774588" lon="17.6803603">
        <ele>31.8607</ele>
        <time>2012-04-15T10:36:24Z</time>
      </trkpt>
      <trkpt lat="59.877487" lon="17.6804384">
        <ele>31.8607</ele>
        <time>2012-04-15T10:36:25Z</time>
      </trkpt>
      <trkpt lat="59.8778732" lon="17.6812798">
        <ele>33.7834</ele>
        <time>2012-04-15T10:36:37Z</time>
      </trkpt>
      <trkpt lat="59.8780724" lon="17.6817516">
        <ele>34.2642</ele>
        <time>2012-04-15T10:36:44Z</time>
      </trkpt>
      <trkpt lat="59.8782949" lon="17.6823048">
        <ele>36.6675</ele>
        <time>2012-04-15T10:36:52Z</time>
      </trkpt>
      <trkpt lat="59.8785577" lon="17.6828501">
        <ele>37.6287</ele>
        <time>2012-04-15T10:37:00Z</time>
      </trkpt>
      <trkpt lat="59.8789093" lon="17.6833704">
        <ele>37.6287</ele>
        <time>2012-04-15T10:37:08Z</time>
      </trkpt>
      <trkpt lat="59.8792647" lon="17.6838146">
        <ele>36.1868</ele>
        <time>2012-04-15T10:37:15Z</time>
      </trkpt>
      <trkpt lat="59.879659" lon="17.6842993">
        <ele>34.2642</ele>
        <time>2012-04-15T10:37:22Z</time>
      </trkpt>
      <trkpt lat="59.8801527" lon="17.6849673">
        <ele>32.8223</ele>
        <time>2012-04-15T10:37:30Z</time>
      </trkpt>
      <trkpt lat="59.8806977" lon="17.6856919">
        <ele>32.8223</ele>
        <time>2012-04-15T10:37:39Z</time>
      </trkpt>
      <trkpt lat="59.8812254" lon="17.6863919">
        <ele>33.3029</ele>
        <time>2012-04-15T10:37:49Z</time>
      </trkpt>
      <trkpt lat="59.8816831" lon="17.6870042">
        <ele>33.3029</ele>
        <time>2012-04-15T10:37:58Z</time>
      </trkpt>
      <trkpt lat="59.8821828" lon="17.6876875">
        <ele>31.8607</ele>
        <time>2012-04-15T10:38:07Z</time>
      </trkpt>
      <trkpt lat="59.8826274" lon="17.6882754">
        <ele>30.4188</ele>
        <time>2012-04-15T10:38:15Z</time>
      </trkpt>
      <trkpt lat="59.8832511" lon="17.6891353">
        <ele>28.9769</ele>
        <time>2012-04-15T10:38:26Z</time>
      </trkpt>
      <trkpt lat="59.8837676" lon="17.6897984">
        <ele>28.4962</ele>
        <time>2012-04-15T10:38:35Z</time>
      </trkpt>
      <trkpt lat="59.8843449" lon="17.6905726">
        <ele>28.4962</ele>
        <time>2012-04-15T10:38:46Z</time>
      </trkpt>
      <trkpt lat="59.8848979" lon="17.6913133">
        <ele>28.4962</ele>
        <time>2012-04-15T10:38:57Z</time>
      </trkpt>
      <trkpt lat="59.8854284" lon="17.6920207">
        <ele>28.0155</ele>
        <time>2012-04-15T10:39:07Z</time>
      </trkpt>
      <trkpt lat="59.8859648" lon="17.6927412">
        <ele>28.0155</ele>
        <time>2012-04-15T10:39:17Z</time>
      </trkpt>
      <trkpt lat="59.8866008" lon="17.6935825">
        <ele>28.4962</ele>
        <time>2012-04-15T10:39:29Z</time>
      </trkpt>
      <trkpt lat="59.886751" lon="17.6937641">
        <ele>28.4962</ele>
        <time>2012-04-15T10:39:32Z</time>
      </trkpt>
      <trkpt lat="59.8868629" lon="17.694122">
        <ele>28.9769</ele>
        <time>2012-04-15T10:39:36Z</time>
      </trkpt>
      <trkpt lat="59.886968" lon="17.6947013">
        <ele>28.9769</ele>
        <time>2012-04-15T10:39:42Z</time>
      </trkpt>
      <trkpt lat="59.8871628" lon="17.6948679">
        <ele>28.9769</ele>
        <time>2012-04-15T10:39:46Z</time>
      </trkpt>
      <trkpt lat="59.8876188" lon="17.6951379">
        <ele>28.4962</ele>
        <time>2012-04-15T10:39:54Z</time>
      </trkpt>
      <trkpt lat="59.8880181" lon="17.6956398">
        <ele>28.9769</ele>
        <time>2012-04-15T10:40:02Z</time>
      </trkpt>
      <trkpt lat="59.8884548" lon="17.6962168">
        <ele>29.4575</ele>
        <time>2012-04-15T10:40:11Z</time>
      </trkpt>
      <trkpt lat="59.8890235" lon="17.6969812">
        <ele>30.4188</ele>
        <time>2012-04-15T10:40:23Z</time>
      </trkpt>
      <trkpt lat="59.8895141" lon="17.6976308">
        <ele>31.3801</ele>
        <time>2012-04-15T10:40:34Z</time>
      </trkpt>
      <trkpt lat="59.8899894" lon="17.6982658">
        <ele>31.8607</ele>
        <time>2012-04-15T10:40:45Z</time>
      </trkpt>
      <trkpt lat="59.8904592" lon="17.6988977">
        <ele>31.8607</ele>
        <time>2012-04-15T10:40:56Z</time>
      </trkpt>
      <trkpt lat="59.8907009" lon="17.6993122">
        <ele>32.3416</ele>
        <time>2012-04-15T10:41:02Z</time>
      </trkpt>
      <trkpt lat="59.8909744" lon="17.6996086">
        <ele>32.3416</ele>
        <time>2012-04-15T10:41:08Z</time>
      </trkpt>
      <trkpt lat="59.8910684" lon="17.6997074">
        <ele>32.3416</ele>
        <time>2012-04-15T10:41:10Z</time>
      </trkpt>
      <trkpt lat="59.8915083" lon="17.7002963">
        <ele>32.8223</ele>
        <time>2012-04-15T10:41:20Z</time>
      </trkpt>
      <trkpt lat="59.8919643" lon="17.7009055">
        <ele>32.8223</ele>
        <time>2012-04-15T10:41:30Z</time>
      </trkpt>
      <trkpt lat="59.8924595" lon="17.7015696">
        <ele>33.7834</ele>
        <time>2012-04-15T10:41:41Z</time>
      </trkpt>
      <trkpt lat="59.89272" lon="17.7019784">
        <ele>33.7834</ele>
        <time>2012-04-15T10:41:47Z</time>
      </trkpt>
      <trkpt lat="59.89282" lon="17.7020745">
        <ele>33.7834</ele>
        <time>2012-04-15T10:41:49Z</time>
      </trkpt>
      <trkpt lat="59.8932489" lon="17.7026207">
        <ele>34.2642</ele>
        <time>2012-04-15T10:41:58Z</time>
      </trkpt>
      <trkpt lat="59.893712" lon="17.7032184">
        <ele>33.7834</ele>
        <time>2012-04-15T10:42:07Z</time>
      </trkpt>
      <trkpt lat="59.8941336" lon="17.7037867">
        <ele>33.7834</ele>
        <time>2012-04-15T10:42:15Z</time>
      </trkpt>
      <trkpt lat="59.8945135" lon="17.7043115">
        <ele>33.3029</ele>
        <time>2012-04-15T10:42:22Z</time>
      </trkpt>
      <trkpt lat="59.894883" lon="17.7048315">
        <ele>32.8223</ele>
        <time>2012-04-15T10:42:29Z</time>
      </trkpt>
      <trkpt lat="59.8953078" lon="17.7054401">
        <ele>32.3416</ele>
        <time>2012-04-15T10:42:37Z</time>
      </trkpt>
      <trkpt lat="59.8955907" lon="17.705761">
        <ele>31.8607</ele>
        <time>2012-04-15T10:42:42Z</time>
      </trkpt>
      <trkpt lat="59.896057" lon="17.706384">
        <ele>32.3416</ele>
        <time>2012-04-15T10:42:51Z</time>
      </trkpt>
      <trkpt lat="59.8965658" lon="17.7070697">
        <ele>32.3416</ele>
        <time>2012-04-15T10:43:01Z</time>
      </trkpt>
      <trkpt lat="59.8971889" lon="17.7079071">
        <ele>32.3416</ele>
        <time>2012-04-15T10:43:13Z</time>
      </trkpt>
      <trkpt lat="59.8976002" lon="17.7085249">
        <ele>32.3416</ele>
        <time>2012-04-15T10:43:21Z</time>
      </trkpt>
      <trkpt lat="59.897823" lon="17.7087606">
        <ele>32.3416</ele>
        <time>2012-04-15T10:43:25Z</time>
      </trkpt>
      <trkpt lat="59.8984175" lon="17.7095507">
        <ele>32.3416</ele>
        <time>2012-04-15T10:43:37Z</time>
      </trkpt>
      <trkpt lat="59.8989678" lon="17.7102541">
        <ele>32.8223</ele>
        <time>2012-04-15T10:43:48Z</time>
      </trkpt>
      <trkpt lat="59.89947" lon="17.7108972">
        <ele>32.8223</ele>
        <time>2012-04-15T10:43:58Z</time>
      </trkpt>
      <trkpt lat="59.900225" lon="17.7117827">
        <ele>33.3029</ele>
        <time>2012-04-15T10:44:12Z</time>
      </trkpt>
      <trkpt lat="59.9007622" lon="17.7123813">
        <ele>33.3029</ele>
        <time>2012-04-15T10:44:22Z</time>
      </trkpt>
      <trkpt lat="59.9009765" lon="17.7126131">
        <ele>33.3029</ele>
        <time>2012-04-15T10:44:26Z</time>
      </trkpt>
      <trkpt lat="59.9010574" lon="17.7128571">
        <ele>33.3029</ele>
        <time>2012-04-15T10:44:29Z</time>
      </trkpt>
      <trkpt lat="59.9010044" lon="17.7130265">
        <ele>32.8223</ele>
        <time>2012-04-15T10:44:31Z</time>
      </trkpt>
      <trkpt lat="59.9007465" lon="17.7137149">
        <ele>30.8995</ele>
        <time>2012-04-15T10:44:39Z</time>
      </trkpt>
      <trkpt lat="59.9004223" lon="17.7147083">
        <ele>30.8995</ele>
        <time>2012-04-15T10:44:50Z</time>
      </trkpt>
      <trkpt lat="59.9002032" lon="17.715613">
        <ele>30.8995</ele>
        <time>2012-04-15T10:45:00Z</time>
      </trkpt>
      <trkpt lat="59.9001046" lon="17.7163327">
        <ele>30.4188</ele>
        <time>2012-04-15T10:45:07Z</time>
      </trkpt>
      <trkpt lat="59.9000472" lon="17.7173988">
        <ele>29.9381</ele>
        <time>2012-04-15T10:45:16Z</time>
      </trkpt>
      <trkpt lat="59.8999505" lon="17.718049">
        <ele>29.9381</ele>
        <time>2012-04-15T10:45:22Z</time>
      </trkpt>
      <trkpt lat="59.8997241" lon="17.718811">
        <ele>30.4188</ele>
        <time>2012-04-15T10:45:30Z</time>
      </trkpt>
      <trkpt lat="59.8995161" lon="17.7195768">
        <ele>30.4188</ele>
        <time>2012-04-15T10:45:38Z</time>
      </trkpt>
      <trkpt lat="59.899375" lon="17.7202974">
        <ele>30.4188</ele>
        <time>2012-04-15T10:45:45Z</time>
      </trkpt>
      <trkpt lat="59.8993616" lon="17.7203983">
        <ele>30.4188</ele>
        <time>2012-04-15T10:45:46Z</time>
      </trkpt>
      <trkpt lat="59.8993664" lon="17.7207038">
        <ele>30.4188</ele>
        <time>2012-04-15T10:45:50Z</time>
      </trkpt>
      <trkpt lat="59.899433" lon="17.7207235">
        <ele>30.4188</ele>
        <time>2012-04-15T10:45:52Z</time>
      </trkpt>
      <trkpt lat="59.8994309" lon="17.7206997">
        <ele>29.9381</ele>
        <time>2012-04-15T11:57:56Z</time>
      </trkpt>
      <trkpt lat="59.8994261" lon="17.7207033">
        <ele>30.4188</ele>
        <time>2012-04-15T11:57:57Z</time>
      </trkpt>
      <trkpt lat="59.8993832" lon="17.7206763">
        <ele>28.0155</ele>
        <time>2012-04-15T11:58:01Z</time>
      </trkpt>
      <trkpt lat="59.8992699" lon="17.720714">
        <ele>27.0543</ele>
        <time>2012-04-15T11:58:05Z</time>
      </trkpt>
      <trkpt lat="59.8992547" lon="17.7207935">
        <ele>27.0543</ele>
        <time>2012-04-15T11:58:06Z</time>
      </trkpt>
      <trkpt lat="59.8991382" lon="17.7215028">
        <ele>25.6123</ele>
        <time>2012-04-15T11:58:13Z</time>
      </trkpt>
      <trkpt lat="59.8989631" lon="17.7226797">
        <ele>25.1317</ele>
        <time>2012-04-15T11:58:23Z</time>
      </trkpt>
      <trkpt lat="59.8988263" lon="17.7235415">
        <ele>24.1703</ele>
        <time>2012-04-15T11:58:30Z</time>
      </trkpt>
      <trkpt lat="59.8986638" lon="17.724564">
        <ele>22.7283</ele>
        <time>2012-04-15T11:58:38Z</time>
      </trkpt>
      <trkpt lat="59.8985326" lon="17.7253457">
        <ele>22.2476</ele>
        <time>2012-04-15T11:58:45Z</time>
      </trkpt>
      <trkpt lat="59.8983285" lon="17.7263279">
        <ele>21.2864</ele>
        <time>2012-04-15T11:58:55Z</time>
      </trkpt>
      <trkpt lat="59.8980934" lon="17.7271565">
        <ele>21.767</ele>
        <time>2012-04-15T11:59:04Z</time>
      </trkpt>
      <trkpt lat="59.8978072" lon="17.7279378">
        <ele>22.2476</ele>
        <time>2012-04-15T11:59:13Z</time>
      </trkpt>
      <trkpt lat="59.8976416" lon="17.7286232">
        <ele>22.7283</ele>
        <time>2012-04-15T11:59:20Z</time>
      </trkpt>
      <trkpt lat="59.8974801" lon="17.7295184">
        <ele>23.6896</ele>
        <time>2012-04-15T11:59:29Z</time>
      </trkpt>
      <trkpt lat="59.8974386" lon="17.7299369">
        <ele>24.1703</ele>
        <time>2012-04-15T11:59:33Z</time>
      </trkpt>
      <trkpt lat="59.8974629" lon="17.7304632">
        <ele>25.6123</ele>
        <time>2012-04-15T11:59:39Z</time>
      </trkpt>
      <trkpt lat="59.8975349" lon="17.7310226">
        <ele>27.5349</ele>
        <time>2012-04-15T11:59:47Z</time>
      </trkpt>
      <trkpt lat="59.8975437" lon="17.7315553">
        <ele>28.0155</ele>
        <time>2012-04-15T11:59:54Z</time>
      </trkpt>
      <trkpt lat="59.8975229" lon="17.7322035">
        <ele>27.5349</ele>
        <time>2012-04-15T12:00:01Z</time>
      </trkpt>
      <trkpt lat="59.8974883" lon="17.7329693">
        <ele>27.0543</ele>
        <time>2012-04-15T12:00:09Z</time>
      </trkpt>
      <trkpt lat="59.8973996" lon="17.7338189">
        <ele>26.5736</ele>
        <time>2012-04-15T12:00:18Z</time>
      </trkpt>
      <trkpt lat="59.8972423" lon="17.7344793">
        <ele>25.6123</ele>
        <time>2012-04-15T12:00:25Z</time>
      </trkpt>
      <trkpt lat="59.8971638" lon="17.7351251">
        <ele>24.651</ele>
        <time>2012-04-15T12:00:31Z</time>
      </trkpt>
      <trkpt lat="59.8971517" lon="17.7359349">
        <ele>23.209</ele>
        <time>2012-04-15T12:00:38Z</time>
      </trkpt>
      <trkpt lat="59.8971159" lon="17.7363803">
        <ele>23.209</ele>
        <time>2012-04-15T12:00:42Z</time>
      </trkpt>
      <trkpt lat="59.8970804" lon="17.7365797">
        <ele>23.6896</ele>
        <time>2012-04-15T12:00:44Z</time>
      </trkpt>
      <trkpt lat="59.896873" lon="17.7372347">
        <ele>24.651</ele>
        <time>2012-04-15T12:00:52Z</time>
      </trkpt>
      <trkpt lat="59.8966838" lon="17.7377341">
        <ele>24.651</ele>
        <time>2012-04-15T12:00:59Z</time>
      </trkpt>
      <trkpt lat="59.8965443" lon="17.7383055">
        <ele>24.651</ele>
        <time>2012-04-15T12:01:05Z</time>
      </trkpt>
      <trkpt lat="59.8963723" lon="17.7387252">
        <ele>24.1703</ele>
        <time>2012-04-15T12:01:10Z</time>
      </trkpt>
      <trkpt lat="59.8962617" lon="17.7387999">
        <ele>23.6896</ele>
        <time>2012-04-15T12:01:12Z</time>
      </trkpt>
      <trkpt lat="59.8956349" lon="17.7389938">
        <ele>24.1703</ele>
        <time>2012-04-15T12:01:22Z</time>
      </trkpt>
      <trkpt lat="59.8950019" lon="17.7391633">
        <ele>25.6123</ele>
        <time>2012-04-15T12:01:33Z</time>
      </trkpt>
      <trkpt lat="59.8947636" lon="17.7392751">
        <ele>26.0929</ele>
        <time>2012-04-15T12:01:38Z</time>
      </trkpt>
      <trkpt lat="59.8946924" lon="17.7394834">
        <ele>26.5736</ele>
        <time>2012-04-15T12:01:42Z</time>
      </trkpt>
      <trkpt lat="59.8946873" lon="17.7397351">
        <ele>26.5736</ele>
        <time>2012-04-15T12:01:47Z</time>
      </trkpt>
      <trkpt lat="59.8946812" lon="17.739795">
        <ele>26.5736</ele>
        <time>2012-04-15T12:01:49Z</time>
      </trkpt>
      <trkpt lat="59.8946758" lon="17.739834">
        <ele>27.5349</ele>
        <time>2012-04-15T12:01:58Z</time>
      </trkpt>
      <trkpt lat="59.894675" lon="17.7398382">
        <ele>27.5349</ele>
        <time>2012-04-15T12:01:59Z</time>
      </trkpt>
      <trkpt lat="59.8945998" lon="17.7397159">
        <ele>25.6123</ele>
        <time>2012-04-15T12:27:30Z</time>
      </trkpt>
      <trkpt lat="59.8945999" lon="17.739718">
        <ele>25.1317</ele>
        <time>2012-04-15T12:27:31Z</time>
      </trkpt>
      <trkpt lat="59.8946" lon="17.7397199">
        <ele>23.6896</ele>
        <time>2012-04-15T12:27:32Z</time>
      </trkpt>
      <trkpt lat="59.8947158" lon="17.7393429">
        <ele>27.0543</ele>
        <time>2012-04-15T12:29:09Z</time>
      </trkpt>
      <trkpt lat="59.8948159" lon="17.7392914">
        <ele>25.6123</ele>
        <time>2012-04-15T12:29:14Z</time>
      </trkpt>
      <trkpt lat="59.894887" lon="17.7392745">
        <ele>25.1317</ele>
        <time>2012-04-15T12:29:18Z</time>
      </trkpt>
      <trkpt lat="59.8948191" lon="17.7393316">
        <ele>36.6675</ele>
        <time>2012-04-15T12:30:05Z</time>
      </trkpt>
      <trkpt lat="59.8948259" lon="17.739335">
        <ele>36.1868</ele>
        <time>2012-04-15T12:30:06Z</time>
      </trkpt>
      <trkpt lat="59.8948578" lon="17.739316">
        <ele>34.7449</ele>
        <time>2012-04-15T12:30:07Z</time>
      </trkpt>
      <trkpt lat="59.8949117" lon="17.7392901">
        <ele>34.2642</ele>
        <time>2012-04-15T12:30:09Z</time>
      </trkpt>
      <trkpt lat="59.8951387" lon="17.7392078">
        <ele>31.8607</ele>
        <time>2012-04-15T12:30:15Z</time>
      </trkpt>
      <trkpt lat="59.8955159" lon="17.7391036">
        <ele>30.4188</ele>
        <time>2012-04-15T12:30:23Z</time>
      </trkpt>
      <trkpt lat="59.8958499" lon="17.7389974">
        <ele>28.9769</ele>
        <time>2012-04-15T12:30:31Z</time>
      </trkpt>
      <trkpt lat="59.8961221" lon="17.7389034">
        <ele>28.0155</ele>
        <time>2012-04-15T12:30:37Z</time>
      </trkpt>
      <trkpt lat="59.8963026" lon="17.738834">
        <ele>28.4962</ele>
        <time>2012-04-15T12:30:41Z</time>
      </trkpt>
      <trkpt lat="59.8965112" lon="17.7385541">
        <ele>28.4962</ele>
        <time>2012-04-15T12:30:47Z</time>
      </trkpt>
      <trkpt lat="59.8965372" lon="17.7384659">
        <ele>28.4962</ele>
        <time>2012-04-15T12:30:48Z</time>
      </trkpt>
      <trkpt lat="59.896766" lon="17.7376505">
        <ele>28.4962</ele>
        <time>2012-04-15T12:30:57Z</time>
      </trkpt>
      <trkpt lat="59.8970055" lon="17.7369352">
        <ele>27.0543</ele>
        <time>2012-04-15T12:31:05Z</time>
      </trkpt>
      <trkpt lat="59.8970661" lon="17.7367297">
        <ele>26.5736</ele>
        <time>2012-04-15T12:31:07Z</time>
      </trkpt>
      <trkpt lat="59.8971714" lon="17.7360209">
        <ele>26.5736</ele>
        <time>2012-04-15T12:31:13Z</time>
      </trkpt>
      <trkpt lat="59.8971946" lon="17.7351149">
        <ele>28.0155</ele>
        <time>2012-04-15T12:31:21Z</time>
      </trkpt>
      <trkpt lat="59.8972904" lon="17.7344363">
        <ele>29.4575</ele>
        <time>2012-04-15T12:31:28Z</time>
      </trkpt>
      <trkpt lat="59.897436" lon="17.7337584">
        <ele>30.4188</ele>
        <time>2012-04-15T12:31:35Z</time>
      </trkpt>
      <trkpt lat="59.8975276" lon="17.7329075">
        <ele>29.9381</ele>
        <time>2012-04-15T12:31:43Z</time>
      </trkpt>
      <trkpt lat="59.8975765" lon="17.7318893">
        <ele>28.9769</ele>
        <time>2012-04-15T12:31:52Z</time>
      </trkpt>
      <trkpt lat="59.897583" lon="17.7312278">
        <ele>28.9769</ele>
        <time>2012-04-15T12:31:58Z</time>
      </trkpt>
      <trkpt lat="59.8975126" lon="17.7305312">
        <ele>27.5349</ele>
        <time>2012-04-15T12:32:04Z</time>
      </trkpt>
      <trkpt lat="59.8974838" lon="17.7302513">
        <ele>26.5736</ele>
        <time>2012-04-15T12:32:06Z</time>
      </trkpt>
      <trkpt lat="59.8975244" lon="17.7294385">
        <ele>24.651</ele>
        <time>2012-04-15T12:32:11Z</time>
      </trkpt>
      <trkpt lat="59.8977244" lon="17.7284075">
        <ele>24.1703</ele>
        <time>2012-04-15T12:32:18Z</time>
      </trkpt>
      <trkpt lat="59.8978191" lon="17.728014">
        <ele>24.1703</ele>
        <time>2012-04-15T12:32:21Z</time>
      </trkpt>
      <trkpt lat="59.8981786" lon="17.727004">
        <ele>23.6896</ele>
        <time>2012-04-15T12:32:30Z</time>
      </trkpt>
      <trkpt lat="59.8984364" lon="17.7260524">
        <ele>23.6896</ele>
        <time>2012-04-15T12:32:38Z</time>
      </trkpt>
      <trkpt lat="59.8985948" lon="17.7252157">
        <ele>24.651</ele>
        <time>2012-04-15T12:32:45Z</time>
      </trkpt>
      <trkpt lat="59.8987637" lon="17.7241749">
        <ele>25.6123</ele>
        <time>2012-04-15T12:32:54Z</time>
      </trkpt>
      <trkpt lat="59.8989035" lon="17.7232994">
        <ele>26.5736</ele>
        <time>2012-04-15T12:33:02Z</time>
      </trkpt>
      <trkpt lat="59.8990936" lon="17.7220537">
        <ele>27.5349</ele>
        <time>2012-04-15T12:33:13Z</time>
      </trkpt>
      <trkpt lat="59.899247" lon="17.7210706">
        <ele>28.0155</ele>
        <time>2012-04-15T12:33:21Z</time>
      </trkpt>
      <trkpt lat="59.8994863" lon="17.7198083">
        <ele>28.4962</ele>
        <time>2012-04-15T12:33:31Z</time>
      </trkpt>
      <trkpt lat="59.8996812" lon="17.7190204">
        <ele>28.4962</ele>
        <time>2012-04-15T12:33:38Z</time>
      </trkpt>
      <trkpt lat="59.8999422" lon="17.7181734">
        <ele>28.9769</ele>
        <time>2012-04-15T12:33:45Z</time>
      </trkpt>
      <trkpt lat="59.9000685" lon="17.7174749">
        <ele>28.4962</ele>
        <time>2012-04-15T12:33:50Z</time>
      </trkpt>
      <trkpt lat="59.9001232" lon="17.7165925">
        <ele>28.0155</ele>
        <time>2012-04-15T12:33:56Z</time>
      </trkpt>
      <trkpt lat="59.9002207" lon="17.715679">
        <ele>28.9769</ele>
        <time>2012-04-15T12:34:03Z</time>
      </trkpt>
      <trkpt lat="59.9004214" lon="17.7147819">
        <ele>28.9769</ele>
        <time>2012-04-15T12:34:10Z</time>
      </trkpt>
      <trkpt lat="59.9007047" lon="17.7138417">
        <ele>28.9769</ele>
        <time>2012-04-15T12:34:17Z</time>
      </trkpt>
      <trkpt lat="59.9009309" lon="17.7130977">
        <ele>29.4575</ele>
        <time>2012-04-15T12:34:23Z</time>
      </trkpt>
      <trkpt lat="59.9010223" lon="17.7128006">
        <ele>29.4575</ele>
        <time>2012-04-15T12:34:26Z</time>
      </trkpt>
      <trkpt lat="59.9009995" lon="17.7124918">
        <ele>29.9381</ele>
        <time>2012-04-15T12:34:30Z</time>
      </trkpt>
      <trkpt lat="59.900955" lon="17.7124419">
        <ele>29.9381</ele>
        <time>2012-04-15T12:34:31Z</time>
      </trkpt>
      <trkpt lat="59.9005192" lon="17.7119858">
        <ele>29.4575</ele>
        <time>2012-04-15T12:34:39Z</time>
      </trkpt>
      <trkpt lat="59.9000847" lon="17.7115127">
        <ele>29.4575</ele>
        <time>2012-04-15T12:34:47Z</time>
      </trkpt>
      <trkpt lat="59.8995889" lon="17.7109442">
        <ele>29.4575</ele>
        <time>2012-04-15T12:34:56Z</time>
      </trkpt>
      <trkpt lat="59.8991528" lon="17.7104136">
        <ele>29.4575</ele>
        <time>2012-04-15T12:35:04Z</time>
      </trkpt>
      <trkpt lat="59.8987114" lon="17.7098458">
        <ele>29.4575</ele>
        <time>2012-04-15T12:35:12Z</time>
      </trkpt>
      <trkpt lat="59.898331" lon="17.7093531">
        <ele>29.4575</ele>
        <time>2012-04-15T12:35:19Z</time>
      </trkpt>
      <trkpt lat="59.8977753" lon="17.7086212">
        <ele>29.4575</ele>
        <time>2012-04-15T12:35:29Z</time>
      </trkpt>
      <trkpt lat="59.8976593" lon="17.7085001">
        <ele>29.4575</ele>
        <time>2012-04-15T12:35:31Z</time>
      </trkpt>
      <trkpt lat="59.897338" lon="17.7080347">
        <ele>29.4575</ele>
        <time>2012-04-15T12:35:37Z</time>
      </trkpt>
      <trkpt lat="59.8969608" lon="17.7075198">
        <ele>29.9381</ele>
        <time>2012-04-15T12:35:44Z</time>
      </trkpt>
      <trkpt lat="59.8964737" lon="17.7068648">
        <ele>29.9381</ele>
        <time>2012-04-15T12:35:53Z</time>
      </trkpt>
      <trkpt lat="59.8959696" lon="17.7062036">
        <ele>29.4575</ele>
        <time>2012-04-15T12:36:02Z</time>
      </trkpt>
      <trkpt lat="59.8955958" lon="17.7056853">
        <ele>29.4575</ele>
        <time>2012-04-15T12:36:09Z</time>
      </trkpt>
      <trkpt lat="59.8952731" lon="17.7052936">
        <ele>28.9769</ele>
        <time>2012-04-15T12:36:14Z</time>
      </trkpt>
      <trkpt lat="59.8949418" lon="17.7048301">
        <ele>29.4575</ele>
        <time>2012-04-15T12:36:19Z</time>
      </trkpt>
      <trkpt lat="59.8944966" lon="17.7042056">
        <ele>29.9381</ele>
        <time>2012-04-15T12:36:26Z</time>
      </trkpt>
      <trkpt lat="59.8939373" lon="17.7034308">
        <ele>30.4188</ele>
        <time>2012-04-15T12:36:35Z</time>
      </trkpt>
      <trkpt lat="59.8933312" lon="17.7026378">
        <ele>30.8995</ele>
        <time>2012-04-15T12:36:45Z</time>
      </trkpt>
      <trkpt lat="59.8928567" lon="17.7020261">
        <ele>30.8995</ele>
        <time>2012-04-15T12:36:54Z</time>
      </trkpt>
      <trkpt lat="59.8926963" lon="17.7018798">
        <ele>30.8995</ele>
        <time>2012-04-15T12:36:57Z</time>
      </trkpt>
      <trkpt lat="59.8924318" lon="17.7014733">
        <ele>30.4188</ele>
        <time>2012-04-15T12:37:03Z</time>
      </trkpt>
      <trkpt lat="59.8923326" lon="17.7013278">
        <ele>30.4188</ele>
        <time>2012-04-15T12:37:07Z</time>
      </trkpt>
      <trkpt lat="59.8923619" lon="17.701263">
        <ele>29.9381</ele>
        <time>2012-04-15T12:37:11Z</time>
      </trkpt>
      <trkpt lat="59.8923712" lon="17.701249">
        <ele>29.4575</ele>
        <time>2012-04-15T12:37:12Z</time>
      </trkpt>
      <trkpt lat="59.8924283" lon="17.7009657">
        <ele>28.9769</ele>
        <time>2012-04-15T12:37:18Z</time>
      </trkpt>
      <trkpt lat="59.892477" lon="17.7009084">
        <ele>28.0155</ele>
        <time>2012-04-15T12:37:21Z</time>
      </trkpt>
      <trkpt lat="59.8924911" lon="17.7008843">
        <ele>28.0155</ele>
        <time>2012-04-15T12:37:22Z</time>
      </trkpt>
      <trkpt lat="59.8926162" lon="17.7005766">
        <ele>28.0155</ele>
        <time>2012-04-15T12:37:27Z</time>
      </trkpt>
      <trkpt lat="59.8928744" lon="17.6999815">
        <ele>28.9769</ele>
        <time>2012-04-15T12:37:34Z</time>
      </trkpt>
      <trkpt lat="59.8931545" lon="17.6993159">
        <ele>29.4575</ele>
        <time>2012-04-15T12:37:41Z</time>
      </trkpt>
      <trkpt lat="59.8932395" lon="17.6988507">
        <ele>29.9381</ele>
        <time>2012-04-15T12:37:45Z</time>
      </trkpt>
      <trkpt lat="59.8933536" lon="17.6985527">
        <ele>30.4188</ele>
        <time>2012-04-15T12:37:48Z</time>
      </trkpt>
      <trkpt lat="59.8935406" lon="17.6981729">
        <ele>30.4188</ele>
        <time>2012-04-15T12:37:52Z</time>
      </trkpt>
      <trkpt lat="59.8937172" lon="17.697416">
        <ele>30.8995</ele>
        <time>2012-04-15T12:37:58Z</time>
      </trkpt>
      <trkpt lat="59.8937866" lon="17.6964289">
        <ele>32.3416</ele>
        <time>2012-04-15T12:38:05Z</time>
      </trkpt>
      <trkpt lat="59.8938002" lon="17.6954026">
        <ele>30.4188</ele>
        <time>2012-04-15T12:38:12Z</time>
      </trkpt>
      <trkpt lat="59.8938331" lon="17.6940932">
        <ele>29.9381</ele>
        <time>2012-04-15T12:38:21Z</time>
      </trkpt>
      <trkpt lat="59.8938617" lon="17.6931643">
        <ele>30.8995</ele>
        <time>2012-04-15T12:38:28Z</time>
      </trkpt>
      <trkpt lat="59.8938841" lon="17.6920174">
        <ele>31.3801</ele>
        <time>2012-04-15T12:38:37Z</time>
      </trkpt>
      <trkpt lat="59.8939239" lon="17.6910711">
        <ele>31.3801</ele>
        <time>2012-04-15T12:38:45Z</time>
      </trkpt>
      <trkpt lat="59.8940486" lon="17.6902046">
        <ele>30.4188</ele>
        <time>2012-04-15T12:38:53Z</time>
      </trkpt>
      <trkpt lat="59.8941471" lon="17.689433">
        <ele>30.8995</ele>
        <time>2012-04-15T12:39:00Z</time>
      </trkpt>
      <trkpt lat="59.8942925" lon="17.688383">
        <ele>30.4188</ele>
        <time>2012-04-15T12:39:08Z</time>
      </trkpt>
      <trkpt lat="59.8945792" lon="17.6871349">
        <ele>30.4188</ele>
        <time>2012-04-15T12:39:17Z</time>
      </trkpt>
      <trkpt lat="59.8947246" lon="17.6861344">
        <ele>30.4188</ele>
        <time>2012-04-15T12:39:24Z</time>
      </trkpt>
      <trkpt lat="59.8947872" lon="17.6853233">
        <ele>30.4188</ele>
        <time>2012-04-15T12:39:30Z</time>
      </trkpt>
      <trkpt lat="59.8948573" lon="17.6844508">
        <ele>29.9381</ele>
        <time>2012-04-15T12:39:36Z</time>
      </trkpt>
      <trkpt lat="59.8949022" lon="17.6840448">
        <ele>29.9381</ele>
        <time>2012-04-15T12:39:39Z</time>
      </trkpt>
      <trkpt lat="59.8949958" lon="17.6836247">
        <ele>29.4575</ele>
        <time>2012-04-15T12:39:42Z</time>
      </trkpt>
      <trkpt lat="59.895223" lon="17.6832629">
        <ele>28.0155</ele>
        <time>2012-04-15T12:39:46Z</time>
      </trkpt>
      <trkpt lat="59.8955842" lon="17.6828169">
        <ele>29.9381</ele>
        <time>2012-04-15T12:39:52Z</time>
      </trkpt>
      <trkpt lat="59.8959339" lon="17.6825772">
        <ele>31.8607</ele>
        <time>2012-04-15T12:39:58Z</time>
      </trkpt>
      <trkpt lat="59.8962359" lon="17.6822765">
        <ele>30.4188</ele>
        <time>2012-04-15T12:40:03Z</time>
      </trkpt>
      <trkpt lat="59.8966599" lon="17.6817536">
        <ele>30.4188</ele>
        <time>2012-04-15T12:40:09Z</time>
      </trkpt>
      <trkpt lat="59.8970226" lon="17.6811051">
        <ele>30.4188</ele>
        <time>2012-04-15T12:40:15Z</time>
      </trkpt>
      <trkpt lat="59.8973499" lon="17.680292">
        <ele>31.3801</ele>
        <time>2012-04-15T12:40:22Z</time>
      </trkpt>
      <trkpt lat="59.8978011" lon="17.6790985">
        <ele>32.3416</ele>
        <time>2012-04-15T12:40:32Z</time>
      </trkpt>
      <trkpt lat="59.8981089" lon="17.678196">
        <ele>32.3416</ele>
        <time>2012-04-15T12:40:39Z</time>
      </trkpt>
      <trkpt lat="59.8982839" lon="17.6773946">
        <ele>31.8607</ele>
        <time>2012-04-15T12:40:45Z</time>
      </trkpt>
      <trkpt lat="59.8983718" lon="17.6766392">
        <ele>32.3416</ele>
        <time>2012-04-15T12:40:51Z</time>
      </trkpt>
      <trkpt lat="59.8984336" lon="17.6756892">
        <ele>33.7834</ele>
        <time>2012-04-15T12:40:59Z</time>
      </trkpt>
      <trkpt lat="59.8984607" lon="17.6753547">
        <ele>34.7449</ele>
        <time>2012-04-15T12:41:02Z</time>
      </trkpt>
      <trkpt lat="59.898606" lon="17.6748563">
        <ele>35.2255</ele>
        <time>2012-04-15T12:41:07Z</time>
      </trkpt>
      <trkpt lat="59.8986966" lon="17.674716">
        <ele>35.7061</ele>
        <time>2012-04-15T12:41:09Z</time>
      </trkpt>
      <trkpt lat="59.8989434" lon="17.6744119">
        <ele>37.1481</ele>
        <time>2012-04-15T12:41:14Z</time>
      </trkpt>
      <trkpt lat="59.8991226" lon="17.673897">
        <ele>36.6675</ele>
        <time>2012-04-15T12:41:19Z</time>
      </trkpt>
      <trkpt lat="59.8991331" lon="17.6737665">
        <ele>36.6675</ele>
        <time>2012-04-15T12:41:20Z</time>
      </trkpt>
      <trkpt lat="59.8991743" lon="17.6730913">
        <ele>37.6287</ele>
        <time>2012-04-15T12:41:26Z</time>
      </trkpt>
      <trkpt lat="59.8991891" lon="17.6729786">
        <ele>37.1481</ele>
        <time>2012-04-15T12:41:27Z</time>
      </trkpt>
      <trkpt lat="59.8993391" lon="17.6721172">
        <ele>33.7834</ele>
        <time>2012-04-15T12:41:34Z</time>
      </trkpt>
      <trkpt lat="59.8993571" lon="17.6716732">
        <ele>32.3416</ele>
        <time>2012-04-15T12:41:37Z</time>
      </trkpt>
      <trkpt lat="59.8993387" lon="17.6708992">
        <ele>31.3801</ele>
        <time>2012-04-15T12:41:43Z</time>
      </trkpt>
      <trkpt lat="59.8994263" lon="17.670345">
        <ele>31.8607</ele>
        <time>2012-04-15T12:41:48Z</time>
      </trkpt>
      <trkpt lat="59.8995776" lon="17.6701886">
        <ele>32.3416</ele>
        <time>2012-04-15T12:41:51Z</time>
      </trkpt>
      <trkpt lat="59.9000971" lon="17.6699384">
        <ele>32.8223</ele>
        <time>2012-04-15T12:42:00Z</time>
      </trkpt>
      <trkpt lat="59.9005279" lon="17.6697952">
        <ele>33.3029</ele>
        <time>2012-04-15T12:42:06Z</time>
      </trkpt>
      <trkpt lat="59.9008198" lon="17.6697242">
        <ele>34.2642</ele>
        <time>2012-04-15T12:42:11Z</time>
      </trkpt>
      <trkpt lat="59.901138" lon="17.6696543">
        <ele>35.2255</ele>
        <time>2012-04-15T12:42:17Z</time>
      </trkpt>
      <trkpt lat="59.901497" lon="17.6696052">
        <ele>35.2255</ele>
        <time>2012-04-15T12:42:22Z</time>
      </trkpt>
      <trkpt lat="59.9016434" lon="17.6696354">
        <ele>36.1868</ele>
        <time>2012-04-15T12:42:24Z</time>
      </trkpt>
      <trkpt lat="59.9020095" lon="17.6698291">
        <ele>35.7061</ele>
        <time>2012-04-15T12:42:30Z</time>
      </trkpt>
      <trkpt lat="59.9022126" lon="17.6699994">
        <ele>34.7449</ele>
        <time>2012-04-15T12:42:35Z</time>
      </trkpt>
      <trkpt lat="59.9023949" lon="17.6700157">
        <ele>34.2642</ele>
        <time>2012-04-15T12:42:38Z</time>
      </trkpt>
      <trkpt lat="59.9027701" lon="17.6698545">
        <ele>35.2255</ele>
        <time>2012-04-15T12:42:44Z</time>
      </trkpt>
      <trkpt lat="59.9030138" lon="17.6698829">
        <ele>36.6675</ele>
        <time>2012-04-15T12:42:48Z</time>
      </trkpt>
      <trkpt lat="59.9031434" lon="17.6699542">
        <ele>36.6675</ele>
        <time>2012-04-15T12:42:50Z</time>
      </trkpt>
      <trkpt lat="59.9034014" lon="17.6698389">
        <ele>36.1868</ele>
        <time>2012-04-15T12:42:54Z</time>
      </trkpt>
      <trkpt lat="59.9035154" lon="17.6695207">
        <ele>36.1868</ele>
        <time>2012-04-15T12:42:57Z</time>
      </trkpt>
      <trkpt lat="59.9037602" lon="17.6687354">
        <ele>34.7449</ele>
        <time>2012-04-15T12:43:04Z</time>
      </trkpt>
      <trkpt lat="59.9040042" lon="17.6682321">
        <ele>34.2642</ele>
        <time>2012-04-15T12:43:10Z</time>
      </trkpt>
      <trkpt lat="59.9042565" lon="17.6679819">
        <ele>35.7061</ele>
        <time>2012-04-15T12:43:15Z</time>
      </trkpt>
      <trkpt lat="59.9046343" lon="17.6678853">
        <ele>35.2255</ele>
        <time>2012-04-15T12:43:21Z</time>
      </trkpt>
      <trkpt lat="59.9048423" lon="17.6678958">
        <ele>34.2642</ele>
        <time>2012-04-15T12:43:24Z</time>
      </trkpt>
      <trkpt lat="59.905447" lon="17.6682161">
        <ele>30.8995</ele>
        <time>2012-04-15T12:43:32Z</time>
      </trkpt>
      <trkpt lat="59.9059443" lon="17.6684499">
        <ele>31.8607</ele>
        <time>2012-04-15T12:43:39Z</time>
      </trkpt>
      <trkpt lat="59.9061903" lon="17.6685657">
        <ele>32.8223</ele>
        <time>2012-04-15T12:43:43Z</time>
      </trkpt>
      <trkpt lat="59.906425" lon="17.6686107">
        <ele>33.7834</ele>
        <time>2012-04-15T12:43:47Z</time>
      </trkpt>
      <trkpt lat="59.9068518" lon="17.6684983">
        <ele>34.2642</ele>
        <time>2012-04-15T12:43:54Z</time>
      </trkpt>
      <trkpt lat="59.9072077" lon="17.6683674">
        <ele>32.8223</ele>
        <time>2012-04-15T12:43:59Z</time>
      </trkpt>
      <trkpt lat="59.9074298" lon="17.6682888">
        <ele>32.8223</ele>
        <time>2012-04-15T12:44:02Z</time>
      </trkpt>
      <trkpt lat="59.9076661" lon="17.6679766">
        <ele>33.3029</ele>
        <time>2012-04-15T12:44:06Z</time>
      </trkpt>
      <trkpt lat="59.9077352" lon="17.6674435">
        <ele>33.3029</ele>
        <time>2012-04-15T12:44:10Z</time>
      </trkpt>
      <trkpt lat="59.9078205" lon="17.6661989">
        <ele>33.7834</ele>
        <time>2012-04-15T12:44:19Z</time>
      </trkpt>
      <trkpt lat="59.9079059" lon="17.665456">
        <ele>33.3029</ele>
        <time>2012-04-15T12:44:25Z</time>
      </trkpt>
      <trkpt lat="59.9079946" lon="17.6645656">
        <ele>32.8223</ele>
        <time>2012-04-15T12:44:32Z</time>
      </trkpt>
      <trkpt lat="59.9079683" lon="17.6638685">
        <ele>31.8607</ele>
        <time>2012-04-15T12:44:37Z</time>
      </trkpt>
      <trkpt lat="59.9078465" lon="17.6628121">
        <ele>31.3801</ele>
        <time>2012-04-15T12:44:45Z</time>
      </trkpt>
      <trkpt lat="59.9077211" lon="17.661741">
        <ele>31.8607</ele>
        <time>2012-04-15T12:44:53Z</time>
      </trkpt>
      <trkpt lat="59.9076449" lon="17.6609021">
        <ele>32.3416</ele>
        <time>2012-04-15T12:45:00Z</time>
      </trkpt>
      <trkpt lat="59.9075013" lon="17.6600464">
        <ele>30.8995</ele>
        <time>2012-04-15T12:45:07Z</time>
      </trkpt>
      <trkpt lat="59.9073835" lon="17.658995">
        <ele>31.3801</ele>
        <time>2012-04-15T12:45:15Z</time>
      </trkpt>
      <trkpt lat="59.9072871" lon="17.6581967">
        <ele>30.8995</ele>
        <time>2012-04-15T12:45:21Z</time>
      </trkpt>
      <trkpt lat="59.9070938" lon="17.656898">
        <ele>30.8995</ele>
        <time>2012-04-15T12:45:30Z</time>
      </trkpt>
      <trkpt lat="59.9070434" lon="17.6558284">
        <ele>29.9381</ele>
        <time>2012-04-15T12:45:37Z</time>
      </trkpt>
      <trkpt lat="59.9070471" lon="17.6543551">
        <ele>29.4575</ele>
        <time>2012-04-15T12:45:46Z</time>
      </trkpt>
      <trkpt lat="59.9070896" lon="17.6531172">
        <ele>29.9381</ele>
        <time>2012-04-15T12:45:54Z</time>
      </trkpt>
      <trkpt lat="59.907085" lon="17.6522355">
        <ele>29.9381</ele>
        <time>2012-04-15T12:46:00Z</time>
      </trkpt>
      <trkpt lat="59.9069653" lon="17.6513621">
        <ele>29.4575</ele>
        <time>2012-04-15T12:46:06Z</time>
      </trkpt>
      <trkpt lat="59.9067001" lon="17.6502255">
        <ele>28.9769</ele>
        <time>2012-04-15T12:46:14Z</time>
      </trkpt>
      <trkpt lat="59.9065675" lon="17.6496484">
        <ele>28.0155</ele>
        <time>2012-04-15T12:46:18Z</time>
      </trkpt>
      <trkpt lat="59.9062156" lon="17.6485509">
        <ele>27.0543</ele>
        <time>2012-04-15T12:46:26Z</time>
      </trkpt>
      <trkpt lat="59.9060793" lon="17.6481561">
        <ele>27.0543</ele>
        <time>2012-04-15T12:46:29Z</time>
      </trkpt>
      <trkpt lat="59.9059618" lon="17.6474255">
        <ele>26.5736</ele>
        <time>2012-04-15T12:46:34Z</time>
      </trkpt>
      <trkpt lat="59.9059884" lon="17.6466534">
        <ele>26.5736</ele>
        <time>2012-04-15T12:46:39Z</time>
      </trkpt>
      <trkpt lat="59.9061256" lon="17.6455971">
        <ele>26.0929</ele>
        <time>2012-04-15T12:46:46Z</time>
      </trkpt>
      <trkpt lat="59.9061552" lon="17.6452933">
        <ele>26.0929</ele>
        <time>2012-04-15T12:46:48Z</time>
      </trkpt>
      <trkpt lat="59.9061094" lon="17.6445243">
        <ele>24.651</ele>
        <time>2012-04-15T12:46:53Z</time>
      </trkpt>
      <trkpt lat="59.905907" lon="17.6437719">
        <ele>23.6896</ele>
        <time>2012-04-15T12:46:59Z</time>
      </trkpt>
      <trkpt lat="59.905853" lon="17.6434292">
        <ele>23.6896</ele>
        <time>2012-04-15T12:47:03Z</time>
      </trkpt>
      <trkpt lat="59.9058335" lon="17.6433197">
        <ele>23.6896</ele>
        <time>2012-04-15T12:47:07Z</time>
      </trkpt>
      <trkpt lat="59.9058165" lon="17.6432855">
        <ele>23.6896</ele>
        <time>2012-04-15T12:47:08Z</time>
      </trkpt>
      <trkpt lat="59.9056355" lon="17.64304">
        <ele>23.209</ele>
        <time>2012-04-15T12:47:13Z</time>
      </trkpt>
      <trkpt lat="59.9054734" lon="17.642925">
        <ele>23.209</ele>
        <time>2012-04-15T12:47:16Z</time>
      </trkpt>
      <trkpt lat="59.9050683" lon="17.6427132">
        <ele>22.7283</ele>
        <time>2012-04-15T12:47:23Z</time>
      </trkpt>
      <trkpt lat="59.9046911" lon="17.6424724">
        <ele>22.2476</ele>
        <time>2012-04-15T12:47:29Z</time>
      </trkpt>
      <trkpt lat="59.904274" lon="17.6422379">
        <ele>22.7283</ele>
        <time>2012-04-15T12:47:35Z</time>
      </trkpt>
      <trkpt lat="59.9037291" lon="17.6419564">
        <ele>23.6896</ele>
        <time>2012-04-15T12:47:43Z</time>
      </trkpt>
      <trkpt lat="59.9034718" lon="17.6419071">
        <ele>23.6896</ele>
        <time>2012-04-15T12:47:47Z</time>
      </trkpt>
      <trkpt lat="59.9028588" lon="17.6415685">
        <ele>23.209</ele>
        <time>2012-04-15T12:47:56Z</time>
      </trkpt>
      <trkpt lat="59.9022491" lon="17.6411879">
        <ele>23.6896</ele>
        <time>2012-04-15T12:48:05Z</time>
      </trkpt>
      <trkpt lat="59.9015954" lon="17.6406837">
        <ele>24.1703</ele>
        <time>2012-04-15T12:48:15Z</time>
      </trkpt>
      <trkpt lat="59.9011365" lon="17.6402265">
        <ele>24.651</ele>
        <time>2012-04-15T12:48:23Z</time>
      </trkpt>
      <trkpt lat="59.9006362" lon="17.6397042">
        <ele>25.1317</ele>
        <time>2012-04-15T12:48:32Z</time>
      </trkpt>
      <trkpt lat="59.9000745" lon="17.6391292">
        <ele>25.6123</ele>
        <time>2012-04-15T12:48:42Z</time>
      </trkpt>
      <trkpt lat="59.899507" lon="17.6385548">
        <ele>26.0929</ele>
        <time>2012-04-15T12:48:52Z</time>
      </trkpt>
      <trkpt lat="59.899088" lon="17.6381616">
        <ele>27.0543</ele>
        <time>2012-04-15T12:49:00Z</time>
      </trkpt>
      <trkpt lat="59.89863" lon="17.6377403">
        <ele>28.0155</ele>
        <time>2012-04-15T12:49:09Z</time>
      </trkpt>
      <trkpt lat="59.8981425" lon="17.6373121">
        <ele>28.9769</ele>
        <time>2012-04-15T12:49:18Z</time>
      </trkpt>
      <trkpt lat="59.8978598" lon="17.637083">
        <ele>29.4575</ele>
        <time>2012-04-15T12:49:23Z</time>
      </trkpt>
      <trkpt lat="59.8977054" lon="17.6370065">
        <ele>29.9381</ele>
        <time>2012-04-15T12:49:26Z</time>
      </trkpt>
      <trkpt lat="59.8974545" lon="17.6368185">
        <ele>30.8995</ele>
        <time>2012-04-15T12:49:32Z</time>
      </trkpt>
      <trkpt lat="59.8973687" lon="17.636564">
        <ele>30.8995</ele>
        <time>2012-04-15T12:49:36Z</time>
      </trkpt>
      <trkpt lat="59.8974203" lon="17.6363833">
        <ele>30.4188</ele>
        <time>2012-04-15T12:49:38Z</time>
      </trkpt>
      <trkpt lat="59.8975246" lon="17.6360932">
        <ele>28.9769</ele>
        <time>2012-04-15T12:49:41Z</time>
      </trkpt>
      <trkpt lat="59.897705" lon="17.6355622">
        <ele>28.9769</ele>
        <time>2012-04-15T12:49:46Z</time>
      </trkpt>
      <trkpt lat="59.8979374" lon="17.6350596">
        <ele>27.5349</ele>
        <time>2012-04-15T12:49:51Z</time>
      </trkpt>
      <trkpt lat="59.8980685" lon="17.634595">
        <ele>28.0155</ele>
        <time>2012-04-15T12:49:55Z</time>
      </trkpt>
      <trkpt lat="59.8981664" lon="17.6338813">
        <ele>28.9769</ele>
        <time>2012-04-15T12:50:02Z</time>
      </trkpt>
      <trkpt lat="59.8982569" lon="17.6330732">
        <ele>29.9381</ele>
        <time>2012-04-15T12:50:09Z</time>
      </trkpt>
      <trkpt lat="59.8983406" lon="17.6326649">
        <ele>30.8995</ele>
        <time>2012-04-15T12:50:13Z</time>
      </trkpt>
      <trkpt lat="59.8983081" lon="17.6323644">
        <ele>30.4188</ele>
        <time>2012-04-15T12:50:16Z</time>
      </trkpt>
      <trkpt lat="59.8982611" lon="17.6322879">
        <ele>30.4188</ele>
        <time>2012-04-15T12:50:17Z</time>
      </trkpt>
      <trkpt lat="59.8980125" lon="17.6316272">
        <ele>29.9381</ele>
        <time>2012-04-15T12:50:23Z</time>
      </trkpt>
      <trkpt lat="59.8979533" lon="17.6312332">
        <ele>30.4188</ele>
        <time>2012-04-15T12:50:26Z</time>
      </trkpt>
      <trkpt lat="59.8978162" lon="17.6305832">
        <ele>29.9381</ele>
        <time>2012-04-15T12:50:32Z</time>
      </trkpt>
      <trkpt lat="59.8975773" lon="17.6298392">
        <ele>29.9381</ele>
        <time>2012-04-15T12:50:39Z</time>
      </trkpt>
      <trkpt lat="59.8975449" lon="17.629731">
        <ele>29.9381</ele>
        <time>2012-04-15T12:50:40Z</time>
      </trkpt>
      <trkpt lat="59.8972443" lon="17.6290617">
        <ele>29.4575</ele>
        <time>2012-04-15T12:50:47Z</time>
      </trkpt>
      <trkpt lat="59.8967847" lon="17.6283738">
        <ele>29.4575</ele>
        <time>2012-04-15T12:50:56Z</time>
      </trkpt>
      <trkpt lat="59.896332" lon="17.6279439">
        <ele>29.9381</ele>
        <time>2012-04-15T12:51:04Z</time>
      </trkpt>
      <trkpt lat="59.8960306" lon="17.6276942">
        <ele>29.4575</ele>
        <time>2012-04-15T12:51:09Z</time>
      </trkpt>
      <trkpt lat="59.8956261" lon="17.6275517">
        <ele>30.8995</ele>
        <time>2012-04-15T12:51:16Z</time>
      </trkpt>
      <trkpt lat="59.8953434" lon="17.6274243">
        <ele>30.8995</ele>
        <time>2012-04-15T12:51:21Z</time>
      </trkpt>
      <trkpt lat="59.8952293" lon="17.6273174">
        <ele>30.8995</ele>
        <time>2012-04-15T12:51:23Z</time>
      </trkpt>
      <trkpt lat="59.89479" lon="17.6270511">
        <ele>30.4188</ele>
        <time>2012-04-15T12:51:30Z</time>
      </trkpt>
      <trkpt lat="59.8944823" lon="17.6267823">
        <ele>29.4575</ele>
        <time>2012-04-15T12:51:35Z</time>
      </trkpt>
      <trkpt lat="59.8941347" lon="17.6262432">
        <ele>28.4962</ele>
        <time>2012-04-15T12:51:41Z</time>
      </trkpt>
      <trkpt lat="59.894075" lon="17.6261453">
        <ele>28.4962</ele>
        <time>2012-04-15T12:51:42Z</time>
      </trkpt>
      <trkpt lat="59.893851" lon="17.6255745">
        <ele>28.0155</ele>
        <time>2012-04-15T12:51:47Z</time>
      </trkpt>
      <trkpt lat="59.8937761" lon="17.6253075">
        <ele>26.5736</ele>
        <time>2012-04-15T12:51:49Z</time>
      </trkpt>
      <trkpt lat="59.8936654" lon="17.6246059">
        <ele>23.209</ele>
        <time>2012-04-15T12:51:53Z</time>
      </trkpt>
      <trkpt lat="59.893472" lon="17.6239632">
        <ele>21.2864</ele>
        <time>2012-04-15T12:51:57Z</time>
      </trkpt>
      <trkpt lat="59.8933944" lon="17.6238612">
        <ele>21.2864</ele>
        <time>2012-04-15T12:51:58Z</time>
      </trkpt>
      <trkpt lat="59.8930319" lon="17.6233116">
        <ele>22.7283</ele>
        <time>2012-04-15T12:52:04Z</time>
      </trkpt>
      <trkpt lat="59.8927813" lon="17.6231075">
        <ele>21.767</ele>
        <time>2012-04-15T12:52:08Z</time>
      </trkpt>
      <trkpt lat="59.8927123" lon="17.6230844">
        <ele>21.2864</ele>
        <time>2012-04-15T12:52:09Z</time>
      </trkpt>
      <trkpt lat="59.8924941" lon="17.6231456">
        <ele>20.325</ele>
        <time>2012-04-15T12:52:13Z</time>
      </trkpt>
      <trkpt lat="59.89236" lon="17.6234258">
        <ele>18.8831</ele>
        <time>2012-04-15T12:52:16Z</time>
      </trkpt>
      <trkpt lat="59.8922408" lon="17.6237681">
        <ele>18.4023</ele>
        <time>2012-04-15T12:52:19Z</time>
      </trkpt>
      <trkpt lat="59.8920548" lon="17.6240461">
        <ele>20.325</ele>
        <time>2012-04-15T12:52:23Z</time>
      </trkpt>
      <trkpt lat="59.8920017" lon="17.6240557">
        <ele>20.8057</ele>
        <time>2012-04-15T12:52:24Z</time>
      </trkpt>
      <trkpt lat="59.8917613" lon="17.6240458">
        <ele>22.7283</ele>
        <time>2012-04-15T12:52:29Z</time>
      </trkpt>
      <trkpt lat="59.8914291" lon="17.6240757">
        <ele>22.7283</ele>
        <time>2012-04-15T12:52:35Z</time>
      </trkpt>
      <trkpt lat="59.8910335" lon="17.6240834">
        <ele>24.1703</ele>
        <time>2012-04-15T12:52:42Z</time>
      </trkpt>
      <trkpt lat="59.8906593" lon="17.6240738">
        <ele>23.209</ele>
        <time>2012-04-15T12:52:48Z</time>
      </trkpt>
      <trkpt lat="59.8901585" lon="17.6240527">
        <ele>22.2476</ele>
        <time>2012-04-15T12:52:55Z</time>
      </trkpt>
      <trkpt lat="59.8897917" lon="17.624062">
        <ele>21.767</ele>
        <time>2012-04-15T12:53:01Z</time>
      </trkpt>
      <trkpt lat="59.8896985" lon="17.6240464">
        <ele>21.767</ele>
        <time>2012-04-15T12:53:04Z</time>
      </trkpt>
      <trkpt lat="59.8896465" lon="17.6240598">
        <ele>22.2476</ele>
        <time>2012-04-15T12:53:06Z</time>
      </trkpt>
      <trkpt lat="59.8894839" lon="17.6242008">
        <ele>21.767</ele>
        <time>2012-04-15T12:53:11Z</time>
      </trkpt>
      <trkpt lat="59.8893127" lon="17.6244476">
        <ele>22.2476</ele>
        <time>2012-04-15T12:53:15Z</time>
      </trkpt>
      <trkpt lat="59.8890091" lon="17.6247328">
        <ele>22.7283</ele>
        <time>2012-04-15T12:53:23Z</time>
      </trkpt>
      <trkpt lat="59.8887433" lon="17.6249377">
        <ele>23.6896</ele>
        <time>2012-04-15T12:53:29Z</time>
      </trkpt>
      <trkpt lat="59.8884053" lon="17.6250383">
        <ele>25.1317</ele>
        <time>2012-04-15T12:53:37Z</time>
      </trkpt>
      <trkpt lat="59.8881294" lon="17.625077">
        <ele>25.6123</ele>
        <time>2012-04-15T12:53:43Z</time>
      </trkpt>
      <trkpt lat="59.8879293" lon="17.6251743">
        <ele>24.651</ele>
        <time>2012-04-15T12:53:47Z</time>
      </trkpt>
      <trkpt lat="59.8874628" lon="17.6253067">
        <ele>25.6123</ele>
        <time>2012-04-15T12:53:55Z</time>
      </trkpt>
      <trkpt lat="59.8870821" lon="17.625461">
        <ele>25.6123</ele>
        <time>2012-04-15T12:54:02Z</time>
      </trkpt>
      <trkpt lat="59.8866251" lon="17.6254761">
        <ele>22.2476</ele>
        <time>2012-04-15T12:54:09Z</time>
      </trkpt>
      <trkpt lat="59.8860802" lon="17.6254831">
        <ele>21.767</ele>
        <time>2012-04-15T12:54:17Z</time>
      </trkpt>
      <trkpt lat="59.886017" lon="17.6254698">
        <ele>21.767</ele>
        <time>2012-04-15T12:54:18Z</time>
      </trkpt>
      <trkpt lat="59.8858423" lon="17.6252828">
        <ele>21.2864</ele>
        <time>2012-04-15T12:54:21Z</time>
      </trkpt>
      <trkpt lat="59.8855596" lon="17.6252507">
        <ele>19.3638</ele>
        <time>2012-04-15T12:54:25Z</time>
      </trkpt>
      <trkpt lat="59.8851637" lon="17.6253567">
        <ele>20.325</ele>
        <time>2012-04-15T12:54:31Z</time>
      </trkpt>
      <trkpt lat="59.8847718" lon="17.6253806">
        <ele>20.8057</ele>
        <time>2012-04-15T12:54:38Z</time>
      </trkpt>
      <trkpt lat="59.8843551" lon="17.625418">
        <ele>20.325</ele>
        <time>2012-04-15T12:54:46Z</time>
      </trkpt>
      <trkpt lat="59.8841609" lon="17.6254166">
        <ele>19.8444</ele>
        <time>2012-04-15T12:54:50Z</time>
      </trkpt>
      <trkpt lat="59.8837769" lon="17.6254584">
        <ele>20.325</ele>
        <time>2012-04-15T12:54:58Z</time>
      </trkpt>
      <trkpt lat="59.8834036" lon="17.6255703">
        <ele>20.8057</ele>
        <time>2012-04-15T12:55:05Z</time>
      </trkpt>
      <trkpt lat="59.8830232" lon="17.625716">
        <ele>20.8057</ele>
        <time>2012-04-15T12:55:12Z</time>
      </trkpt>
      <trkpt lat="59.8827012" lon="17.6258217">
        <ele>21.2864</ele>
        <time>2012-04-15T12:55:18Z</time>
      </trkpt>
      <trkpt lat="59.8825961" lon="17.625852">
        <ele>21.767</ele>
        <time>2012-04-15T12:55:20Z</time>
      </trkpt>
      <trkpt lat="59.8824287" lon="17.6257211">
        <ele>22.7283</ele>
        <time>2012-04-15T12:55:24Z</time>
      </trkpt>
      <trkpt lat="59.8823991" lon="17.6256378">
        <ele>22.7283</ele>
        <time>2012-04-15T12:55:25Z</time>
      </trkpt>
      <trkpt lat="59.8821978" lon="17.6250291">
        <ele>22.2476</ele>
        <time>2012-04-15T12:55:32Z</time>
      </trkpt>
      <trkpt lat="59.8820699" lon="17.6246902">
        <ele>21.767</ele>
        <time>2012-04-15T12:55:36Z</time>
      </trkpt>
      <trkpt lat="59.8819486" lon="17.6245083">
        <ele>21.2864</ele>
        <time>2012-04-15T12:55:39Z</time>
      </trkpt>
      <trkpt lat="59.8815792" lon="17.6242168">
        <ele>19.8444</ele>
        <time>2012-04-15T12:55:46Z</time>
      </trkpt>
      <trkpt lat="59.8814871" lon="17.6240074">
        <ele>19.3638</ele>
        <time>2012-04-15T12:55:49Z</time>
      </trkpt>
      <trkpt lat="59.88152" lon="17.6238225">
        <ele>19.3638</ele>
        <time>2012-04-15T12:55:51Z</time>
      </trkpt>
      <trkpt lat="59.8816" lon="17.6233461">
        <ele>19.3638</ele>
        <time>2012-04-15T12:55:56Z</time>
      </trkpt>
      <trkpt lat="59.881551" lon="17.6226512">
        <ele>18.8831</ele>
        <time>2012-04-15T12:56:02Z</time>
      </trkpt>
      <trkpt lat="59.8814864" lon="17.6224032">
        <ele>18.4023</ele>
        <time>2012-04-15T12:56:04Z</time>
      </trkpt>
      <trkpt lat="59.8812834" lon="17.6216757">
        <ele>18.4023</ele>
        <time>2012-04-15T12:56:10Z</time>
      </trkpt>
      <trkpt lat="59.8812487" lon="17.6215688">
        <ele>18.4023</ele>
        <time>2012-04-15T12:56:11Z</time>
      </trkpt>
      <trkpt lat="59.8810063" lon="17.6212091">
        <ele>18.4023</ele>
        <time>2012-04-15T12:56:16Z</time>
      </trkpt>
      <trkpt lat="59.8806832" lon="17.6208115">
        <ele>17.9218</ele>
        <time>2012-04-15T12:56:22Z</time>
      </trkpt>
      <trkpt lat="59.8805417" lon="17.6204337">
        <ele>17.9218</ele>
        <time>2012-04-15T12:56:26Z</time>
      </trkpt>
      <trkpt lat="59.8802925" lon="17.6192958">
        <ele>17.9218</ele>
        <time>2012-04-15T12:56:36Z</time>
      </trkpt>
      <trkpt lat="59.8800801" lon="17.6183592">
        <ele>17.4412</ele>
        <time>2012-04-15T12:56:44Z</time>
      </trkpt>
      <trkpt lat="59.8800511" lon="17.6182375">
        <ele>17.4412</ele>
        <time>2012-04-15T12:56:45Z</time>
      </trkpt>
      <trkpt lat="59.8798826" lon="17.6173653">
        <ele>16.4797</ele>
        <time>2012-04-15T12:56:52Z</time>
      </trkpt>
      <trkpt lat="59.8797008" lon="17.6166099">
        <ele>15.999</ele>
        <time>2012-04-15T12:56:59Z</time>
      </trkpt>
      <trkpt lat="59.879624" lon="17.6163403">
        <ele>16.9604</ele>
        <time>2012-04-15T12:57:03Z</time>
      </trkpt>
      <trkpt lat="59.8795318" lon="17.6158732">
        <ele>16.4797</ele>
        <time>2012-04-15T12:57:09Z</time>
      </trkpt>
      <trkpt lat="59.8793383" lon="17.6150467">
        <ele>14.557</ele>
        <time>2012-04-15T12:57:17Z</time>
      </trkpt>
      <trkpt lat="59.8790694" lon="17.6138908">
        <ele>14.0764</ele>
        <time>2012-04-15T12:57:27Z</time>
      </trkpt>
      <trkpt lat="59.8788212" lon="17.61299">
        <ele>14.557</ele>
        <time>2012-04-15T12:57:35Z</time>
      </trkpt>
      <trkpt lat="59.8785022" lon="17.6119725">
        <ele>15.0377</ele>
        <time>2012-04-15T12:57:44Z</time>
      </trkpt>
      <trkpt lat="59.8783967" lon="17.6116377">
        <ele>15.5184</ele>
        <time>2012-04-15T12:57:47Z</time>
      </trkpt>
      <trkpt lat="59.8782339" lon="17.6112619">
        <ele>15.999</ele>
        <time>2012-04-15T12:57:51Z</time>
      </trkpt>
      <trkpt lat="59.878139" lon="17.6108417">
        <ele>15.0377</ele>
        <time>2012-04-15T12:57:56Z</time>
      </trkpt>
      <trkpt lat="59.8780503" lon="17.6106925">
        <ele>14.0764</ele>
        <time>2012-04-15T12:58:01Z</time>
      </trkpt>
      <trkpt lat="59.8778818" lon="17.6105853">
        <ele>14.557</ele>
        <time>2012-04-15T12:58:06Z</time>
      </trkpt>
      <trkpt lat="59.8776663" lon="17.6098891">
        <ele>11.6732</ele>
        <time>2012-04-15T12:58:12Z</time>
      </trkpt>
      <trkpt lat="59.8773919" lon="17.6090178">
        <ele>9.75061</ele>
        <time>2012-04-15T12:58:18Z</time>
      </trkpt>
      <trkpt lat="59.8771049" lon="17.6080786">
        <ele>9.2699</ele>
        <time>2012-04-15T12:58:25Z</time>
      </trkpt>
      <trkpt lat="59.8767727" lon="17.6069746">
        <ele>8.30859</ele>
        <time>2012-04-15T12:58:34Z</time>
      </trkpt>
      <trkpt lat="59.876515" lon="17.6061582">
        <ele>8.78918</ele>
        <time>2012-04-15T12:58:41Z</time>
      </trkpt>
      <trkpt lat="59.8764246" lon="17.6058694">
        <ele>9.2699</ele>
        <time>2012-04-15T12:58:44Z</time>
      </trkpt>
      <trkpt lat="59.8762685" lon="17.6055456">
        <ele>9.2699</ele>
        <time>2012-04-15T12:58:48Z</time>
      </trkpt>
      <trkpt lat="59.8761536" lon="17.6050829">
        <ele>8.30859</ele>
        <time>2012-04-15T12:58:52Z</time>
      </trkpt>
      <trkpt lat="59.8760726" lon="17.6043928">
        <ele>8.30859</ele>
        <time>2012-04-15T12:58:57Z</time>
      </trkpt>
      <trkpt lat="59.8756831" lon="17.6030928">
        <ele>7.82788</ele>
        <time>2012-04-15T12:59:07Z</time>
      </trkpt>
      <trkpt lat="59.8753727" lon="17.6020869">
        <ele>7.82788</ele>
        <time>2012-04-15T12:59:15Z</time>
      </trkpt>
      <trkpt lat="59.8750835" lon="17.6010853">
        <ele>8.30859</ele>
        <time>2012-04-15T12:59:23Z</time>
      </trkpt>
      <trkpt lat="59.8746948" lon="17.5997756">
        <ele>8.78918</ele>
        <time>2012-04-15T12:59:34Z</time>
      </trkpt>
      <trkpt lat="59.8743092" lon="17.5984649">
        <ele>9.75061</ele>
        <time>2012-04-15T12:59:46Z</time>
      </trkpt>
      <trkpt lat="59.8740209" lon="17.5974686">
        <ele>10.2312</ele>
        <time>2012-04-15T12:59:55Z</time>
      </trkpt>
      <trkpt lat="59.8737992" lon="17.5968024">
        <ele>11.1925</ele>
        <time>2012-04-15T13:00:02Z</time>
      </trkpt>
      <trkpt lat="59.8736612" lon="17.5965001">
        <ele>11.1925</ele>
        <time>2012-04-15T13:00:06Z</time>
      </trkpt>
      <trkpt lat="59.8735552" lon="17.5964264">
        <ele>11.6732</ele>
        <time>2012-04-15T13:00:09Z</time>
      </trkpt>
      <trkpt lat="59.8735236" lon="17.5964742">
        <ele>11.6732</ele>
        <time>2012-04-15T13:00:10Z</time>
      </trkpt>
      <trkpt lat="59.8732999" lon="17.5970187">
        <ele>12.6344</ele>
        <time>2012-04-15T13:00:17Z</time>
      </trkpt>
      <trkpt lat="59.8730476" lon="17.5975082">
        <ele>13.1151</ele>
        <time>2012-04-15T13:00:23Z</time>
      </trkpt>
      <trkpt lat="59.8729606" lon="17.5976518">
        <ele>13.1151</ele>
        <time>2012-04-15T13:00:25Z</time>
      </trkpt>
      <trkpt lat="59.8727844" lon="17.5980396">
        <ele>13.5958</ele>
        <time>2012-04-15T13:00:30Z</time>
      </trkpt>
      <trkpt lat="59.8726731" lon="17.5980947">
        <ele>13.5958</ele>
        <time>2012-04-15T13:00:33Z</time>
      </trkpt>
      <trkpt lat="59.8726431" lon="17.5980529">
        <ele>14.0764</ele>
        <time>2012-04-15T13:00:34Z</time>
      </trkpt>
      <trkpt lat="59.8725762" lon="17.5979618">
        <ele>14.0764</ele>
        <time>2012-04-15T13:00:36Z</time>
      </trkpt>
      <trkpt lat="59.8723446" lon="17.5974824">
        <ele>15.5184</ele>
        <time>2012-04-15T13:00:43Z</time>
      </trkpt>
      <trkpt lat="59.8722535" lon="17.5972719">
        <ele>16.4797</ele>
        <time>2012-04-15T13:00:46Z</time>
      </trkpt>
      <trkpt lat="59.8721438" lon="17.5969896">
        <ele>16.9604</ele>
        <time>2012-04-15T13:00:50Z</time>
      </trkpt>
      <trkpt lat="59.8720416" lon="17.5965416">
        <ele>17.9218</ele>
        <time>2012-04-15T13:00:55Z</time>
      </trkpt>
      <trkpt lat="59.8719608" lon="17.5954891">
        <ele>21.2864</ele>
        <time>2012-04-15T13:01:06Z</time>
      </trkpt>
      <trkpt lat="59.8719256" lon="17.5947823">
        <ele>22.2476</ele>
        <time>2012-04-15T13:01:14Z</time>
      </trkpt>
      <trkpt lat="59.8718799" lon="17.59411">
        <ele>23.209</ele>
        <time>2012-04-15T13:01:22Z</time>
      </trkpt>
      <trkpt lat="59.871792" lon="17.5936003">
        <ele>23.209</ele>
        <time>2012-04-15T13:01:28Z</time>
      </trkpt>
      <trkpt lat="59.8716125" lon="17.5927579">
        <ele>21.2864</ele>
        <time>2012-04-15T13:01:36Z</time>
      </trkpt>
      <trkpt lat="59.8715396" lon="17.5924102">
        <ele>20.325</ele>
        <time>2012-04-15T13:01:39Z</time>
      </trkpt>
      <trkpt lat="59.8713573" lon="17.5919815">
        <ele>19.3638</ele>
        <time>2012-04-15T13:01:43Z</time>
      </trkpt>
      <trkpt lat="59.8708989" lon="17.5913486">
        <ele>19.3638</ele>
        <time>2012-04-15T13:01:51Z</time>
      </trkpt>
      <trkpt lat="59.870443" lon="17.5907091">
        <ele>19.8444</ele>
        <time>2012-04-15T13:02:00Z</time>
      </trkpt>
      <trkpt lat="59.8701585" lon="17.5900771">
        <ele>20.325</ele>
        <time>2012-04-15T13:02:07Z</time>
      </trkpt>
      <trkpt lat="59.8698854" lon="17.5893485">
        <ele>20.325</ele>
        <time>2012-04-15T13:02:15Z</time>
      </trkpt>
      <trkpt lat="59.8698483" lon="17.5892604">
        <ele>20.325</ele>
        <time>2012-04-15T13:02:16Z</time>
      </trkpt>
      <trkpt lat="59.86964" lon="17.5889097">
        <ele>19.3638</ele>
        <time>2012-04-15T13:02:21Z</time>
      </trkpt>
      <trkpt lat="59.869521" lon="17.5889452">
        <ele>19.3638</ele>
        <time>2012-04-15T13:02:23Z</time>
      </trkpt>
      <trkpt lat="59.8692749" lon="17.5890613">
        <ele>18.8831</ele>
        <time>2012-04-15T13:02:27Z</time>
      </trkpt>
      <trkpt lat="59.8690383" lon="17.5892038">
        <ele>18.8831</ele>
        <time>2012-04-15T13:02:31Z</time>
      </trkpt>
      <trkpt lat="59.8688701" lon="17.5895091">
        <ele>19.3638</ele>
        <time>2012-04-15T13:02:35Z</time>
      </trkpt>
      <trkpt lat="59.868792" lon="17.5895577">
        <ele>18.8831</ele>
        <time>2012-04-15T13:02:37Z</time>
      </trkpt>
      <trkpt lat="59.8684408" lon="17.5897722">
        <ele>18.8831</ele>
        <time>2012-04-15T13:02:45Z</time>
      </trkpt>
      <trkpt lat="59.8684041" lon="17.5898064">
        <ele>18.8831</ele>
        <time>2012-04-15T13:02:46Z</time>
      </trkpt>
      <trkpt lat="59.8681823" lon="17.5898711">
        <ele>16.4797</ele>
        <time>2012-04-15T13:02:50Z</time>
      </trkpt>
      <trkpt lat="59.8680227" lon="17.5898674">
        <ele>15.5184</ele>
        <time>2012-04-15T13:02:52Z</time>
      </trkpt>
      <trkpt lat="59.8677125" lon="17.5898841">
        <ele>18.4023</ele>
        <time>2012-04-15T13:02:57Z</time>
      </trkpt>
      <trkpt lat="59.8674265" lon="17.5900199">
        <ele>17.9218</ele>
        <time>2012-04-15T13:03:03Z</time>
      </trkpt>
      <trkpt lat="59.8671962" lon="17.5901705">
        <ele>15.5184</ele>
        <time>2012-04-15T13:03:07Z</time>
      </trkpt>
      <trkpt lat="59.8669722" lon="17.5904063">
        <ele>13.1151</ele>
        <time>2012-04-15T13:03:11Z</time>
      </trkpt>
      <trkpt lat="59.8667694" lon="17.5904669">
        <ele>11.1925</ele>
        <time>2012-04-15T13:03:15Z</time>
      </trkpt>
      <trkpt lat="59.8665665" lon="17.5905185">
        <ele>15.0377</ele>
        <time>2012-04-15T13:03:21Z</time>
      </trkpt>
      <trkpt lat="59.8663099" lon="17.5905534">
        <ele>16.9604</ele>
        <time>2012-04-15T13:03:29Z</time>
      </trkpt>
      <trkpt lat="59.8660434" lon="17.590601">
        <ele>18.4023</ele>
        <time>2012-04-15T13:03:37Z</time>
      </trkpt>
      <trkpt lat="59.8658881" lon="17.5907181">
        <ele>19.8444</ele>
        <time>2012-04-15T13:03:43Z</time>
      </trkpt>
      <trkpt lat="59.8657645" lon="17.590934">
        <ele>20.8057</ele>
        <time>2012-04-15T13:03:49Z</time>
      </trkpt>
      <trkpt lat="59.8657308" lon="17.5910272">
        <ele>20.8057</ele>
        <time>2012-04-15T13:03:52Z</time>
      </trkpt>
      <trkpt lat="59.8656275" lon="17.5911615">
        <ele>20.8057</ele>
        <time>2012-04-15T13:03:58Z</time>
      </trkpt>
      <trkpt lat="59.8654748" lon="17.5914304">
        <ele>22.2476</ele>
        <time>2012-04-15T13:04:06Z</time>
      </trkpt>
      <trkpt lat="59.8654155" lon="17.5915244">
        <ele>22.2476</ele>
        <time>2012-04-15T13:04:09Z</time>
      </trkpt>
      <trkpt lat="59.8652348" lon="17.59152">
        <ele>22.2476</ele>
        <time>2012-04-15T13:04:15Z</time>
      </trkpt>
      <trkpt lat="59.8651977" lon="17.5915132">
        <ele>22.2476</ele>
        <time>2012-04-15T13:04:16Z</time>
      </trkpt>
      <trkpt lat="59.8648216" lon="17.5915355">
        <ele>22.7283</ele>
        <time>2012-04-15T13:04:25Z</time>
      </trkpt>
      <trkpt lat="59.8645508" lon="17.5915897">
        <ele>23.6896</ele>
        <time>2012-04-15T13:04:31Z</time>
      </trkpt>
      <trkpt lat="59.8642036" lon="17.5914911">
        <ele>24.1703</ele>
        <time>2012-04-15T13:04:38Z</time>
      </trkpt>
      <trkpt lat="59.8640265" lon="17.5914961">
        <ele>23.6896</ele>
        <time>2012-04-15T13:04:41Z</time>
      </trkpt>
      <trkpt lat="59.8637572" lon="17.5913533">
        <ele>21.767</ele>
        <time>2012-04-15T13:04:46Z</time>
      </trkpt>
      <trkpt lat="59.8632824" lon="17.5910346">
        <ele>20.8057</ele>
        <time>2012-04-15T13:04:54Z</time>
      </trkpt>
      <trkpt lat="59.8627211" lon="17.5906057">
        <ele>20.325</ele>
        <time>2012-04-15T13:05:03Z</time>
      </trkpt>
      <trkpt lat="59.8624697" lon="17.5904492">
        <ele>19.8444</ele>
        <time>2012-04-15T13:05:07Z</time>
      </trkpt>
      <trkpt lat="59.8619509" lon="17.5900663">
        <ele>20.325</ele>
        <time>2012-04-15T13:05:15Z</time>
      </trkpt>
      <trkpt lat="59.8616165" lon="17.58983">
        <ele>20.8057</ele>
        <time>2012-04-15T13:05:21Z</time>
      </trkpt>
      <trkpt lat="59.8612233" lon="17.5895779">
        <ele>21.2864</ele>
        <time>2012-04-15T13:05:29Z</time>
      </trkpt>
      <trkpt lat="59.8608856" lon="17.5894311">
        <ele>21.767</ele>
        <time>2012-04-15T13:05:36Z</time>
      </trkpt>
      <trkpt lat="59.860839" lon="17.589425">
        <ele>21.767</ele>
        <time>2012-04-15T13:05:37Z</time>
      </trkpt>
      <trkpt lat="59.8606659" lon="17.5893081">
        <ele>22.2476</ele>
        <time>2012-04-15T13:05:41Z</time>
      </trkpt>
      <trkpt lat="59.8602466" lon="17.5889133">
        <ele>22.2476</ele>
        <time>2012-04-15T13:05:50Z</time>
      </trkpt>
      <trkpt lat="59.8600896" lon="17.5888267">
        <ele>22.2476</ele>
        <time>2012-04-15T13:05:53Z</time>
      </trkpt>
      <trkpt lat="59.8599435" lon="17.588947">
        <ele>23.6896</ele>
        <time>2012-04-15T13:05:57Z</time>
      </trkpt>
      <trkpt lat="59.8598865" lon="17.5891604">
        <ele>24.651</ele>
        <time>2012-04-15T13:06:00Z</time>
      </trkpt>
      <trkpt lat="59.8598047" lon="17.5897027">
        <ele>25.1317</ele>
        <time>2012-04-15T13:06:07Z</time>
      </trkpt>
      <trkpt lat="59.8597196" lon="17.5902259">
        <ele>25.6123</ele>
        <time>2012-04-15T13:06:14Z</time>
      </trkpt>
      <trkpt lat="59.8596242" lon="17.5904036">
        <ele>26.5736</ele>
        <time>2012-04-15T13:06:19Z</time>
      </trkpt>
      <trkpt lat="59.8595637" lon="17.5906787">
        <ele>26.5736</ele>
        <time>2012-04-15T13:06:23Z</time>
      </trkpt>
      <trkpt lat="59.8595359" lon="17.5909667">
        <ele>25.6123</ele>
        <time>2012-04-15T13:06:26Z</time>
      </trkpt>
      <trkpt lat="59.8594841" lon="17.5914742">
        <ele>24.1703</ele>
        <time>2012-04-15T13:06:31Z</time>
      </trkpt>
      <trkpt lat="59.8594638" lon="17.5917565">
        <ele>21.767</ele>
        <time>2012-04-15T13:06:33Z</time>
      </trkpt>
      <trkpt lat="59.859341" lon="17.5925749">
        <ele>18.4023</ele>
        <time>2012-04-15T13:06:37Z</time>
      </trkpt>
      <trkpt lat="59.8591524" lon="17.5938016">
        <ele>14.557</ele>
        <time>2012-04-15T13:06:42Z</time>
      </trkpt>
      <trkpt lat="59.8590944" lon="17.5949749">
        <ele>15.0377</ele>
        <time>2012-04-15T13:06:48Z</time>
      </trkpt>
      <trkpt lat="59.8590587" lon="17.5958666">
        <ele>15.999</ele>
        <time>2012-04-15T13:06:54Z</time>
      </trkpt>
      <trkpt lat="59.8590199" lon="17.5967648">
        <ele>16.4797</ele>
        <time>2012-04-15T13:07:01Z</time>
      </trkpt>
      <trkpt lat="59.8590115" lon="17.5972321">
        <ele>16.9604</ele>
        <time>2012-04-15T13:07:05Z</time>
      </trkpt>
      <trkpt lat="59.8591086" lon="17.5976376">
        <ele>17.4412</ele>
        <time>2012-04-15T13:07:09Z</time>
      </trkpt>
      <trkpt lat="59.8591529" lon="17.5977174">
        <ele>16.9604</ele>
        <time>2012-04-15T13:07:10Z</time>
      </trkpt>
      <trkpt lat="59.8593104" lon="17.5982892">
        <ele>17.9218</ele>
        <time>2012-04-15T13:07:16Z</time>
      </trkpt>
      <trkpt lat="59.8593115" lon="17.5984956">
        <ele>18.8831</ele>
        <time>2012-04-15T13:07:18Z</time>
      </trkpt>
      <trkpt lat="59.8592115" lon="17.5990404">
        <ele>20.8057</ele>
        <time>2012-04-15T13:07:25Z</time>
      </trkpt>
      <trkpt lat="59.8590157" lon="17.5997024">
        <ele>22.7283</ele>
        <time>2012-04-15T13:07:35Z</time>
      </trkpt>
      <trkpt lat="59.8588078" lon="17.6003881">
        <ele>24.651</ele>
        <time>2012-04-15T13:07:45Z</time>
      </trkpt>
      <trkpt lat="59.8586127" lon="17.6010166">
        <ele>26.0929</ele>
        <time>2012-04-15T13:07:54Z</time>
      </trkpt>
      <trkpt lat="59.8583936" lon="17.6017036">
        <ele>28.9769</ele>
        <time>2012-04-15T13:08:05Z</time>
      </trkpt>
      <trkpt lat="59.8582097" lon="17.6021309">
        <ele>30.8995</ele>
        <time>2012-04-15T13:08:13Z</time>
      </trkpt>
      <trkpt lat="59.857989" lon="17.6026013">
        <ele>32.3416</ele>
        <time>2012-04-15T13:08:22Z</time>
      </trkpt>
      <trkpt lat="59.8578444" lon="17.6030418">
        <ele>33.3029</ele>
        <time>2012-04-15T13:08:29Z</time>
      </trkpt>
      <trkpt lat="59.8578296" lon="17.6034216">
        <ele>33.3029</ele>
        <time>2012-04-15T13:08:34Z</time>
      </trkpt>
      <trkpt lat="59.8577566" lon="17.603544">
        <ele>33.3029</ele>
        <time>2012-04-15T13:08:37Z</time>
      </trkpt>
      <trkpt lat="59.8576366" lon="17.6037094">
        <ele>33.7834</ele>
        <time>2012-04-15T13:08:41Z</time>
      </trkpt>
      <trkpt lat="59.8574877" lon="17.6039475">
        <ele>33.3029</ele>
        <time>2012-04-15T13:08:46Z</time>
      </trkpt>
      <trkpt lat="59.8573503" lon="17.6042216">
        <ele>33.3029</ele>
        <time>2012-04-15T13:08:51Z</time>
      </trkpt>
      <trkpt lat="59.8572828" lon="17.6043553">
        <ele>33.3029</ele>
        <time>2012-04-15T13:08:53Z</time>
      </trkpt>
      <trkpt lat="59.8571792" lon="17.6046945">
        <ele>34.2642</ele>
        <time>2012-04-15T13:08:57Z</time>
      </trkpt>
      <trkpt lat="59.8569997" lon="17.6049561">
        <ele>33.7834</ele>
        <time>2012-04-15T13:09:02Z</time>
      </trkpt>
      <trkpt lat="59.8568422" lon="17.6048483">
        <ele>31.8607</ele>
        <time>2012-04-15T13:09:05Z</time>
      </trkpt>
      <trkpt lat="59.8566095" lon="17.6048016">
        <ele>29.4575</ele>
        <time>2012-04-15T13:09:08Z</time>
      </trkpt>
      <trkpt lat="59.8562913" lon="17.604796">
        <ele>28.9769</ele>
        <time>2012-04-15T13:09:14Z</time>
      </trkpt>
      <trkpt lat="59.8561683" lon="17.6047002">
        <ele>28.0155</ele>
        <time>2012-04-15T13:09:17Z</time>
      </trkpt>
      <trkpt lat="59.8561009" lon="17.6046019">
        <ele>27.5349</ele>
        <time>2012-04-15T13:09:19Z</time>
      </trkpt>
      <trkpt lat="59.8559974" lon="17.6041939">
        <ele>29.4575</ele>
        <time>2012-04-15T13:09:24Z</time>
      </trkpt>
      <trkpt lat="59.8558403" lon="17.6035089">
        <ele>28.9769</ele>
        <time>2012-04-15T13:09:31Z</time>
      </trkpt>
      <trkpt lat="59.8556885" lon="17.6026297">
        <ele>28.9769</ele>
        <time>2012-04-15T13:09:39Z</time>
      </trkpt>
      <trkpt lat="59.8556733" lon="17.6025183">
        <ele>28.9769</ele>
        <time>2012-04-15T13:09:40Z</time>
      </trkpt>
      <trkpt lat="59.855641" lon="17.601592">
        <ele>28.4962</ele>
        <time>2012-04-15T13:09:48Z</time>
      </trkpt>
      <trkpt lat="59.8555881" lon="17.6007165">
        <ele>27.5349</ele>
        <time>2012-04-15T13:09:55Z</time>
      </trkpt>
      <trkpt lat="59.8554597" lon="17.5999703">
        <ele>25.6123</ele>
        <time>2012-04-15T13:10:00Z</time>
      </trkpt>
      <trkpt lat="59.8553042" lon="17.5992086">
        <ele>25.6123</ele>
        <time>2012-04-15T13:10:05Z</time>
      </trkpt>
      <trkpt lat="59.8551146" lon="17.5987492">
        <ele>25.1317</ele>
        <time>2012-04-15T13:10:09Z</time>
      </trkpt>
      <trkpt lat="59.855086" lon="17.5986108">
        <ele>24.651</ele>
        <time>2012-04-15T13:10:10Z</time>
      </trkpt>
      <trkpt lat="59.8549198" lon="17.5977112">
        <ele>24.1703</ele>
        <time>2012-04-15T13:10:16Z</time>
      </trkpt>
      <trkpt lat="59.8547326" lon="17.5966986">
        <ele>22.2476</ele>
        <time>2012-04-15T13:10:23Z</time>
      </trkpt>
      <trkpt lat="59.8546081" lon="17.5965398">
        <ele>21.767</ele>
        <time>2012-04-15T13:10:26Z</time>
      </trkpt>
      <trkpt lat="59.85455" lon="17.5965659">
        <ele>21.2864</ele>
        <time>2012-04-15T13:10:27Z</time>
      </trkpt>
      <trkpt lat="59.8541811" lon="17.5968737">
        <ele>20.325</ele>
        <time>2012-04-15T13:10:33Z</time>
      </trkpt>
      <trkpt lat="59.8539305" lon="17.5971625">
        <ele>20.325</ele>
        <time>2012-04-15T13:10:37Z</time>
      </trkpt>
      <trkpt lat="59.8538247" lon="17.5975662">
        <ele>21.767</ele>
        <time>2012-04-15T13:10:41Z</time>
      </trkpt>
      <trkpt lat="59.8537698" lon="17.5982751">
        <ele>24.1703</ele>
        <time>2012-04-15T13:10:49Z</time>
      </trkpt>
      <trkpt lat="59.8536756" lon="17.598628">
        <ele>26.0929</ele>
        <time>2012-04-15T13:10:54Z</time>
      </trkpt>
      <trkpt lat="59.8535236" lon="17.5987311">
        <ele>26.5736</ele>
        <time>2012-04-15T13:10:58Z</time>
      </trkpt>
      <trkpt lat="59.8533114" lon="17.5988325">
        <ele>28.4962</ele>
        <time>2012-04-15T13:11:04Z</time>
      </trkpt>
      <trkpt lat="59.8530887" lon="17.5990245">
        <ele>29.4575</ele>
        <time>2012-04-15T13:11:10Z</time>
      </trkpt>
      <trkpt lat="59.8529001" lon="17.5991643">
        <ele>28.4962</ele>
        <time>2012-04-15T13:11:15Z</time>
      </trkpt>
      <trkpt lat="59.8528655" lon="17.5991959">
        <ele>28.0155</ele>
        <time>2012-04-15T13:11:16Z</time>
      </trkpt>
      <trkpt lat="59.8526577" lon="17.5992218">
        <ele>28.0155</ele>
        <time>2012-04-15T13:11:21Z</time>
      </trkpt>
      <trkpt lat="59.8522738" lon="17.5991958">
        <ele>29.4575</ele>
        <time>2012-04-15T13:11:30Z</time>
      </trkpt>
      <trkpt lat="59.8521884" lon="17.5992154">
        <ele>29.9381</ele>
        <time>2012-04-15T13:11:32Z</time>
      </trkpt>
      <trkpt lat="59.8519604" lon="17.5991705">
        <ele>30.4188</ele>
        <time>2012-04-15T13:11:37Z</time>
      </trkpt>
      <trkpt lat="59.8516999" lon="17.598959">
        <ele>30.8995</ele>
        <time>2012-04-15T13:11:43Z</time>
      </trkpt>
      <trkpt lat="59.8516073" lon="17.5988985">
        <ele>31.3801</ele>
        <time>2012-04-15T13:11:45Z</time>
      </trkpt>
      <trkpt lat="59.8515046" lon="17.5988621">
        <ele>31.3801</ele>
        <time>2012-04-15T13:11:47Z</time>
      </trkpt>
      <trkpt lat="59.8512949" lon="17.5988312">
        <ele>31.8607</ele>
        <time>2012-04-15T13:11:51Z</time>
      </trkpt>
      <trkpt lat="59.8510808" lon="17.5986189">
        <ele>32.3416</ele>
        <time>2012-04-15T13:11:56Z</time>
      </trkpt>
      <trkpt lat="59.8509941" lon="17.5984178">
        <ele>31.8607</ele>
        <time>2012-04-15T13:11:59Z</time>
      </trkpt>
      <trkpt lat="59.8508709" lon="17.5981969">
        <ele>30.4188</ele>
        <time>2012-04-15T13:12:04Z</time>
      </trkpt>
      <trkpt lat="59.85079" lon="17.5981199">
        <ele>30.8995</ele>
        <time>2012-04-15T13:12:10Z</time>
      </trkpt>
      <trkpt lat="59.8506346" lon="17.5979771">
        <ele>30.8995</ele>
        <time>2012-04-15T13:12:15Z</time>
      </trkpt>
      <trkpt lat="59.8502976" lon="17.5977809">
        <ele>32.8223</ele>
        <time>2012-04-15T13:12:22Z</time>
      </trkpt>
      <trkpt lat="59.8501588" lon="17.5977599">
        <ele>33.3029</ele>
        <time>2012-04-15T13:12:25Z</time>
      </trkpt>
      <trkpt lat="59.8500034" lon="17.5977825">
        <ele>34.7449</ele>
        <time>2012-04-15T13:12:28Z</time>
      </trkpt>
      <trkpt lat="59.8497879" lon="17.5978604">
        <ele>36.1868</ele>
        <time>2012-04-15T13:12:32Z</time>
      </trkpt>
      <trkpt lat="59.8495604" lon="17.597804">
        <ele>36.6675</ele>
        <time>2012-04-15T13:12:36Z</time>
      </trkpt>
      <trkpt lat="59.8491418" lon="17.597579">
        <ele>35.7061</ele>
        <time>2012-04-15T13:12:43Z</time>
      </trkpt>
      <trkpt lat="59.8488849" lon="17.5975375">
        <ele>35.2255</ele>
        <time>2012-04-15T13:12:48Z</time>
      </trkpt>
      <trkpt lat="59.8487337" lon="17.5976403">
        <ele>34.2642</ele>
        <time>2012-04-15T13:12:52Z</time>
      </trkpt>
      <trkpt lat="59.8486953" lon="17.5977054">
        <ele>34.2642</ele>
        <time>2012-04-15T13:12:53Z</time>
      </trkpt>
      <trkpt lat="59.8486211" lon="17.5978517">
        <ele>34.2642</ele>
        <time>2012-04-15T13:12:55Z</time>
      </trkpt>
      <trkpt lat="59.8484722" lon="17.5982168">
        <ele>32.8223</ele>
        <time>2012-04-15T13:13:00Z</time>
      </trkpt>
      <trkpt lat="59.8483375" lon="17.5981593">
        <ele>31.8607</ele>
        <time>2012-04-15T13:13:03Z</time>
      </trkpt>
      <trkpt lat="59.8481406" lon="17.5980954">
        <ele>28.0155</ele>
        <time>2012-04-15T13:13:08Z</time>
      </trkpt>
      <trkpt lat="59.8479919" lon="17.5982471">
        <ele>25.1317</ele>
        <time>2012-04-15T13:13:11Z</time>
      </trkpt>
      <trkpt lat="59.8478971" lon="17.5982725">
        <ele>23.209</ele>
        <time>2012-04-15T13:13:12Z</time>
      </trkpt>
      <trkpt lat="59.8473999" lon="17.5983537">
        <ele>19.8444</ele>
        <time>2012-04-15T13:13:17Z</time>
      </trkpt>
      <trkpt lat="59.8473116" lon="17.5983785">
        <ele>19.3638</ele>
        <time>2012-04-15T13:13:18Z</time>
      </trkpt>
      <trkpt lat="59.847072" lon="17.5984041">
        <ele>18.4023</ele>
        <time>2012-04-15T13:13:22Z</time>
      </trkpt>
      <trkpt lat="59.8469595" lon="17.5986377">
        <ele>18.4023</ele>
        <time>2012-04-15T13:13:25Z</time>
      </trkpt>
      <trkpt lat="59.8468385" lon="17.5990441">
        <ele>18.4023</ele>
        <time>2012-04-15T13:13:29Z</time>
      </trkpt>
      <trkpt lat="59.8465984" lon="17.5993118">
        <ele>18.4023</ele>
        <time>2012-04-15T13:13:34Z</time>
      </trkpt>
      <trkpt lat="59.8464364" lon="17.5992949">
        <ele>17.9218</ele>
        <time>2012-04-15T13:13:37Z</time>
      </trkpt>
      <trkpt lat="59.8461951" lon="17.5993832">
        <ele>16.4797</ele>
        <time>2012-04-15T13:13:41Z</time>
      </trkpt>
      <trkpt lat="59.8459299" lon="17.5997443">
        <ele>15.999</ele>
        <time>2012-04-15T13:13:46Z</time>
      </trkpt>
      <trkpt lat="59.8458812" lon="17.5998246">
        <ele>15.999</ele>
        <time>2012-04-15T13:13:47Z</time>
      </trkpt>
      <trkpt lat="59.8454657" lon="17.6002723">
        <ele>16.4797</ele>
        <time>2012-04-15T13:13:55Z</time>
      </trkpt>
      <trkpt lat="59.8451202" lon="17.6006193">
        <ele>16.4797</ele>
        <time>2012-04-15T13:14:02Z</time>
      </trkpt>
      <trkpt lat="59.8449003" lon="17.6007246">
        <ele>16.4797</ele>
        <time>2012-04-15T13:14:06Z</time>
      </trkpt>
      <trkpt lat="59.8447315" lon="17.6007348">
        <ele>16.4797</ele>
        <time>2012-04-15T13:14:09Z</time>
      </trkpt>
      <trkpt lat="59.8442711" lon="17.6007486">
        <ele>15.999</ele>
        <time>2012-04-15T13:14:17Z</time>
      </trkpt>
      <trkpt lat="59.8442141" lon="17.600771">
        <ele>16.4797</ele>
        <time>2012-04-15T13:14:18Z</time>
      </trkpt>
      <trkpt lat="59.8439462" lon="17.6009406">
        <ele>16.9604</ele>
        <time>2012-04-15T13:14:23Z</time>
      </trkpt>
      <trkpt lat="59.8437088" lon="17.6008983">
        <ele>17.9218</ele>
        <time>2012-04-15T13:14:28Z</time>
      </trkpt>
      <trkpt lat="59.8436669" lon="17.6008492">
        <ele>18.4023</ele>
        <time>2012-04-15T13:14:29Z</time>
      </trkpt>
      <trkpt lat="59.8435811" lon="17.6007431">
        <ele>18.4023</ele>
        <time>2012-04-15T13:14:31Z</time>
      </trkpt>
      <trkpt lat="59.8433733" lon="17.6006986">
        <ele>18.8831</ele>
        <time>2012-04-15T13:14:35Z</time>
      </trkpt>
      <trkpt lat="59.843324" lon="17.6007351">
        <ele>19.3638</ele>
        <time>2012-04-15T13:14:36Z</time>
      </trkpt>
      <trkpt lat="59.8429563" lon="17.6010968">
        <ele>22.7283</ele>
        <time>2012-04-15T13:14:45Z</time>
      </trkpt>
      <trkpt lat="59.8428663" lon="17.601258">
        <ele>24.1703</ele>
        <time>2012-04-15T13:14:48Z</time>
      </trkpt>
      <trkpt lat="59.8428186" lon="17.6013839">
        <ele>24.651</ele>
        <time>2012-04-15T13:14:50Z</time>
      </trkpt>
      <trkpt lat="59.8426882" lon="17.6017461">
        <ele>27.5349</ele>
        <time>2012-04-15T13:14:55Z</time>
      </trkpt>
      <trkpt lat="59.8426274" lon="17.6019568">
        <ele>28.0155</ele>
        <time>2012-04-15T13:14:58Z</time>
      </trkpt>
      <trkpt lat="59.842646" lon="17.6021517">
        <ele>27.0543</ele>
        <time>2012-04-15T13:15:03Z</time>
      </trkpt>
      <trkpt lat="59.8427067" lon="17.6022679">
        <ele>27.5349</ele>
        <time>2012-04-15T13:15:06Z</time>
      </trkpt>
      <trkpt lat="59.8428206" lon="17.6026699">
        <ele>28.4962</ele>
        <time>2012-04-15T13:15:13Z</time>
      </trkpt>
      <trkpt lat="59.8429589" lon="17.6031475">
        <ele>30.4188</ele>
        <time>2012-04-15T13:15:20Z</time>
      </trkpt>
      <trkpt lat="59.8430107" lon="17.6036993">
        <ele>29.9381</ele>
        <time>2012-04-15T13:15:27Z</time>
      </trkpt>
      <trkpt lat="59.8429987" lon="17.6043858">
        <ele>29.4575</ele>
        <time>2012-04-15T13:15:35Z</time>
      </trkpt>
      <trkpt lat="59.8429828" lon="17.6047033">
        <ele>29.9381</ele>
        <time>2012-04-15T13:15:39Z</time>
      </trkpt>
      <trkpt lat="59.8429366" lon="17.605099">
        <ele>30.8995</ele>
        <time>2012-04-15T13:15:44Z</time>
      </trkpt>
      <trkpt lat="59.8428708" lon="17.605388">
        <ele>31.8607</ele>
        <time>2012-04-15T13:15:48Z</time>
      </trkpt>
      <trkpt lat="59.8427439" lon="17.6058435">
        <ele>32.3416</ele>
        <time>2012-04-15T13:15:55Z</time>
      </trkpt>
      <trkpt lat="59.8426229" lon="17.6061049">
        <ele>38.1094</ele>
        <time>2012-04-15T13:16:00Z</time>
      </trkpt>
      <trkpt lat="59.8424959" lon="17.6062947">
        <ele>40.9934</ele>
        <time>2012-04-15T13:16:04Z</time>
      </trkpt>
      <trkpt lat="59.8423701" lon="17.606398">
        <ele>45.3192</ele>
        <time>2012-04-15T13:16:09Z</time>
      </trkpt>
      <trkpt lat="59.8423522" lon="17.6064018">
        <ele>45.7999</ele>
        <time>2012-04-15T13:16:10Z</time>
      </trkpt>
      <trkpt lat="59.8421748" lon="17.6065695">
        <ele>48.684</ele>
        <time>2012-04-15T13:16:16Z</time>
      </trkpt>
      <trkpt lat="59.8420559" lon="17.606577">
        <ele>48.684</ele>
        <time>2012-04-15T13:16:21Z</time>
      </trkpt>
      <trkpt lat="59.8419499" lon="17.6066411">
        <ele>51.0872</ele>
        <time>2012-04-15T13:16:25Z</time>
      </trkpt>
      <trkpt lat="59.8416643" lon="17.6069323">
        <ele>50.126</ele>
        <time>2012-04-15T13:16:31Z</time>
      </trkpt>
      <trkpt lat="59.8414624" lon="17.6068788">
        <ele>49.6453</ele>
        <time>2012-04-15T13:16:36Z</time>
      </trkpt>
      <trkpt lat="59.8413569" lon="17.6068111">
        <ele>50.126</ele>
        <time>2012-04-15T13:16:38Z</time>
      </trkpt>
      <trkpt lat="59.8409435" lon="17.6070054">
        <ele>53.9712</ele>
        <time>2012-04-15T13:16:43Z</time>
      </trkpt>
      <trkpt lat="59.8403713" lon="17.6077252">
        <ele>49.6453</ele>
        <time>2012-04-15T13:16:53Z</time>
      </trkpt>
      <trkpt lat="59.8401561" lon="17.6082487">
        <ele>49.1646</ele>
        <time>2012-04-15T13:16:58Z</time>
      </trkpt>
      <trkpt lat="59.8399105" lon="17.6091627">
        <ele>46.7612</ele>
        <time>2012-04-15T13:17:06Z</time>
      </trkpt>
      <trkpt lat="59.8397141" lon="17.6099575">
        <ele>45.3192</ele>
        <time>2012-04-15T13:17:14Z</time>
      </trkpt>
      <trkpt lat="59.8395655" lon="17.6105813">
        <ele>44.358</ele>
        <time>2012-04-15T13:17:21Z</time>
      </trkpt>
      <trkpt lat="59.8394045" lon="17.6112409">
        <ele>42.916</ele>
        <time>2012-04-15T13:17:29Z</time>
      </trkpt>
      <trkpt lat="59.8393858" lon="17.6113254">
        <ele>42.916</ele>
        <time>2012-04-15T13:17:30Z</time>
      </trkpt>
      <trkpt lat="59.8393261" lon="17.611682">
        <ele>43.3966</ele>
        <time>2012-04-15T13:17:34Z</time>
      </trkpt>
      <trkpt lat="59.8392462" lon="17.612362">
        <ele>43.3966</ele>
        <time>2012-04-15T13:17:42Z</time>
      </trkpt>
      <trkpt lat="59.8390882" lon="17.612688">
        <ele>43.8773</ele>
        <time>2012-04-15T13:17:48Z</time>
      </trkpt>
      <trkpt lat="59.8389486" lon="17.6126421">
        <ele>43.3966</ele>
        <time>2012-04-15T13:17:51Z</time>
      </trkpt>
      <trkpt lat="59.8388991" lon="17.6125967">
        <ele>42.916</ele>
        <time>2012-04-15T13:17:52Z</time>
      </trkpt>
      <trkpt lat="59.8385263" lon="17.612201">
        <ele>41.9547</ele>
        <time>2012-04-15T13:17:59Z</time>
      </trkpt>
      <trkpt lat="59.8384762" lon="17.6121265">
        <ele>41.9547</ele>
        <time>2012-04-15T13:18:00Z</time>
      </trkpt>
      <trkpt lat="59.8382469" lon="17.6119253">
        <ele>41.9547</ele>
        <time>2012-04-15T13:18:04Z</time>
      </trkpt>
      <trkpt lat="59.8381243" lon="17.6118472">
        <ele>42.916</ele>
        <time>2012-04-15T13:18:06Z</time>
      </trkpt>
      <trkpt lat="59.8377094" lon="17.6114669">
        <ele>45.7999</ele>
        <time>2012-04-15T13:18:14Z</time>
      </trkpt>
      <trkpt lat="59.8373912" lon="17.6113306">
        <ele>47.7225</ele>
        <time>2012-04-15T13:18:20Z</time>
      </trkpt>
      <trkpt lat="59.8372246" lon="17.6113127">
        <ele>48.2034</ele>
        <time>2012-04-15T13:18:23Z</time>
      </trkpt>
      <trkpt lat="59.8368264" lon="17.6114042">
        <ele>47.7225</ele>
        <time>2012-04-15T13:18:30Z</time>
      </trkpt>
      <trkpt lat="59.8364018" lon="17.6116536">
        <ele>46.2806</ele>
        <time>2012-04-15T13:18:37Z</time>
      </trkpt>
      <trkpt lat="59.8360881" lon="17.6119642">
        <ele>46.2806</ele>
        <time>2012-04-15T13:18:42Z</time>
      </trkpt>
      <trkpt lat="59.836028" lon="17.6120461">
        <ele>45.7999</ele>
        <time>2012-04-15T13:18:43Z</time>
      </trkpt>
      <trkpt lat="59.835515" lon="17.6125313">
        <ele>45.3192</ele>
        <time>2012-04-15T13:18:51Z</time>
      </trkpt>
      <trkpt lat="59.8352235" lon="17.6127955">
        <ele>45.7999</ele>
        <time>2012-04-15T13:18:56Z</time>
      </trkpt>
      <trkpt lat="59.8349402" lon="17.613035">
        <ele>42.916</ele>
        <time>2012-04-15T13:19:01Z</time>
      </trkpt>
      <trkpt lat="59.8345075" lon="17.6134091">
        <ele>42.4354</ele>
        <time>2012-04-15T13:19:08Z</time>
      </trkpt>
      <trkpt lat="59.833992" lon="17.6138768">
        <ele>41.474</ele>
        <time>2012-04-15T13:19:16Z</time>
      </trkpt>
      <trkpt lat="59.8335815" lon="17.6142381">
        <ele>41.474</ele>
        <time>2012-04-15T13:19:23Z</time>
      </trkpt>
      <trkpt lat="59.8330945" lon="17.6146605">
        <ele>43.3966</ele>
        <time>2012-04-15T13:19:32Z</time>
      </trkpt>
      <trkpt lat="59.8326495" lon="17.6150602">
        <ele>43.3966</ele>
        <time>2012-04-15T13:19:41Z</time>
      </trkpt>
      <trkpt lat="59.8322072" lon="17.6153945">
        <ele>42.4354</ele>
        <time>2012-04-15T13:19:49Z</time>
      </trkpt>
      <trkpt lat="59.8317288" lon="17.6156349">
        <ele>40.5128</ele>
        <time>2012-04-15T13:19:57Z</time>
      </trkpt>
      <trkpt lat="59.8312671" lon="17.6158809">
        <ele>40.0321</ele>
        <time>2012-04-15T13:20:05Z</time>
      </trkpt>
      <trkpt lat="59.8308423" lon="17.6161789">
        <ele>40.5128</ele>
        <time>2012-04-15T13:20:13Z</time>
      </trkpt>
      <trkpt lat="59.8303784" lon="17.6166775">
        <ele>40.5128</ele>
        <time>2012-04-15T13:20:22Z</time>
      </trkpt>
      <trkpt lat="59.8298896" lon="17.6172096">
        <ele>40.5128</ele>
        <time>2012-04-15T13:20:31Z</time>
      </trkpt>
      <trkpt lat="59.8294652" lon="17.6176852">
        <ele>41.474</ele>
        <time>2012-04-15T13:20:39Z</time>
      </trkpt>
      <trkpt lat="59.8290469" lon="17.6181415">
        <ele>40.9934</ele>
        <time>2012-04-15T13:20:47Z</time>
      </trkpt>
      <trkpt lat="59.8287078" lon="17.618427">
        <ele>40.9934</ele>
        <time>2012-04-15T13:20:53Z</time>
      </trkpt>
      <trkpt lat="59.8282127" lon="17.6187144">
        <ele>39.5513</ele>
        <time>2012-04-15T13:21:01Z</time>
      </trkpt>
      <trkpt lat="59.8277957" lon="17.6188181">
        <ele>39.0707</ele>
        <time>2012-04-15T13:21:08Z</time>
      </trkpt>
      <trkpt lat="59.827431" lon="17.6188337">
        <ele>39.5513</ele>
        <time>2012-04-15T13:21:14Z</time>
      </trkpt>
      <trkpt lat="59.8270623" lon="17.6187699">
        <ele>38.5901</ele>
        <time>2012-04-15T13:21:20Z</time>
      </trkpt>
      <trkpt lat="59.8265136" lon="17.6185604">
        <ele>37.6287</ele>
        <time>2012-04-15T13:21:28Z</time>
      </trkpt>
      <trkpt lat="59.8261138" lon="17.6182855">
        <ele>36.1868</ele>
        <time>2012-04-15T13:21:34Z</time>
      </trkpt>
      <trkpt lat="59.8255968" lon="17.6178142">
        <ele>35.2255</ele>
        <time>2012-04-15T13:21:42Z</time>
      </trkpt>
      <trkpt lat="59.825532" lon="17.6177371">
        <ele>35.2255</ele>
        <time>2012-04-15T13:21:43Z</time>
      </trkpt>
      <trkpt lat="59.8251115" lon="17.6173801">
        <ele>34.7449</ele>
        <time>2012-04-15T13:21:49Z</time>
      </trkpt>
      <trkpt lat="59.8245603" lon="17.6168886">
        <ele>35.2255</ele>
        <time>2012-04-15T13:21:57Z</time>
      </trkpt>
      <trkpt lat="59.8239929" lon="17.616386">
        <ele>35.2255</ele>
        <time>2012-04-15T13:22:06Z</time>
      </trkpt>
      <trkpt lat="59.8235046" lon="17.616004">
        <ele>34.7449</ele>
        <time>2012-04-15T13:22:14Z</time>
      </trkpt>
      <trkpt lat="59.8232662" lon="17.6158742">
        <ele>34.7449</ele>
        <time>2012-04-15T13:22:18Z</time>
      </trkpt>
      <trkpt lat="59.8229844" lon="17.6156686">
        <ele>34.2642</ele>
        <time>2012-04-15T13:22:23Z</time>
      </trkpt>
      <trkpt lat="59.8228103" lon="17.615568">
        <ele>34.2642</ele>
        <time>2012-04-15T13:22:26Z</time>
      </trkpt>
      <trkpt lat="59.8225598" lon="17.6155153">
        <ele>34.2642</ele>
        <time>2012-04-15T13:22:30Z</time>
      </trkpt>
      <trkpt lat="59.8225007" lon="17.6155412">
        <ele>34.2642</ele>
        <time>2012-04-15T13:22:31Z</time>
      </trkpt>
      <trkpt lat="59.8220992" lon="17.6155547">
        <ele>31.3801</ele>
        <time>2012-04-15T13:22:37Z</time>
      </trkpt>
      <trkpt lat="59.8220324" lon="17.6155834">
        <ele>31.3801</ele>
        <time>2012-04-15T13:22:38Z</time>
      </trkpt>
      <trkpt lat="59.8216811" lon="17.6157779">
        <ele>31.8607</ele>
        <time>2012-04-15T13:22:44Z</time>
      </trkpt>
      <trkpt lat="59.8215921" lon="17.6157927">
        <ele>31.8607</ele>
        <time>2012-04-15T13:22:46Z</time>
      </trkpt>
      <trkpt lat="59.8214526" lon="17.6158201">
        <ele>32.3416</ele>
        <time>2012-04-15T13:22:49Z</time>
      </trkpt>
      <trkpt lat="59.8213021" lon="17.615984">
        <ele>32.3416</ele>
        <time>2012-04-15T13:22:52Z</time>
      </trkpt>
      <trkpt lat="59.8209162" lon="17.6163145">
        <ele>31.8607</ele>
        <time>2012-04-15T13:22:58Z</time>
      </trkpt>
      <trkpt lat="59.8205175" lon="17.616598">
        <ele>31.3801</ele>
        <time>2012-04-15T13:23:04Z</time>
      </trkpt>
      <trkpt lat="59.8201725" lon="17.6166537">
        <ele>30.8995</ele>
        <time>2012-04-15T13:23:09Z</time>
      </trkpt>
      <trkpt lat="59.8199702" lon="17.6167352">
        <ele>30.8995</ele>
        <time>2012-04-15T13:23:12Z</time>
      </trkpt>
      <trkpt lat="59.8197324" lon="17.6170675">
        <ele>30.8995</ele>
        <time>2012-04-15T13:23:16Z</time>
      </trkpt>
      <trkpt lat="59.8195698" lon="17.617061">
        <ele>30.8995</ele>
        <time>2012-04-15T13:23:20Z</time>
      </trkpt>
      <trkpt lat="59.8195252" lon="17.616923">
        <ele>30.8995</ele>
        <time>2012-04-15T13:23:22Z</time>
      </trkpt>
      <trkpt lat="59.8193184" lon="17.6163948">
        <ele>29.4575</ele>
        <time>2012-04-15T13:23:29Z</time>
      </trkpt>
      <trkpt lat="59.8191751" lon="17.616099">
        <ele>29.9381</ele>
        <time>2012-04-15T13:23:34Z</time>
      </trkpt>
      <trkpt lat="59.8189761" lon="17.6157605">
        <ele>31.8607</ele>
        <time>2012-04-15T13:23:40Z</time>
      </trkpt>
      <trkpt lat="59.8187123" lon="17.615395">
        <ele>31.3801</ele>
        <time>2012-04-15T13:23:46Z</time>
      </trkpt>
      <trkpt lat="59.8185344" lon="17.6150785">
        <ele>29.9381</ele>
        <time>2012-04-15T13:23:51Z</time>
      </trkpt>
      <trkpt lat="59.8184598" lon="17.6149382">
        <ele>29.4575</ele>
        <time>2012-04-15T13:23:53Z</time>
      </trkpt>
      <trkpt lat="59.8183064" lon="17.6149179">
        <ele>29.9381</ele>
        <time>2012-04-15T13:23:57Z</time>
      </trkpt>
      <trkpt lat="59.8182462" lon="17.6149804">
        <ele>29.4575</ele>
        <time>2012-04-15T13:24:01Z</time>
      </trkpt>
      <trkpt lat="59.8182189" lon="17.6149629">
        <ele>28.9769</ele>
        <time>2012-04-15T13:24:06Z</time>
      </trkpt>
      <trkpt lat="59.8182015" lon="17.6149359">
        <ele>28.0155</ele>
        <time>2012-04-15T13:24:10Z</time>
      </trkpt>
      <trkpt lat="59.8181155" lon="17.6147294">
        <ele>27.0543</ele>
        <time>2012-04-15T13:24:15Z</time>
      </trkpt>
      <trkpt lat="59.818042" lon="17.6142767">
        <ele>27.5349</ele>
        <time>2012-04-15T13:24:20Z</time>
      </trkpt>
      <trkpt lat="59.8179396" lon="17.6139932">
        <ele>27.0543</ele>
        <time>2012-04-15T13:24:24Z</time>
      </trkpt>
      <trkpt lat="59.8176951" lon="17.6135622">
        <ele>25.1317</ele>
        <time>2012-04-15T13:24:30Z</time>
      </trkpt>
      <trkpt lat="59.8173136" lon="17.6129203">
        <ele>23.6896</ele>
        <time>2012-04-15T13:24:38Z</time>
      </trkpt>
      <trkpt lat="59.8169222" lon="17.6124853">
        <ele>22.7283</ele>
        <time>2012-04-15T13:24:45Z</time>
      </trkpt>
      <trkpt lat="59.8166331" lon="17.6123143">
        <ele>21.767</ele>
        <time>2012-04-15T13:24:50Z</time>
      </trkpt>
      <trkpt lat="59.8165028" lon="17.6122519">
        <ele>21.767</ele>
        <time>2012-04-15T13:24:52Z</time>
      </trkpt>
      <trkpt lat="59.816379" lon="17.6121371">
        <ele>21.767</ele>
        <time>2012-04-15T13:24:54Z</time>
      </trkpt>
      <trkpt lat="59.8159601" lon="17.6116541">
        <ele>21.2864</ele>
        <time>2012-04-15T13:25:01Z</time>
      </trkpt>
      <trkpt lat="59.8155687" lon="17.6112655">
        <ele>19.8444</ele>
        <time>2012-04-15T13:25:08Z</time>
      </trkpt>
      <trkpt lat="59.8151289" lon="17.6110645">
        <ele>18.8831</ele>
        <time>2012-04-15T13:25:15Z</time>
      </trkpt>
      <trkpt lat="59.8147418" lon="17.6109008">
        <ele>18.4023</ele>
        <time>2012-04-15T13:25:21Z</time>
      </trkpt>
      <trkpt lat="59.8143287" lon="17.6108701">
        <ele>17.4412</ele>
        <time>2012-04-15T13:25:27Z</time>
      </trkpt>
      <trkpt lat="59.8139494" lon="17.6109749">
        <ele>15.999</ele>
        <time>2012-04-15T13:25:33Z</time>
      </trkpt>
      <trkpt lat="59.813551" lon="17.6109764">
        <ele>13.1151</ele>
        <time>2012-04-15T13:25:39Z</time>
      </trkpt>
      <trkpt lat="59.8130243" lon="17.6110381">
        <ele>12.1538</ele>
        <time>2012-04-15T13:25:46Z</time>
      </trkpt>
      <trkpt lat="59.8124486" lon="17.6109304">
        <ele>8.78918</ele>
        <time>2012-04-15T13:25:53Z</time>
      </trkpt>
      <trkpt lat="59.8119243" lon="17.6106846">
        <ele>8.78918</ele>
        <time>2012-04-15T13:26:00Z</time>
      </trkpt>
      <trkpt lat="59.8116182" lon="17.6105079">
        <ele>8.78918</ele>
        <time>2012-04-15T13:26:05Z</time>
      </trkpt>
      <trkpt lat="59.8111335" lon="17.6101859">
        <ele>9.2699</ele>
        <time>2012-04-15T13:26:13Z</time>
      </trkpt>
      <trkpt lat="59.8106564" lon="17.6098001">
        <ele>9.2699</ele>
        <time>2012-04-15T13:26:21Z</time>
      </trkpt>
      <trkpt lat="59.810214" lon="17.6094037">
        <ele>9.2699</ele>
        <time>2012-04-15T13:26:29Z</time>
      </trkpt>
      <trkpt lat="59.8097939" lon="17.6090247">
        <ele>9.75061</ele>
        <time>2012-04-15T13:26:37Z</time>
      </trkpt>
      <trkpt lat="59.8097411" lon="17.6089691">
        <ele>9.75061</ele>
        <time>2012-04-15T13:26:38Z</time>
      </trkpt>
      <trkpt lat="59.8091872" lon="17.6084781">
        <ele>9.2699</ele>
        <time>2012-04-15T13:26:48Z</time>
      </trkpt>
      <trkpt lat="59.8090144" lon="17.6083817">
        <ele>8.78918</ele>
        <time>2012-04-15T13:26:51Z</time>
      </trkpt>
      <trkpt lat="59.8086874" lon="17.6080559">
        <ele>8.30859</ele>
        <time>2012-04-15T13:26:57Z</time>
      </trkpt>
      <trkpt lat="59.8084174" lon="17.6078015">
        <ele>8.30859</ele>
        <time>2012-04-15T13:27:02Z</time>
      </trkpt>
      <trkpt lat="59.8081668" lon="17.6074783">
        <ele>8.30859</ele>
        <time>2012-04-15T13:27:07Z</time>
      </trkpt>
      <trkpt lat="59.8080609" lon="17.607375">
        <ele>8.78918</ele>
        <time>2012-04-15T13:27:09Z</time>
      </trkpt>
      <trkpt lat="59.8076378" lon="17.6071324">
        <ele>8.30859</ele>
        <time>2012-04-15T13:27:17Z</time>
      </trkpt>
      <trkpt lat="59.807235" lon="17.606953">
        <ele>8.78918</ele>
        <time>2012-04-15T13:27:25Z</time>
      </trkpt>
      <trkpt lat="59.8068379" lon="17.6068048">
        <ele>7.82788</ele>
        <time>2012-04-15T13:27:33Z</time>
      </trkpt>
      <trkpt lat="59.8065005" lon="17.606624">
        <ele>5.90527</ele>
        <time>2012-04-15T13:27:40Z</time>
      </trkpt>
      <trkpt lat="59.8061742" lon="17.6064086">
        <ele>1.57935</ele>
        <time>2012-04-15T13:27:47Z</time>
      </trkpt>
      <trkpt lat="59.805802" lon="17.606021">
        <ele>8.30859</ele>
        <time>2012-04-15T13:27:54Z</time>
      </trkpt>
      <trkpt lat="59.8054697" lon="17.6057937">
        <ele>9.75061</ele>
        <time>2012-04-15T13:28:00Z</time>
      </trkpt>
      <trkpt lat="59.805224" lon="17.605576">
        <ele>10.2312</ele>
        <time>2012-04-15T13:28:04Z</time>
      </trkpt>
      <trkpt lat="59.8047579" lon="17.6053908">
        <ele>9.2699</ele>
        <time>2012-04-15T13:28:11Z</time>
      </trkpt>
      <trkpt lat="59.8043926" lon="17.6053664">
        <ele>9.2699</ele>
        <time>2012-04-15T13:28:17Z</time>
      </trkpt>
      <trkpt lat="59.8039825" lon="17.6054602">
        <ele>8.78918</ele>
        <time>2012-04-15T13:28:24Z</time>
      </trkpt>
      <trkpt lat="59.8036719" lon="17.6056089">
        <ele>10.7118</ele>
        <time>2012-04-15T13:28:30Z</time>
      </trkpt>
      <trkpt lat="59.803286" lon="17.6059516">
        <ele>10.2312</ele>
        <time>2012-04-15T13:28:38Z</time>
      </trkpt>
      <trkpt lat="59.8029301" lon="17.6063883">
        <ele>11.1925</ele>
        <time>2012-04-15T13:28:46Z</time>
      </trkpt>
      <trkpt lat="59.8026153" lon="17.6068929">
        <ele>12.1538</ele>
        <time>2012-04-15T13:28:53Z</time>
      </trkpt>
      <trkpt lat="59.8021776" lon="17.6075965">
        <ele>16.4797</ele>
        <time>2012-04-15T13:29:03Z</time>
      </trkpt>
      <trkpt lat="59.80196" lon="17.6079606">
        <ele>16.9604</ele>
        <time>2012-04-15T13:29:09Z</time>
      </trkpt>
      <trkpt lat="59.8019244" lon="17.608012">
        <ele>16.9604</ele>
        <time>2012-04-15T13:29:10Z</time>
      </trkpt>
      <trkpt lat="59.8017172" lon="17.6083833">
        <ele>16.9604</ele>
        <time>2012-04-15T13:29:16Z</time>
      </trkpt>
      <trkpt lat="59.801501" lon="17.6088187">
        <ele>16.4797</ele>
        <time>2012-04-15T13:29:22Z</time>
      </trkpt>
      <trkpt lat="59.8013" lon="17.6093583">
        <ele>15.999</ele>
        <time>2012-04-15T13:29:28Z</time>
      </trkpt>
      <trkpt lat="59.8012514" lon="17.6095595">
        <ele>15.999</ele>
        <time>2012-04-15T13:29:30Z</time>
      </trkpt>
      <trkpt lat="59.8010942" lon="17.6100798">
        <ele>15.0377</ele>
        <time>2012-04-15T13:29:35Z</time>
      </trkpt>
      <trkpt lat="59.8009129" lon="17.6109749">
        <ele>15.5184</ele>
        <time>2012-04-15T13:29:43Z</time>
      </trkpt>
      <trkpt lat="59.8007861" lon="17.6116374">
        <ele>16.4797</ele>
        <time>2012-04-15T13:29:50Z</time>
      </trkpt>
      <trkpt lat="59.8006866" lon="17.6121709">
        <ele>17.9218</ele>
        <time>2012-04-15T13:29:57Z</time>
      </trkpt>
      <trkpt lat="59.8005931" lon="17.6126293">
        <ele>19.3638</ele>
        <time>2012-04-15T13:30:04Z</time>
      </trkpt>
      <trkpt lat="59.8004597" lon="17.6132872">
        <ele>22.2476</ele>
        <time>2012-04-15T13:30:14Z</time>
      </trkpt>
      <trkpt lat="59.8003357" lon="17.6138641">
        <ele>24.651</ele>
        <time>2012-04-15T13:30:22Z</time>
      </trkpt>
      <trkpt lat="59.800163" lon="17.6145507">
        <ele>26.0929</ele>
        <time>2012-04-15T13:30:31Z</time>
      </trkpt>
      <trkpt lat="59.8000537" lon="17.6149237">
        <ele>26.5736</ele>
        <time>2012-04-15T13:30:36Z</time>
      </trkpt>
      <trkpt lat="59.799949" lon="17.6151525">
        <ele>26.5736</ele>
        <time>2012-04-15T13:30:40Z</time>
      </trkpt>
      <trkpt lat="59.7997823" lon="17.6155658">
        <ele>27.0543</ele>
        <time>2012-04-15T13:30:47Z</time>
      </trkpt>
      <trkpt lat="59.7996906" lon="17.6158777">
        <ele>27.5349</ele>
        <time>2012-04-15T13:30:51Z</time>
      </trkpt>
      <trkpt lat="59.7995289" lon="17.6161902">
        <ele>25.6123</ele>
        <time>2012-04-15T13:30:55Z</time>
      </trkpt>
      <trkpt lat="59.7991672" lon="17.6166051">
        <ele>24.1703</ele>
        <time>2012-04-15T13:31:02Z</time>
      </trkpt>
      <trkpt lat="59.7987394" lon="17.6170325">
        <ele>23.209</ele>
        <time>2012-04-15T13:31:10Z</time>
      </trkpt>
      <trkpt lat="59.7982511" lon="17.6175053">
        <ele>22.7283</ele>
        <time>2012-04-15T13:31:19Z</time>
      </trkpt>
      <trkpt lat="59.797829" lon="17.6178849">
        <ele>24.1703</ele>
        <time>2012-04-15T13:31:27Z</time>
      </trkpt>
      <trkpt lat="59.7973311" lon="17.6183582">
        <ele>23.209</ele>
        <time>2012-04-15T13:31:36Z</time>
      </trkpt>
      <trkpt lat="59.7969296" lon="17.6186832">
        <ele>23.6896</ele>
        <time>2012-04-15T13:31:43Z</time>
      </trkpt>
      <trkpt lat="59.7964187" lon="17.61909">
        <ele>24.651</ele>
        <time>2012-04-15T13:31:52Z</time>
      </trkpt>
      <trkpt lat="59.7963146" lon="17.6191843">
        <ele>24.651</ele>
        <time>2012-04-15T13:31:54Z</time>
      </trkpt>
      <trkpt lat="59.7960357" lon="17.6193328">
        <ele>24.651</ele>
        <time>2012-04-15T13:31:59Z</time>
      </trkpt>
      <trkpt lat="59.7955445" lon="17.6197685">
        <ele>24.651</ele>
        <time>2012-04-15T13:32:08Z</time>
      </trkpt>
      <trkpt lat="59.7950261" lon="17.6202686">
        <ele>22.2476</ele>
        <time>2012-04-15T13:32:17Z</time>
      </trkpt>
      <trkpt lat="59.7945089" lon="17.6207538">
        <ele>21.2864</ele>
        <time>2012-04-15T13:32:26Z</time>
      </trkpt>
      <trkpt lat="59.7940757" lon="17.6211209">
        <ele>20.8057</ele>
        <time>2012-04-15T13:32:34Z</time>
      </trkpt>
      <trkpt lat="59.7936654" lon="17.6215651">
        <ele>18.8831</ele>
        <time>2012-04-15T13:32:41Z</time>
      </trkpt>
      <trkpt lat="59.7931698" lon="17.6220934">
        <ele>16.9604</ele>
        <time>2012-04-15T13:32:49Z</time>
      </trkpt>
      <trkpt lat="59.7927208" lon="17.6225866">
        <ele>15.999</ele>
        <time>2012-04-15T13:32:56Z</time>
      </trkpt>
      <trkpt lat="59.7923469" lon="17.6229993">
        <ele>14.557</ele>
        <time>2012-04-15T13:33:02Z</time>
      </trkpt>
      <trkpt lat="59.7919505" lon="17.6234312">
        <ele>13.1151</ele>
        <time>2012-04-15T13:33:09Z</time>
      </trkpt>
      <trkpt lat="59.7915217" lon="17.6239143">
        <ele>12.1538</ele>
        <time>2012-04-15T13:33:17Z</time>
      </trkpt>
      <trkpt lat="59.79118" lon="17.6243953">
        <ele>11.6732</ele>
        <time>2012-04-15T13:33:24Z</time>
      </trkpt>
      <trkpt lat="59.7907006" lon="17.624897">
        <ele>11.6732</ele>
        <time>2012-04-15T13:33:33Z</time>
      </trkpt>
      <trkpt lat="59.7902784" lon="17.6253414">
        <ele>11.1925</ele>
        <time>2012-04-15T13:33:41Z</time>
      </trkpt>
      <trkpt lat="59.7897299" lon="17.6259329">
        <ele>10.2312</ele>
        <time>2012-04-15T13:33:51Z</time>
      </trkpt>
      <trkpt lat="59.7892714" lon="17.6264301">
        <ele>10.7118</ele>
        <time>2012-04-15T13:33:59Z</time>
      </trkpt>
      <trkpt lat="59.7889615" lon="17.6267639">
        <ele>11.1925</ele>
        <time>2012-04-15T13:34:05Z</time>
      </trkpt>
      <trkpt lat="59.7885885" lon="17.6272139">
        <ele>10.2312</ele>
        <time>2012-04-15T13:34:12Z</time>
      </trkpt>
      <trkpt lat="59.7882151" lon="17.6276197">
        <ele>10.7118</ele>
        <time>2012-04-15T13:34:19Z</time>
      </trkpt>
      <trkpt lat="59.7877993" lon="17.628053">
        <ele>10.2312</ele>
        <time>2012-04-15T13:34:27Z</time>
      </trkpt>
      <trkpt lat="59.7874444" lon="17.6284499">
        <ele>9.75061</ele>
        <time>2012-04-15T13:34:34Z</time>
      </trkpt>
      <trkpt lat="59.7873987" lon="17.6284964">
        <ele>9.75061</ele>
        <time>2012-04-15T13:34:35Z</time>
      </trkpt>
      <trkpt lat="59.7871647" lon="17.6287161">
        <ele>9.75061</ele>
        <time>2012-04-15T13:34:40Z</time>
      </trkpt>
      <trkpt lat="59.7868158" lon="17.6295703">
        <ele>8.30859</ele>
        <time>2012-04-15T13:34:49Z</time>
      </trkpt>
      <trkpt lat="59.7866502" lon="17.6301887">
        <ele>8.30859</ele>
        <time>2012-04-15T13:34:55Z</time>
      </trkpt>
      <trkpt lat="59.7865937" lon="17.6304278">
        <ele>8.30859</ele>
        <time>2012-04-15T13:34:58Z</time>
      </trkpt>
      <trkpt lat="59.7864898" lon="17.6312182">
        <ele>8.30859</ele>
        <time>2012-04-15T13:35:07Z</time>
      </trkpt>
      <trkpt lat="59.7864689" lon="17.6314735">
        <ele>9.2699</ele>
        <time>2012-04-15T13:35:10Z</time>
      </trkpt>
      <trkpt lat="59.7864411" lon="17.632105">
        <ele>11.6732</ele>
        <time>2012-04-15T13:35:18Z</time>
      </trkpt>
      <trkpt lat="59.7864668" lon="17.6327676">
        <ele>15.5184</ele>
        <time>2012-04-15T13:35:27Z</time>
      </trkpt>
      <trkpt lat="59.7865434" lon="17.6333943">
        <ele>18.4023</ele>
        <time>2012-04-15T13:35:36Z</time>
      </trkpt>
      <trkpt lat="59.7866362" lon="17.6339003">
        <ele>20.8057</ele>
        <time>2012-04-15T13:35:43Z</time>
      </trkpt>
      <trkpt lat="59.7867683" lon="17.6345049">
        <ele>23.6896</ele>
        <time>2012-04-15T13:35:51Z</time>
      </trkpt>
      <trkpt lat="59.7868952" lon="17.635123">
        <ele>25.1317</ele>
        <time>2012-04-15T13:36:00Z</time>
      </trkpt>
      <trkpt lat="59.7870788" lon="17.6357017">
        <ele>26.5736</ele>
        <time>2012-04-15T13:36:08Z</time>
      </trkpt>
      <trkpt lat="59.7872776" lon="17.6362248">
        <ele>28.4962</ele>
        <time>2012-04-15T13:36:16Z</time>
      </trkpt>
      <trkpt lat="59.7874961" lon="17.6367148">
        <ele>30.4188</ele>
        <time>2012-04-15T13:36:25Z</time>
      </trkpt>
      <trkpt lat="59.7876853" lon="17.6371643">
        <ele>30.4188</ele>
        <time>2012-04-15T13:36:34Z</time>
      </trkpt>
      <trkpt lat="59.7879095" lon="17.6376109">
        <ele>33.3029</ele>
        <time>2012-04-15T13:36:43Z</time>
      </trkpt>
      <trkpt lat="59.7880597" lon="17.6379084">
        <ele>35.2255</ele>
        <time>2012-04-15T13:36:49Z</time>
      </trkpt>
      <trkpt lat="59.7882653" lon="17.6383428">
        <ele>37.6287</ele>
        <time>2012-04-15T13:36:57Z</time>
      </trkpt>
      <trkpt lat="59.7884708" lon="17.6387506">
        <ele>37.6287</ele>
        <time>2012-04-15T13:37:04Z</time>
      </trkpt>
      <trkpt lat="59.7884985" lon="17.638806">
        <ele>37.6287</ele>
        <time>2012-04-15T13:37:05Z</time>
      </trkpt>
      <trkpt lat="59.7888032" lon="17.6394362">
        <ele>36.6675</ele>
        <time>2012-04-15T13:37:16Z</time>
      </trkpt>
      <trkpt lat="59.7889141" lon="17.6396962">
        <ele>37.1481</ele>
        <time>2012-04-15T13:37:20Z</time>
      </trkpt>
      <trkpt lat="59.7890828" lon="17.6403026">
        <ele>36.6675</ele>
        <time>2012-04-15T13:37:28Z</time>
      </trkpt>
      <trkpt lat="59.7891952" lon="17.6409609">
        <ele>36.6675</ele>
        <time>2012-04-15T13:37:35Z</time>
      </trkpt>
      <trkpt lat="59.7892264" lon="17.6413769">
        <ele>35.7061</ele>
        <time>2012-04-15T13:37:39Z</time>
      </trkpt>
      <trkpt lat="59.7891905" lon="17.6422735">
        <ele>33.7834</ele>
        <time>2012-04-15T13:37:48Z</time>
      </trkpt>
      <trkpt lat="59.789128" lon="17.6430019">
        <ele>33.3029</ele>
        <time>2012-04-15T13:37:55Z</time>
      </trkpt>
      <trkpt lat="59.789062" lon="17.6437333">
        <ele>33.3029</ele>
        <time>2012-04-15T13:38:02Z</time>
      </trkpt>
      <trkpt lat="59.7889994" lon="17.644478">
        <ele>31.8607</ele>
        <time>2012-04-15T13:38:09Z</time>
      </trkpt>
      <trkpt lat="59.7889502" lon="17.6451882">
        <ele>32.3416</ele>
        <time>2012-04-15T13:38:16Z</time>
      </trkpt>
      <trkpt lat="59.7889109" lon="17.6457845">
        <ele>30.8995</ele>
        <time>2012-04-15T13:38:22Z</time>
      </trkpt>
      <trkpt lat="59.7888477" lon="17.646518">
        <ele>29.4575</ele>
        <time>2012-04-15T13:38:29Z</time>
      </trkpt>
      <trkpt lat="59.7888078" lon="17.6474595">
        <ele>24.1703</ele>
        <time>2012-04-15T13:38:37Z</time>
      </trkpt>
      <trkpt lat="59.7887793" lon="17.6482985">
        <ele>21.767</ele>
        <time>2012-04-15T13:38:43Z</time>
      </trkpt>
      <trkpt lat="59.7887726" lon="17.6492344">
        <ele>17.9218</ele>
        <time>2012-04-15T13:38:49Z</time>
      </trkpt>
      <trkpt lat="59.788776" lon="17.6504156">
        <ele>13.5958</ele>
        <time>2012-04-15T13:38:56Z</time>
      </trkpt>
      <trkpt lat="59.7887965" lon="17.6514494">
        <ele>12.1538</ele>
        <time>2012-04-15T13:39:02Z</time>
      </trkpt>
      <trkpt lat="59.7889217" lon="17.6530347">
        <ele>8.78918</ele>
        <time>2012-04-15T13:39:11Z</time>
      </trkpt>
      <trkpt lat="59.7890517" lon="17.6541971">
        <ele>7.82788</ele>
        <time>2012-04-15T13:39:18Z</time>
      </trkpt>
      <trkpt lat="59.7891041" lon="17.6546124">
        <ele>7.34717</ele>
        <time>2012-04-15T13:39:21Z</time>
      </trkpt>
      <trkpt lat="59.7891585" lon="17.6548447">
        <ele>7.34717</ele>
        <time>2012-04-15T13:39:23Z</time>
      </trkpt>
      <trkpt lat="59.7892218" lon="17.6552777">
        <ele>7.82788</ele>
        <time>2012-04-15T13:39:27Z</time>
      </trkpt>
      <trkpt lat="59.7894861" lon="17.6560903">
        <ele>9.2699</ele>
        <time>2012-04-15T13:39:37Z</time>
      </trkpt>
      <trkpt lat="59.7896085" lon="17.65643">
        <ele>12.1538</ele>
        <time>2012-04-15T13:39:42Z</time>
      </trkpt>
      <trkpt lat="59.7897277" lon="17.6568502">
        <ele>13.1151</ele>
        <time>2012-04-15T13:39:48Z</time>
      </trkpt>
      <trkpt lat="59.7898622" lon="17.6572782">
        <ele>15.5184</ele>
        <time>2012-04-15T13:39:55Z</time>
      </trkpt>
      <trkpt lat="59.7899089" lon="17.657647">
        <ele>14.557</ele>
        <time>2012-04-15T13:40:01Z</time>
      </trkpt>
      <trkpt lat="59.7899769" lon="17.658025">
        <ele>15.5184</ele>
        <time>2012-04-15T13:40:08Z</time>
      </trkpt>
      <trkpt lat="59.7900365" lon="17.6582137">
        <ele>15.999</ele>
        <time>2012-04-15T13:40:13Z</time>
      </trkpt>
      <trkpt lat="59.7901676" lon="17.6583059">
        <ele>18.4023</ele>
        <time>2012-04-15T13:40:19Z</time>
      </trkpt>
      <trkpt lat="59.7903229" lon="17.6582643">
        <ele>19.8444</ele>
        <time>2012-04-15T13:40:25Z</time>
      </trkpt>
      <trkpt lat="59.7904921" lon="17.6581992">
        <ele>21.2864</ele>
        <time>2012-04-15T13:40:32Z</time>
      </trkpt>
      <trkpt lat="59.7905738" lon="17.6582815">
        <ele>21.2864</ele>
        <time>2012-04-15T13:40:36Z</time>
      </trkpt>
      <trkpt lat="59.7906615" lon="17.6585732">
        <ele>21.767</ele>
        <time>2012-04-15T13:40:41Z</time>
      </trkpt>
      <trkpt lat="59.7907073" lon="17.6590876">
        <ele>21.767</ele>
        <time>2012-04-15T13:40:48Z</time>
      </trkpt>
      <trkpt lat="59.7908055" lon="17.65917">
        <ele>21.767</ele>
        <time>2012-04-15T13:40:52Z</time>
      </trkpt>
      <trkpt lat="59.7910065" lon="17.6591263">
        <ele>22.2476</ele>
        <time>2012-04-15T13:40:59Z</time>
      </trkpt>
      <trkpt lat="59.791173" lon="17.6590648">
        <ele>22.2476</ele>
        <time>2012-04-15T13:41:05Z</time>
      </trkpt>
      <trkpt lat="59.791284" lon="17.6590685">
        <ele>22.7283</ele>
        <time>2012-04-15T13:41:10Z</time>
      </trkpt>
      <trkpt lat="59.7914526" lon="17.6590178">
        <ele>22.7283</ele>
        <time>2012-04-15T13:41:16Z</time>
      </trkpt>
      <trkpt lat="59.791635" lon="17.6590308">
        <ele>21.2864</ele>
        <time>2012-04-15T13:41:20Z</time>
      </trkpt>
      <trkpt lat="59.791696" lon="17.6590772">
        <ele>21.2864</ele>
        <time>2012-04-15T13:41:21Z</time>
      </trkpt>
      <trkpt lat="59.7920303" lon="17.6589818">
        <ele>19.8444</ele>
        <time>2012-04-15T13:41:26Z</time>
      </trkpt>
      <trkpt lat="59.7921884" lon="17.6589157">
        <ele>18.8831</ele>
        <time>2012-04-15T13:41:28Z</time>
      </trkpt>
      <trkpt lat="59.7926923" lon="17.658957">
        <ele>15.999</ele>
        <time>2012-04-15T13:41:34Z</time>
      </trkpt>
      <trkpt lat="59.7931299" lon="17.6589648">
        <ele>11.1925</ele>
        <time>2012-04-15T13:41:39Z</time>
      </trkpt>
      <trkpt lat="59.7935121" lon="17.6590123">
        <ele>5.90527</ele>
        <time>2012-04-15T13:41:44Z</time>
      </trkpt>
      <trkpt lat="59.7935848" lon="17.6590199">
        <ele>4.46326</ele>
        <time>2012-04-15T13:41:45Z</time>
      </trkpt>
      <trkpt lat="59.7938723" lon="17.6591886">
        <ele>1.57935</ele>
        <time>2012-04-15T13:41:50Z</time>
      </trkpt>
      <trkpt lat="59.7942236" lon="17.6592855">
        <ele>0.618042</ele>
        <time>2012-04-15T13:41:56Z</time>
      </trkpt>
      <trkpt lat="59.794342" lon="17.659273">
        <ele>2.54065</ele>
        <time>2012-04-15T13:41:58Z</time>
      </trkpt>
      <trkpt lat="59.7947706" lon="17.6591589">
        <ele>9.75061</ele>
        <time>2012-04-15T13:42:05Z</time>
      </trkpt>
      <trkpt lat="59.7948846" lon="17.6591763">
        <ele>10.2312</ele>
        <time>2012-04-15T13:42:07Z</time>
      </trkpt>
      <trkpt lat="59.795185" lon="17.6593041">
        <ele>9.2699</ele>
        <time>2012-04-15T13:42:12Z</time>
      </trkpt>
      <trkpt lat="59.7953834" lon="17.6594257">
        <ele>8.78918</ele>
        <time>2012-04-15T13:42:15Z</time>
      </trkpt>
      <trkpt lat="59.7956433" lon="17.6595103">
        <ele>10.2312</ele>
        <time>2012-04-15T13:42:19Z</time>
      </trkpt>
      <trkpt lat="59.79606" lon="17.6597538">
        <ele>12.1538</ele>
        <time>2012-04-15T13:42:26Z</time>
      </trkpt>
      <trkpt lat="59.7962184" lon="17.6598201">
        <ele>13.1151</ele>
        <time>2012-04-15T13:42:29Z</time>
      </trkpt>
      <trkpt lat="59.7963664" lon="17.6598363">
        <ele>13.5958</ele>
        <time>2012-04-15T13:42:32Z</time>
      </trkpt>
      <trkpt lat="59.7965842" lon="17.6598371">
        <ele>18.4023</ele>
        <time>2012-04-15T13:42:37Z</time>
      </trkpt>
      <trkpt lat="59.7966191" lon="17.6598548">
        <ele>19.8444</ele>
        <time>2012-04-15T13:42:38Z</time>
      </trkpt>
      <trkpt lat="59.7966924" lon="17.6598952">
        <ele>18.8831</ele>
        <time>2012-04-15T13:42:40Z</time>
      </trkpt>
      <trkpt lat="59.796824" lon="17.6599715">
        <ele>20.325</ele>
        <time>2012-04-15T13:42:44Z</time>
      </trkpt>
      <trkpt lat="59.797025" lon="17.6601588">
        <ele>20.8057</ele>
        <time>2012-04-15T13:42:51Z</time>
      </trkpt>
      <trkpt lat="59.7971454" lon="17.6602641">
        <ele>18.8831</ele>
        <time>2012-04-15T13:42:55Z</time>
      </trkpt>
      <trkpt lat="59.7973088" lon="17.6603795">
        <ele>19.3638</ele>
        <time>2012-04-15T13:43:01Z</time>
      </trkpt>
      <trkpt lat="59.7974143" lon="17.6603982">
        <ele>23.6896</ele>
        <time>2012-04-15T13:43:05Z</time>
      </trkpt>
      <trkpt lat="59.797502" lon="17.6604039">
        <ele>28.9769</ele>
        <time>2012-04-15T13:43:09Z</time>
      </trkpt>
      <trkpt lat="59.7975826" lon="17.6604289">
        <ele>27.5349</ele>
        <time>2012-04-15T13:43:16Z</time>
      </trkpt>
      <trkpt lat="59.7976481" lon="17.6604018">
        <ele>26.5736</ele>
        <time>2012-04-15T13:43:23Z</time>
      </trkpt>
      <trkpt lat="59.7977339" lon="17.6603851">
        <ele>28.9769</ele>
        <time>2012-04-15T13:43:31Z</time>
      </trkpt>
      <trkpt lat="59.7978251" lon="17.6603578">
        <ele>32.8223</ele>
        <time>2012-04-15T13:43:40Z</time>
      </trkpt>
      <trkpt lat="59.7979085" lon="17.6603391">
        <ele>36.1868</ele>
        <time>2012-04-15T13:43:50Z</time>
      </trkpt>
      <trkpt lat="59.7979548" lon="17.6603437">
        <ele>36.1868</ele>
        <time>2012-04-15T13:43:55Z</time>
      </trkpt>
      <trkpt lat="59.7980365" lon="17.6603277">
        <ele>36.6675</ele>
        <time>2012-04-15T13:43:59Z</time>
      </trkpt>
      <trkpt lat="59.7981677" lon="17.6602967">
        <ele>34.2642</ele>
        <time>2012-04-15T13:44:04Z</time>
      </trkpt>
      <trkpt lat="59.7982959" lon="17.6600844">
        <ele>31.8607</ele>
        <time>2012-04-15T13:44:10Z</time>
      </trkpt>
      <trkpt lat="59.7984403" lon="17.6598077">
        <ele>30.8995</ele>
        <time>2012-04-15T13:44:17Z</time>
      </trkpt>
      <trkpt lat="59.798566" lon="17.6596153">
        <ele>28.9769</ele>
        <time>2012-04-15T13:44:21Z</time>
      </trkpt>
      <trkpt lat="59.7986519" lon="17.6594579">
        <ele>28.9769</ele>
        <time>2012-04-15T13:44:23Z</time>
      </trkpt>
      <trkpt lat="59.7988318" lon="17.6589222">
        <ele>24.651</ele>
        <time>2012-04-15T13:44:28Z</time>
      </trkpt>
      <trkpt lat="59.7988726" lon="17.6587747">
        <ele>23.209</ele>
        <time>2012-04-15T13:44:30Z</time>
      </trkpt>
      <trkpt lat="59.7989302" lon="17.6588367">
        <ele>21.2864</ele>
        <time>2012-04-15T13:44:34Z</time>
      </trkpt>
      <trkpt lat="59.79894" lon="17.6589033">
        <ele>20.8057</ele>
        <time>2012-04-15T13:44:35Z</time>
      </trkpt>
      <trkpt lat="59.799037" lon="17.6594524">
        <ele>17.9218</ele>
        <time>2012-04-15T13:44:41Z</time>
      </trkpt>
      <trkpt lat="59.7990535" lon="17.6595809">
        <ele>17.4412</ele>
        <time>2012-04-15T13:44:42Z</time>
      </trkpt>
      <trkpt lat="59.7991441" lon="17.6602765">
        <ele>13.1151</ele>
        <time>2012-04-15T13:44:47Z</time>
      </trkpt>
      <trkpt lat="59.799196" lon="17.6607339">
        <ele>10.7118</ele>
        <time>2012-04-15T13:44:51Z</time>
      </trkpt>
      <trkpt lat="59.7994144" lon="17.6608101">
        <ele>6.38586</ele>
        <time>2012-04-15T13:44:56Z</time>
      </trkpt>
      <trkpt lat="59.7995521" lon="17.6606034">
        <ele>5.42456</ele>
        <time>2012-04-15T13:44:59Z</time>
      </trkpt>
      <trkpt lat="59.7996859" lon="17.6603708">
        <ele>4.46326</ele>
        <time>2012-04-15T13:45:02Z</time>
      </trkpt>
      <trkpt lat="59.7999518" lon="17.6601516">
        <ele>3.98267</ele>
        <time>2012-04-15T13:45:07Z</time>
      </trkpt>
      <trkpt lat="59.8001588" lon="17.6602296">
        <ele>5.42456</ele>
        <time>2012-04-15T13:45:11Z</time>
      </trkpt>
      <trkpt lat="59.800618" lon="17.6606202">
        <ele>5.90527</ele>
        <time>2012-04-15T13:45:21Z</time>
      </trkpt>
      <trkpt lat="59.8006597" lon="17.6606499">
        <ele>5.90527</ele>
        <time>2012-04-15T13:45:22Z</time>
      </trkpt>
      <trkpt lat="59.8008613" lon="17.6608308">
        <ele>5.90527</ele>
        <time>2012-04-15T13:45:27Z</time>
      </trkpt>
      <trkpt lat="59.8009939" lon="17.6610203">
        <ele>4.46326</ele>
        <time>2012-04-15T13:45:31Z</time>
      </trkpt>
      <trkpt lat="59.8011696" lon="17.6613384">
        <ele>4.46326</ele>
        <time>2012-04-15T13:45:36Z</time>
      </trkpt>
      <trkpt lat="59.8014416" lon="17.6615017">
        <ele>4.94385</ele>
        <time>2012-04-15T13:45:42Z</time>
      </trkpt>
      <trkpt lat="59.8017539" lon="17.6617031">
        <ele>5.90527</ele>
        <time>2012-04-15T13:45:49Z</time>
      </trkpt>
      <trkpt lat="59.8020294" lon="17.6618984">
        <ele>5.42456</ele>
        <time>2012-04-15T13:45:55Z</time>
      </trkpt>
      <trkpt lat="59.8020751" lon="17.6619248">
        <ele>5.42456</ele>
        <time>2012-04-15T13:45:56Z</time>
      </trkpt>
      <trkpt lat="59.8023492" lon="17.6621806">
        <ele>5.42456</ele>
        <time>2012-04-15T13:46:02Z</time>
      </trkpt>
      <trkpt lat="59.8027334" lon="17.6627826">
        <ele>5.90527</ele>
        <time>2012-04-15T13:46:12Z</time>
      </trkpt>
      <trkpt lat="59.8031151" lon="17.6633598">
        <ele>5.90527</ele>
        <time>2012-04-15T13:46:21Z</time>
      </trkpt>
      <trkpt lat="59.8032039" lon="17.6634866">
        <ele>6.38586</ele>
        <time>2012-04-15T13:46:23Z</time>
      </trkpt>
      <trkpt lat="59.8035424" lon="17.6638137">
        <ele>6.86646</ele>
        <time>2012-04-15T13:46:30Z</time>
      </trkpt>
      <trkpt lat="59.8040457" lon="17.6642082">
        <ele>7.82788</ele>
        <time>2012-04-15T13:46:40Z</time>
      </trkpt>
      <trkpt lat="59.8042315" lon="17.6643449">
        <ele>8.30859</ele>
        <time>2012-04-15T13:46:44Z</time>
      </trkpt>
      <trkpt lat="59.8046485" lon="17.664401">
        <ele>8.30859</ele>
        <time>2012-04-15T13:46:52Z</time>
      </trkpt>
      <trkpt lat="59.8048626" lon="17.6644289">
        <ele>7.82788</ele>
        <time>2012-04-15T13:46:56Z</time>
      </trkpt>
      <trkpt lat="59.805158" lon="17.6645916">
        <ele>6.86646</ele>
        <time>2012-04-15T13:47:02Z</time>
      </trkpt>
      <trkpt lat="59.8052364" lon="17.6646602">
        <ele>6.38586</ele>
        <time>2012-04-15T13:47:04Z</time>
      </trkpt>
      <trkpt lat="59.8053675" lon="17.6649184">
        <ele>5.42456</ele>
        <time>2012-04-15T13:47:08Z</time>
      </trkpt>
      <trkpt lat="59.8055597" lon="17.665211">
        <ele>6.38586</ele>
        <time>2012-04-15T13:47:13Z</time>
      </trkpt>
      <trkpt lat="59.8057017" lon="17.6651777">
        <ele>6.38586</ele>
        <time>2012-04-15T13:47:16Z</time>
      </trkpt>
      <trkpt lat="59.8058441" lon="17.6650678">
        <ele>5.90527</ele>
        <time>2012-04-15T13:47:19Z</time>
      </trkpt>
      <trkpt lat="59.8061388" lon="17.6648669">
        <ele>4.94385</ele>
        <time>2012-04-15T13:47:25Z</time>
      </trkpt>
      <trkpt lat="59.8062914" lon="17.6647671">
        <ele>4.94385</ele>
        <time>2012-04-15T13:47:28Z</time>
      </trkpt>
      <trkpt lat="59.8064854" lon="17.6646645">
        <ele>6.38586</ele>
        <time>2012-04-15T13:47:32Z</time>
      </trkpt>
      <trkpt lat="59.8069011" lon="17.6646194">
        <ele>7.34717</ele>
        <time>2012-04-15T13:47:40Z</time>
      </trkpt>
      <trkpt lat="59.8073513" lon="17.6646574">
        <ele>7.34717</ele>
        <time>2012-04-15T13:47:48Z</time>
      </trkpt>
      <trkpt lat="59.8077612" lon="17.6647273">
        <ele>8.30859</ele>
        <time>2012-04-15T13:47:56Z</time>
      </trkpt>
      <trkpt lat="59.8083165" lon="17.6649204">
        <ele>7.82788</ele>
        <time>2012-04-15T13:48:07Z</time>
      </trkpt>
      <trkpt lat="59.808672" lon="17.6651115">
        <ele>8.30859</ele>
        <time>2012-04-15T13:48:14Z</time>
      </trkpt>
      <trkpt lat="59.8088629" lon="17.6653213">
        <ele>8.78918</ele>
        <time>2012-04-15T13:48:19Z</time>
      </trkpt>
      <trkpt lat="59.8088998" lon="17.6653596">
        <ele>8.78918</ele>
        <time>2012-04-15T13:48:20Z</time>
      </trkpt>
      <trkpt lat="59.8090735" lon="17.6654492">
        <ele>8.78918</ele>
        <time>2012-04-15T13:48:24Z</time>
      </trkpt>
      <trkpt lat="59.809343" lon="17.6654854">
        <ele>8.78918</ele>
        <time>2012-04-15T13:48:30Z</time>
      </trkpt>
      <trkpt lat="59.8094888" lon="17.6656772">
        <ele>8.30859</ele>
        <time>2012-04-15T13:48:34Z</time>
      </trkpt>
      <trkpt lat="59.8096955" lon="17.666305">
        <ele>7.82788</ele>
        <time>2012-04-15T13:48:41Z</time>
      </trkpt>
      <trkpt lat="59.8099312" lon="17.6670452">
        <ele>8.30859</ele>
        <time>2012-04-15T13:48:49Z</time>
      </trkpt>
      <trkpt lat="59.8099444" lon="17.6674847">
        <ele>8.30859</ele>
        <time>2012-04-15T13:48:54Z</time>
      </trkpt>
      <trkpt lat="59.8098991" lon="17.6676296">
        <ele>7.34717</ele>
        <time>2012-04-15T13:48:56Z</time>
      </trkpt>
      <trkpt lat="59.8098165" lon="17.6678509">
        <ele>6.86646</ele>
        <time>2012-04-15T13:48:59Z</time>
      </trkpt>
      <trkpt lat="59.8097666" lon="17.6680676">
        <ele>5.90527</ele>
        <time>2012-04-15T13:49:02Z</time>
      </trkpt>
      <trkpt lat="59.8097799" lon="17.6684968">
        <ele>5.42456</ele>
        <time>2012-04-15T13:49:07Z</time>
      </trkpt>
      <trkpt lat="59.8098933" lon="17.6686574">
        <ele>5.90527</ele>
        <time>2012-04-15T13:49:10Z</time>
      </trkpt>
      <trkpt lat="59.8104057" lon="17.6690671">
        <ele>6.38586</ele>
        <time>2012-04-15T13:49:21Z</time>
      </trkpt>
      <trkpt lat="59.8107817" lon="17.6693519">
        <ele>7.34717</ele>
        <time>2012-04-15T13:49:29Z</time>
      </trkpt>
      <trkpt lat="59.8112018" lon="17.6696901">
        <ele>7.82788</ele>
        <time>2012-04-15T13:49:38Z</time>
      </trkpt>
      <trkpt lat="59.811624" lon="17.6699974">
        <ele>7.82788</ele>
        <time>2012-04-15T13:49:47Z</time>
      </trkpt>
      <trkpt lat="59.8119916" lon="17.6701214">
        <ele>8.30859</ele>
        <time>2012-04-15T13:49:54Z</time>
      </trkpt>
      <trkpt lat="59.8124873" lon="17.6702058">
        <ele>7.82788</ele>
        <time>2012-04-15T13:50:04Z</time>
      </trkpt>
      <trkpt lat="59.8128497" lon="17.6703086">
        <ele>7.34717</ele>
        <time>2012-04-15T13:50:11Z</time>
      </trkpt>
      <trkpt lat="59.8128984" lon="17.6703391">
        <ele>7.34717</ele>
        <time>2012-04-15T13:50:12Z</time>
      </trkpt>
      <trkpt lat="59.8133671" lon="17.6706774">
        <ele>7.82788</ele>
        <time>2012-04-15T13:50:22Z</time>
      </trkpt>
      <trkpt lat="59.8137137" lon="17.6707858">
        <ele>7.34717</ele>
        <time>2012-04-15T13:50:29Z</time>
      </trkpt>
      <trkpt lat="59.8140212" lon="17.6707827">
        <ele>6.86646</ele>
        <time>2012-04-15T13:50:35Z</time>
      </trkpt>
      <trkpt lat="59.8143102" lon="17.6706888">
        <ele>6.86646</ele>
        <time>2012-04-15T13:50:41Z</time>
      </trkpt>
      <trkpt lat="59.8146236" lon="17.6704858">
        <ele>7.34717</ele>
        <time>2012-04-15T13:50:48Z</time>
      </trkpt>
      <trkpt lat="59.8148854" lon="17.6701968">
        <ele>7.34717</ele>
        <time>2012-04-15T13:50:54Z</time>
      </trkpt>
      <trkpt lat="59.8149267" lon="17.6701372">
        <ele>7.34717</ele>
        <time>2012-04-15T13:50:55Z</time>
      </trkpt>
      <trkpt lat="59.8150382" lon="17.6697462">
        <ele>5.90527</ele>
        <time>2012-04-15T13:51:00Z</time>
      </trkpt>
      <trkpt lat="59.8150274" lon="17.6693737">
        <ele>3.98267</ele>
        <time>2012-04-15T13:51:04Z</time>
      </trkpt>
      <trkpt lat="59.8149449" lon="17.6685491">
        <ele>4.46326</ele>
        <time>2012-04-15T13:51:12Z</time>
      </trkpt>
      <trkpt lat="59.8149332" lon="17.6683565">
        <ele>4.94385</ele>
        <time>2012-04-15T13:51:14Z</time>
      </trkpt>
      <trkpt lat="59.8149448" lon="17.667639">
        <ele>6.86646</ele>
        <time>2012-04-15T13:51:22Z</time>
      </trkpt>
      <trkpt lat="59.8149565" lon="17.6673774">
        <ele>8.30859</ele>
        <time>2012-04-15T13:51:25Z</time>
      </trkpt>
      <trkpt lat="59.8150336" lon="17.6671064">
        <ele>8.30859</ele>
        <time>2012-04-15T13:51:29Z</time>
      </trkpt>
      <trkpt lat="59.8150679" lon="17.6667791">
        <ele>8.30859</ele>
        <time>2012-04-15T13:51:33Z</time>
      </trkpt>
      <trkpt lat="59.8150552" lon="17.6659132">
        <ele>8.30859</ele>
        <time>2012-04-15T13:51:42Z</time>
      </trkpt>
      <trkpt lat="59.8150552" lon="17.6658294">
        <ele>8.30859</ele>
        <time>2012-04-15T13:51:43Z</time>
      </trkpt>
      <trkpt lat="59.8151466" lon="17.6656503">
        <ele>9.75061</ele>
        <time>2012-04-15T13:51:47Z</time>
      </trkpt>
      <trkpt lat="59.8151843" lon="17.6656581">
        <ele>9.75061</ele>
        <time>2012-04-15T13:51:48Z</time>
      </trkpt>
      <trkpt lat="59.8155143" lon="17.6657095">
        <ele>12.1538</ele>
        <time>2012-04-15T13:51:57Z</time>
      </trkpt>
      <trkpt lat="59.8157345" lon="17.6657311">
        <ele>14.0764</ele>
        <time>2012-04-15T13:52:04Z</time>
      </trkpt>
      <trkpt lat="59.8159271" lon="17.6657622">
        <ele>15.5184</ele>
        <time>2012-04-15T13:52:11Z</time>
      </trkpt>
      <trkpt lat="59.8160965" lon="17.6657597">
        <ele>16.4797</ele>
        <time>2012-04-15T13:52:17Z</time>
      </trkpt>
      <trkpt lat="59.8162316" lon="17.665734">
        <ele>17.9218</ele>
        <time>2012-04-15T13:52:22Z</time>
      </trkpt>
      <trkpt lat="59.8163634" lon="17.665668">
        <ele>19.8444</ele>
        <time>2012-04-15T13:52:27Z</time>
      </trkpt>
      <trkpt lat="59.8165152" lon="17.6654983">
        <ele>22.7283</ele>
        <time>2012-04-15T13:52:34Z</time>
      </trkpt>
      <trkpt lat="59.816672" lon="17.6653072">
        <ele>23.209</ele>
        <time>2012-04-15T13:52:41Z</time>
      </trkpt>
      <trkpt lat="59.8168573" lon="17.6651265">
        <ele>26.5736</ele>
        <time>2012-04-15T13:52:48Z</time>
      </trkpt>
      <trkpt lat="59.8169957" lon="17.6649866">
        <ele>28.0155</ele>
        <time>2012-04-15T13:52:54Z</time>
      </trkpt>
      <trkpt lat="59.8170855" lon="17.6648105">
        <ele>28.4962</ele>
        <time>2012-04-15T13:52:59Z</time>
      </trkpt>
      <trkpt lat="59.8171584" lon="17.664662">
        <ele>29.4575</ele>
        <time>2012-04-15T13:53:04Z</time>
      </trkpt>
      <trkpt lat="59.8172968" lon="17.6644402">
        <ele>33.3029</ele>
        <time>2012-04-15T13:53:11Z</time>
      </trkpt>
      <trkpt lat="59.8174345" lon="17.6643059">
        <ele>35.2255</ele>
        <time>2012-04-15T13:53:18Z</time>
      </trkpt>
      <trkpt lat="59.8176117" lon="17.6641585">
        <ele>36.1868</ele>
        <time>2012-04-15T13:53:25Z</time>
      </trkpt>
      <trkpt lat="59.817768" lon="17.6641169">
        <ele>36.6675</ele>
        <time>2012-04-15T13:53:30Z</time>
      </trkpt>
      <trkpt lat="59.8179993" lon="17.6640671">
        <ele>37.6287</ele>
        <time>2012-04-15T13:53:37Z</time>
      </trkpt>
      <trkpt lat="59.818225" lon="17.6640266">
        <ele>38.1094</ele>
        <time>2012-04-15T13:53:44Z</time>
      </trkpt>
      <trkpt lat="59.8184751" lon="17.6640283">
        <ele>40.0321</ele>
        <time>2012-04-15T13:53:52Z</time>
      </trkpt>
      <trkpt lat="59.8187399" lon="17.6640515">
        <ele>40.5128</ele>
        <time>2012-04-15T13:54:00Z</time>
      </trkpt>
      <trkpt lat="59.8189224" lon="17.6640326">
        <ele>40.9934</ele>
        <time>2012-04-15T13:54:05Z</time>
      </trkpt>
      <trkpt lat="59.8191087" lon="17.6639611">
        <ele>41.9547</ele>
        <time>2012-04-15T13:54:10Z</time>
      </trkpt>
      <trkpt lat="59.8192754" lon="17.6638997">
        <ele>43.8773</ele>
        <time>2012-04-15T13:54:15Z</time>
      </trkpt>
      <trkpt lat="59.8194448" lon="17.6639508">
        <ele>43.3966</ele>
        <time>2012-04-15T13:54:20Z</time>
      </trkpt>
      <trkpt lat="59.8195838" lon="17.6639637">
        <ele>44.358</ele>
        <time>2012-04-15T13:54:26Z</time>
      </trkpt>
      <trkpt lat="59.8196662" lon="17.6639492">
        <ele>44.358</ele>
        <time>2012-04-15T13:54:30Z</time>
      </trkpt>
      <trkpt lat="59.8198268" lon="17.6639567">
        <ele>44.8386</ele>
        <time>2012-04-15T13:54:36Z</time>
      </trkpt>
      <trkpt lat="59.8200002" lon="17.6640082">
        <ele>46.7612</ele>
        <time>2012-04-15T13:54:42Z</time>
      </trkpt>
      <trkpt lat="59.8201335" lon="17.6640608">
        <ele>46.2806</ele>
        <time>2012-04-15T13:54:47Z</time>
      </trkpt>
      <trkpt lat="59.8202468" lon="17.6641008">
        <ele>47.7225</ele>
        <time>2012-04-15T13:54:52Z</time>
      </trkpt>
      <trkpt lat="59.8203678" lon="17.6640536">
        <ele>47.2418</ele>
        <time>2012-04-15T13:54:57Z</time>
      </trkpt>
      <trkpt lat="59.8204751" lon="17.6640472">
        <ele>45.7999</ele>
        <time>2012-04-15T13:55:01Z</time>
      </trkpt>
      <trkpt lat="59.8206235" lon="17.6639896">
        <ele>46.7612</ele>
        <time>2012-04-15T13:55:06Z</time>
      </trkpt>
      <trkpt lat="59.8208493" lon="17.663906">
        <ele>50.126</ele>
        <time>2012-04-15T13:55:12Z</time>
      </trkpt>
      <trkpt lat="59.821058" lon="17.6638514">
        <ele>50.6066</ele>
        <time>2012-04-15T13:55:17Z</time>
      </trkpt>
      <trkpt lat="59.8211932" lon="17.6638383">
        <ele>50.126</ele>
        <time>2012-04-15T13:55:20Z</time>
      </trkpt>
      <trkpt lat="59.821409" lon="17.663855">
        <ele>50.126</ele>
        <time>2012-04-15T13:55:25Z</time>
      </trkpt>
      <trkpt lat="59.8217004" lon="17.6638957">
        <ele>49.6453</ele>
        <time>2012-04-15T13:55:31Z</time>
      </trkpt>
      <trkpt lat="59.8218473" lon="17.663906">
        <ele>49.1646</ele>
        <time>2012-04-15T13:55:34Z</time>
      </trkpt>
      <trkpt lat="59.822094" lon="17.6638683">
        <ele>48.684</ele>
        <time>2012-04-15T13:55:39Z</time>
      </trkpt>
      <trkpt lat="59.8221715" lon="17.6638466">
        <ele>48.684</ele>
        <time>2012-04-15T13:55:41Z</time>
      </trkpt>
      <trkpt lat="59.8223323" lon="17.6638088">
        <ele>46.2806</ele>
        <time>2012-04-15T13:55:45Z</time>
      </trkpt>
      <trkpt lat="59.8224744" lon="17.6637704">
        <ele>43.3966</ele>
        <time>2012-04-15T13:55:49Z</time>
      </trkpt>
      <trkpt lat="59.8227053" lon="17.6637269">
        <ele>42.4354</ele>
        <time>2012-04-15T13:55:55Z</time>
      </trkpt>
      <trkpt lat="59.822898" lon="17.6636363">
        <ele>44.8386</ele>
        <time>2012-04-15T13:56:00Z</time>
      </trkpt>
      <trkpt lat="59.8230841" lon="17.6636247">
        <ele>43.3966</ele>
        <time>2012-04-15T13:56:05Z</time>
      </trkpt>
      <trkpt lat="59.8232611" lon="17.6636486">
        <ele>40.9934</ele>
        <time>2012-04-15T13:56:10Z</time>
      </trkpt>
      <trkpt lat="59.8234278" lon="17.6636756">
        <ele>40.0321</ele>
        <time>2012-04-15T13:56:15Z</time>
      </trkpt>
      <trkpt lat="59.8235529" lon="17.6637019">
        <ele>40.0321</ele>
        <time>2012-04-15T13:56:19Z</time>
      </trkpt>
      <trkpt lat="59.8236976" lon="17.6637399">
        <ele>37.6287</ele>
        <time>2012-04-15T13:56:24Z</time>
      </trkpt>
      <trkpt lat="59.8238536" lon="17.6637465">
        <ele>38.1094</ele>
        <time>2012-04-15T13:56:29Z</time>
      </trkpt>
      <trkpt lat="59.824009" lon="17.6637508">
        <ele>38.1094</ele>
        <time>2012-04-15T13:56:34Z</time>
      </trkpt>
      <trkpt lat="59.8241904" lon="17.663704">
        <ele>36.6675</ele>
        <time>2012-04-15T13:56:39Z</time>
      </trkpt>
      <trkpt lat="59.8243884" lon="17.6636695">
        <ele>37.6287</ele>
        <time>2012-04-15T13:56:45Z</time>
      </trkpt>
      <trkpt lat="59.8245504" lon="17.663613">
        <ele>38.5901</ele>
        <time>2012-04-15T13:56:51Z</time>
      </trkpt>
      <trkpt lat="59.8246614" lon="17.6635543">
        <ele>38.1094</ele>
        <time>2012-04-15T13:56:56Z</time>
      </trkpt>
      <trkpt lat="59.8248106" lon="17.6634589">
        <ele>37.1481</ele>
        <time>2012-04-15T13:57:02Z</time>
      </trkpt>
      <trkpt lat="59.8249421" lon="17.6633528">
        <ele>36.6675</ele>
        <time>2012-04-15T13:57:07Z</time>
      </trkpt>
      <trkpt lat="59.8250695" lon="17.6632032">
        <ele>37.6287</ele>
        <time>2012-04-15T13:57:12Z</time>
      </trkpt>
      <trkpt lat="59.8252139" lon="17.6630199">
        <ele>39.0707</ele>
        <time>2012-04-15T13:57:18Z</time>
      </trkpt>
      <trkpt lat="59.8253056" lon="17.6628453">
        <ele>39.0707</ele>
        <time>2012-04-15T13:57:23Z</time>
      </trkpt>
      <trkpt lat="59.8254301" lon="17.6626293">
        <ele>39.5513</ele>
        <time>2012-04-15T13:57:29Z</time>
      </trkpt>
      <trkpt lat="59.8255259" lon="17.6624449">
        <ele>40.0321</ele>
        <time>2012-04-15T13:57:35Z</time>
      </trkpt>
      <trkpt lat="59.8256498" lon="17.6622779">
        <ele>40.5128</ele>
        <time>2012-04-15T13:57:41Z</time>
      </trkpt>
      <trkpt lat="59.8257521" lon="17.662102">
        <ele>41.9547</ele>
        <time>2012-04-15T13:57:46Z</time>
      </trkpt>
      <trkpt lat="59.8258693" lon="17.662031">
        <ele>42.4354</ele>
        <time>2012-04-15T13:57:51Z</time>
      </trkpt>
      <trkpt lat="59.8260263" lon="17.6617835">
        <ele>40.0321</ele>
        <time>2012-04-15T13:57:58Z</time>
      </trkpt>
      <trkpt lat="59.8261739" lon="17.6615718">
        <ele>40.5128</ele>
        <time>2012-04-15T13:58:04Z</time>
      </trkpt>
      <trkpt lat="59.826398" lon="17.6613757">
        <ele>40.9934</ele>
        <time>2012-04-15T13:58:11Z</time>
      </trkpt>
      <trkpt lat="59.8265687" lon="17.6611788">
        <ele>40.5128</ele>
        <time>2012-04-15T13:58:16Z</time>
      </trkpt>
      <trkpt lat="59.8266042" lon="17.6610969">
        <ele>40.9934</ele>
        <time>2012-04-15T13:58:19Z</time>
      </trkpt>
      <trkpt lat="59.8266042" lon="17.6611071">
        <ele>42.916</ele>
        <time>2012-04-15T13:58:39Z</time>
      </trkpt>
      <trkpt lat="59.8266318" lon="17.6610887">
        <ele>43.3966</ele>
        <time>2012-04-15T13:58:43Z</time>
      </trkpt>
      <trkpt lat="59.8267536" lon="17.6609179">
        <ele>41.9547</ele>
        <time>2012-04-15T13:58:49Z</time>
      </trkpt>
      <trkpt lat="59.8269403" lon="17.6606432">
        <ele>41.474</ele>
        <time>2012-04-15T13:58:56Z</time>
      </trkpt>
      <trkpt lat="59.8270551" lon="17.660479">
        <ele>43.3966</ele>
        <time>2012-04-15T13:59:01Z</time>
      </trkpt>
      <trkpt lat="59.8272118" lon="17.6601735">
        <ele>46.2806</ele>
        <time>2012-04-15T13:59:07Z</time>
      </trkpt>
      <trkpt lat="59.8273201" lon="17.6600571">
        <ele>48.2034</ele>
        <time>2012-04-15T13:59:11Z</time>
      </trkpt>
      <trkpt lat="59.8274363" lon="17.6600229">
        <ele>46.7612</ele>
        <time>2012-04-15T13:59:15Z</time>
      </trkpt>
      <trkpt lat="59.8275521" lon="17.6599309">
        <ele>45.7999</ele>
        <time>2012-04-15T13:59:19Z</time>
      </trkpt>
      <trkpt lat="59.8276652" lon="17.6598217">
        <ele>47.2418</ele>
        <time>2012-04-15T13:59:23Z</time>
      </trkpt>
      <trkpt lat="59.8278155" lon="17.6596766">
        <ele>46.2806</ele>
        <time>2012-04-15T13:59:28Z</time>
      </trkpt>
      <trkpt lat="59.8279876" lon="17.6594996">
        <ele>42.4354</ele>
        <time>2012-04-15T13:59:33Z</time>
      </trkpt>
      <trkpt lat="59.8281773" lon="17.6593426">
        <ele>39.5513</ele>
        <time>2012-04-15T13:59:38Z</time>
      </trkpt>
      <trkpt lat="59.8282141" lon="17.659312">
        <ele>39.0707</ele>
        <time>2012-04-15T13:59:39Z</time>
      </trkpt>
      <trkpt lat="59.8283697" lon="17.6591195">
        <ele>36.6675</ele>
        <time>2012-04-15T13:59:43Z</time>
      </trkpt>
      <trkpt lat="59.8286425" lon="17.6589151">
        <ele>34.7449</ele>
        <time>2012-04-15T13:59:50Z</time>
      </trkpt>
      <trkpt lat="59.8287252" lon="17.6588557">
        <ele>33.7834</ele>
        <time>2012-04-15T13:59:52Z</time>
      </trkpt>
      <trkpt lat="59.8288882" lon="17.6587696">
        <ele>38.1094</ele>
        <time>2012-04-15T13:59:55Z</time>
      </trkpt>
      <trkpt lat="59.8291926" lon="17.6585778">
        <ele>40.9934</ele>
        <time>2012-04-15T14:00:01Z</time>
      </trkpt>
      <trkpt lat="59.8293282" lon="17.6585213">
        <ele>41.474</ele>
        <time>2012-04-15T14:00:04Z</time>
      </trkpt>
      <trkpt lat="59.8295315" lon="17.6584088">
        <ele>42.4354</ele>
        <time>2012-04-15T14:00:09Z</time>
      </trkpt>
      <trkpt lat="59.8298161" lon="17.6582629">
        <ele>44.358</ele>
        <time>2012-04-15T14:00:15Z</time>
      </trkpt>
      <trkpt lat="59.8299978" lon="17.6582381">
        <ele>45.3192</ele>
        <time>2012-04-15T14:00:19Z</time>
      </trkpt>
      <trkpt lat="59.8301295" lon="17.6581511">
        <ele>44.358</ele>
        <time>2012-04-15T14:00:22Z</time>
      </trkpt>
      <trkpt lat="59.830229" lon="17.658049">
        <ele>44.358</ele>
        <time>2012-04-15T14:00:25Z</time>
      </trkpt>
      <trkpt lat="59.8303604" lon="17.6577746">
        <ele>45.3192</ele>
        <time>2012-04-15T14:00:30Z</time>
      </trkpt>
      <trkpt lat="59.830404" lon="17.6576305">
        <ele>45.3192</ele>
        <time>2012-04-15T14:00:32Z</time>
      </trkpt>
      <trkpt lat="59.8305137" lon="17.6571865">
        <ele>42.4354</ele>
        <time>2012-04-15T14:00:38Z</time>
      </trkpt>
      <trkpt lat="59.8305045" lon="17.6569432">
        <ele>34.7449</ele>
        <time>2012-04-15T14:00:43Z</time>
      </trkpt>
      <trkpt lat="59.830417" lon="17.6566664">
        <ele>24.1703</ele>
        <time>2012-04-15T14:00:49Z</time>
      </trkpt>
      <trkpt lat="59.8303201" lon="17.6563285">
        <ele>15.5184</ele>
        <time>2012-04-15T14:00:54Z</time>
      </trkpt>
      <trkpt lat="59.8302528" lon="17.6561018">
        <ele>8.30859</ele>
        <time>2012-04-15T14:00:58Z</time>
      </trkpt>
      <trkpt lat="59.8301528" lon="17.6558056">
        <ele>0.618042</ele>
        <time>2012-04-15T14:01:03Z</time>
      </trkpt>
      <trkpt lat="59.8301898" lon="17.6554443">
        <ele>0</ele>
        <time>2012-04-15T14:01:07Z</time>
      </trkpt>
      <trkpt lat="59.8302561" lon="17.6551241">
        <ele>0</ele>
        <time>2012-04-15T14:01:10Z</time>
      </trkpt>
      <trkpt lat="59.8303159" lon="17.6548897">
        <ele>7.82788</ele>
        <time>2012-04-15T14:01:13Z</time>
      </trkpt>
      <trkpt lat="59.830664" lon="17.6548756">
        <ele>24.1703</ele>
        <time>2012-04-15T14:01:21Z</time>
      </trkpt>
      <trkpt lat="59.8307184" lon="17.6549071">
        <ele>24.651</ele>
        <time>2012-04-15T14:01:22Z</time>
      </trkpt>
      <trkpt lat="59.8309705" lon="17.6551288">
        <ele>26.5736</ele>
        <time>2012-04-15T14:01:27Z</time>
      </trkpt>
      <trkpt lat="59.8310769" lon="17.6550844">
        <ele>27.0543</ele>
        <time>2012-04-15T14:01:29Z</time>
      </trkpt>
      <trkpt lat="59.8313032" lon="17.6547544">
        <ele>25.6123</ele>
        <time>2012-04-15T14:01:34Z</time>
      </trkpt>
      <trkpt lat="59.8314357" lon="17.6544421">
        <ele>23.6896</ele>
        <time>2012-04-15T14:01:37Z</time>
      </trkpt>
      <trkpt lat="59.8316893" lon="17.654091">
        <ele>22.7283</ele>
        <time>2012-04-15T14:01:42Z</time>
      </trkpt>
      <trkpt lat="59.8321018" lon="17.653704">
        <ele>24.651</ele>
        <time>2012-04-15T14:01:50Z</time>
      </trkpt>
      <trkpt lat="59.8322414" lon="17.6535766">
        <ele>25.1317</ele>
        <time>2012-04-15T14:01:53Z</time>
      </trkpt>
      <trkpt lat="59.8324132" lon="17.6534097">
        <ele>24.651</ele>
        <time>2012-04-15T14:01:57Z</time>
      </trkpt>
      <trkpt lat="59.83275" lon="17.6530792">
        <ele>23.209</ele>
        <time>2012-04-15T14:02:04Z</time>
      </trkpt>
      <trkpt lat="59.8329242" lon="17.6529679">
        <ele>23.209</ele>
        <time>2012-04-15T14:02:07Z</time>
      </trkpt>
      <trkpt lat="59.8331577" lon="17.6528854">
        <ele>22.2476</ele>
        <time>2012-04-15T14:02:11Z</time>
      </trkpt>
      <trkpt lat="59.8335263" lon="17.6527534">
        <ele>21.2864</ele>
        <time>2012-04-15T14:02:17Z</time>
      </trkpt>
      <trkpt lat="59.8335847" lon="17.6527409">
        <ele>20.8057</ele>
        <time>2012-04-15T14:02:18Z</time>
      </trkpt>
      <trkpt lat="59.8340207" lon="17.6528627">
        <ele>18.8831</ele>
        <time>2012-04-15T14:02:23Z</time>
      </trkpt>
      <trkpt lat="59.8343543" lon="17.6529751">
        <ele>17.4412</ele>
        <time>2012-04-15T14:02:27Z</time>
      </trkpt>
      <trkpt lat="59.8348732" lon="17.6529228">
        <ele>16.4797</ele>
        <time>2012-04-15T14:02:34Z</time>
      </trkpt>
      <trkpt lat="59.8352699" lon="17.6528138">
        <ele>16.9604</ele>
        <time>2012-04-15T14:02:40Z</time>
      </trkpt>
      <trkpt lat="59.835641" lon="17.6526954">
        <ele>18.4023</ele>
        <time>2012-04-15T14:02:46Z</time>
      </trkpt>
      <trkpt lat="59.8358572" lon="17.6526662">
        <ele>19.3638</ele>
        <time>2012-04-15T14:02:50Z</time>
      </trkpt>
      <trkpt lat="59.8361648" lon="17.6528823">
        <ele>19.3638</ele>
        <time>2012-04-15T14:02:56Z</time>
      </trkpt>
      <trkpt lat="59.8364932" lon="17.6530756">
        <ele>18.8831</ele>
        <time>2012-04-15T14:03:02Z</time>
      </trkpt>
      <trkpt lat="59.8369148" lon="17.6532779">
        <ele>18.4023</ele>
        <time>2012-04-15T14:03:09Z</time>
      </trkpt>
      <trkpt lat="59.8369769" lon="17.653305">
        <ele>18.4023</ele>
        <time>2012-04-15T14:03:10Z</time>
      </trkpt>
      <trkpt lat="59.8373808" lon="17.6534925">
        <ele>17.9218</ele>
        <time>2012-04-15T14:03:17Z</time>
      </trkpt>
      <trkpt lat="59.8377963" lon="17.6537194">
        <ele>16.9604</ele>
        <time>2012-04-15T14:03:24Z</time>
      </trkpt>
      <trkpt lat="59.8380271" lon="17.6538562">
        <ele>16.9604</ele>
        <time>2012-04-15T14:03:28Z</time>
      </trkpt>
      <trkpt lat="59.8383301" lon="17.6538162">
        <ele>16.4797</ele>
        <time>2012-04-15T14:03:33Z</time>
      </trkpt>
      <trkpt lat="59.8386433" lon="17.6536781">
        <ele>16.9604</ele>
        <time>2012-04-15T14:03:38Z</time>
      </trkpt>
      <trkpt lat="59.8390572" lon="17.6537609">
        <ele>15.5184</ele>
        <time>2012-04-15T14:03:44Z</time>
      </trkpt>
      <trkpt lat="59.8394975" lon="17.6537868">
        <ele>14.0764</ele>
        <time>2012-04-15T14:03:50Z</time>
      </trkpt>
      <trkpt lat="59.8399505" lon="17.6536633">
        <ele>11.6732</ele>
        <time>2012-04-15T14:03:56Z</time>
      </trkpt>
      <trkpt lat="59.840544" lon="17.6535113">
        <ele>9.2699</ele>
        <time>2012-04-15T14:04:04Z</time>
      </trkpt>
      <trkpt lat="59.8410393" lon="17.6533885">
        <ele>9.2699</ele>
        <time>2012-04-15T14:04:11Z</time>
      </trkpt>
      <trkpt lat="59.8410989" lon="17.6533459">
        <ele>9.2699</ele>
        <time>2012-04-15T14:04:12Z</time>
      </trkpt>
      <trkpt lat="59.841424" lon="17.6532609">
        <ele>9.75061</ele>
        <time>2012-04-15T14:04:17Z</time>
      </trkpt>
      <trkpt lat="59.8418458" lon="17.6528439">
        <ele>9.2699</ele>
        <time>2012-04-15T14:04:24Z</time>
      </trkpt>
      <trkpt lat="59.8421202" lon="17.6524855">
        <ele>9.75061</ele>
        <time>2012-04-15T14:04:29Z</time>
      </trkpt>
      <trkpt lat="59.8425298" lon="17.6522711">
        <ele>9.75061</ele>
        <time>2012-04-15T14:04:36Z</time>
      </trkpt>
      <trkpt lat="59.8428989" lon="17.6521436">
        <ele>10.2312</ele>
        <time>2012-04-15T14:04:43Z</time>
      </trkpt>
      <trkpt lat="59.843161" lon="17.651992">
        <ele>9.2699</ele>
        <time>2012-04-15T14:04:48Z</time>
      </trkpt>
      <trkpt lat="59.8434956" lon="17.6516752">
        <ele>7.82788</ele>
        <time>2012-04-15T14:04:54Z</time>
      </trkpt>
      <trkpt lat="59.8437742" lon="17.6513693">
        <ele>8.78918</ele>
        <time>2012-04-15T14:04:59Z</time>
      </trkpt>
      <trkpt lat="59.8440599" lon="17.6509771">
        <ele>10.7118</ele>
        <time>2012-04-15T14:05:05Z</time>
      </trkpt>
      <trkpt lat="59.8443813" lon="17.650495">
        <ele>14.557</ele>
        <time>2012-04-15T14:05:12Z</time>
      </trkpt>
      <trkpt lat="59.8446266" lon="17.6501789">
        <ele>14.557</ele>
        <time>2012-04-15T14:05:17Z</time>
      </trkpt>
      <trkpt lat="59.8448358" lon="17.6499556">
        <ele>14.557</ele>
        <time>2012-04-15T14:05:21Z</time>
      </trkpt>
      <trkpt lat="59.845046" lon="17.6500186">
        <ele>12.6344</ele>
        <time>2012-04-15T14:05:25Z</time>
      </trkpt>
      <trkpt lat="59.8452948" lon="17.650484">
        <ele>11.1925</ele>
        <time>2012-04-15T14:05:30Z</time>
      </trkpt>
      <trkpt lat="59.845377" lon="17.6508425">
        <ele>10.2312</ele>
        <time>2012-04-15T14:05:33Z</time>
      </trkpt>
      <trkpt lat="59.8455589" lon="17.6510695">
        <ele>8.78918</ele>
        <time>2012-04-15T14:05:37Z</time>
      </trkpt>
      <trkpt lat="59.8457147" lon="17.6509628">
        <ele>7.34717</ele>
        <time>2012-04-15T14:05:40Z</time>
      </trkpt>
      <trkpt lat="59.8460525" lon="17.6505654">
        <ele>5.42456</ele>
        <time>2012-04-15T14:05:46Z</time>
      </trkpt>
      <trkpt lat="59.846328" lon="17.6502605">
        <ele>4.94385</ele>
        <time>2012-04-15T14:05:51Z</time>
      </trkpt>
      <trkpt lat="59.8465944" lon="17.6499795">
        <ele>5.42456</ele>
        <time>2012-04-15T14:05:56Z</time>
      </trkpt>
      <trkpt lat="59.8470336" lon="17.6495458">
        <ele>5.42456</ele>
        <time>2012-04-15T14:06:04Z</time>
      </trkpt>
      <trkpt lat="59.8473843" lon="17.6491406">
        <ele>4.94385</ele>
        <time>2012-04-15T14:06:11Z</time>
      </trkpt>
      <trkpt lat="59.8476988" lon="17.648844">
        <ele>5.42456</ele>
        <time>2012-04-15T14:06:17Z</time>
      </trkpt>
      <trkpt lat="59.8480674" lon="17.6486032">
        <ele>5.90527</ele>
        <time>2012-04-15T14:06:24Z</time>
      </trkpt>
      <trkpt lat="59.8484373" lon="17.6483301">
        <ele>5.42456</ele>
        <time>2012-04-15T14:06:31Z</time>
      </trkpt>
      <trkpt lat="59.8487426" lon="17.6480183">
        <ele>7.34717</ele>
        <time>2012-04-15T14:06:37Z</time>
      </trkpt>
      <trkpt lat="59.8491612" lon="17.6475205">
        <ele>10.2312</ele>
        <time>2012-04-15T14:06:45Z</time>
      </trkpt>
      <trkpt lat="59.849487" lon="17.6471141">
        <ele>11.1925</ele>
        <time>2012-04-15T14:06:52Z</time>
      </trkpt>
      <trkpt lat="59.8498728" lon="17.6466917">
        <ele>9.2699</ele>
        <time>2012-04-15T14:07:00Z</time>
      </trkpt>
      <trkpt lat="59.8500915" lon="17.646458">
        <ele>6.38586</ele>
        <time>2012-04-15T14:07:05Z</time>
      </trkpt>
      <trkpt lat="59.8503818" lon="17.6461857">
        <ele>8.30859</ele>
        <time>2012-04-15T14:07:11Z</time>
      </trkpt>
      <trkpt lat="59.8507374" lon="17.6458467">
        <ele>7.34717</ele>
        <time>2012-04-15T14:07:18Z</time>
      </trkpt>
      <trkpt lat="59.8511182" lon="17.6455211">
        <ele>5.90527</ele>
        <time>2012-04-15T14:07:25Z</time>
      </trkpt>
      <trkpt lat="59.8514008" lon="17.6452297">
        <ele>1.57935</ele>
        <time>2012-04-15T14:07:31Z</time>
      </trkpt>
      <trkpt lat="59.8515256" lon="17.6450866">
        <ele>0</ele>
        <time>2012-04-15T14:07:34Z</time>
      </trkpt>
      <trkpt lat="59.8516269" lon="17.6449981">
        <ele>0</ele>
        <time>2012-04-15T14:07:36Z</time>
      </trkpt>
      <trkpt lat="59.8519154" lon="17.6446258">
        <ele>0</ele>
        <time>2012-04-15T14:07:42Z</time>
      </trkpt>
      <trkpt lat="59.8522484" lon="17.6442502">
        <ele>2.06006</ele>
        <time>2012-04-15T14:07:48Z</time>
      </trkpt>
      <trkpt lat="59.8526105" lon="17.6438234">
        <ele>4.46326</ele>
        <time>2012-04-15T14:07:55Z</time>
      </trkpt>
      <trkpt lat="59.8527794" lon="17.6435546">
        <ele>3.98267</ele>
        <time>2012-04-15T14:07:59Z</time>
      </trkpt>
      <trkpt lat="59.8530849" lon="17.643099">
        <ele>3.50195</ele>
        <time>2012-04-15T14:08:05Z</time>
      </trkpt>
      <trkpt lat="59.8533995" lon="17.6425775">
        <ele>5.90527</ele>
        <time>2012-04-15T14:08:12Z</time>
      </trkpt>
      <trkpt lat="59.853601" lon="17.6421415">
        <ele>6.38586</ele>
        <time>2012-04-15T14:08:17Z</time>
      </trkpt>
      <trkpt lat="59.8536455" lon="17.6420607">
        <ele>5.90527</ele>
        <time>2012-04-15T14:08:18Z</time>
      </trkpt>
      <trkpt lat="59.8539157" lon="17.6418258">
        <ele>3.98267</ele>
        <time>2012-04-15T14:08:23Z</time>
      </trkpt>
      <trkpt lat="59.85403" lon="17.6417877">
        <ele>3.98267</ele>
        <time>2012-04-15T14:08:25Z</time>
      </trkpt>
      <trkpt lat="59.8542201" lon="17.6416318">
        <ele>3.50195</ele>
        <time>2012-04-15T14:08:29Z</time>
      </trkpt>
      <trkpt lat="59.8543044" lon="17.641569">
        <ele>3.50195</ele>
        <time>2012-04-15T14:08:31Z</time>
      </trkpt>
      <trkpt lat="59.8544335" lon="17.6414727">
        <ele>7.34717</ele>
        <time>2012-04-15T14:08:34Z</time>
      </trkpt>
      <trkpt lat="59.8546573" lon="17.6412368">
        <ele>6.38586</ele>
        <time>2012-04-15T14:08:40Z</time>
      </trkpt>
      <trkpt lat="59.8546929" lon="17.6411956">
        <ele>6.38586</ele>
        <time>2012-04-15T14:08:41Z</time>
      </trkpt>
      <trkpt lat="59.8548186" lon="17.6412006">
        <ele>5.42456</ele>
        <time>2012-04-15T14:08:46Z</time>
      </trkpt>
      <trkpt lat="59.8548458" lon="17.6412701">
        <ele>5.42456</ele>
        <time>2012-04-15T14:08:48Z</time>
      </trkpt>
      <trkpt lat="59.8549342" lon="17.6415308">
        <ele>4.94385</ele>
        <time>2012-04-15T14:08:54Z</time>
      </trkpt>
      <trkpt lat="59.8550431" lon="17.6419043">
        <ele>5.42456</ele>
        <time>2012-04-15T14:09:01Z</time>
      </trkpt>
      <trkpt lat="59.8550341" lon="17.6419159">
        <ele>4.46326</ele>
        <time>2012-04-15T14:09:05Z</time>
      </trkpt>
      <trkpt lat="59.8550411" lon="17.6418887">
        <ele>1.09863</ele>
        <time>2012-04-15T14:09:16Z</time>
      </trkpt>
      <trkpt lat="59.8552118" lon="17.6418701">
        <ele>3.50195</ele>
        <time>2012-04-15T14:09:21Z</time>
      </trkpt>
      <trkpt lat="59.8554233" lon="17.6416094">
        <ele>3.98267</ele>
        <time>2012-04-15T14:09:26Z</time>
      </trkpt>
      <trkpt lat="59.8556196" lon="17.6413181">
        <ele>3.50195</ele>
        <time>2012-04-15T14:09:31Z</time>
      </trkpt>
      <trkpt lat="59.8557018" lon="17.6412126">
        <ele>3.50195</ele>
        <time>2012-04-15T14:09:33Z</time>
      </trkpt>
      <trkpt lat="59.8559425" lon="17.640873">
        <ele>0.618042</ele>
        <time>2012-04-15T14:09:39Z</time>
      </trkpt>
      <trkpt lat="59.8560532" lon="17.6407656">
        <ele>0.137451</ele>
        <time>2012-04-15T14:09:41Z</time>
      </trkpt>
      <trkpt lat="59.856294" lon="17.6404805">
        <ele>1.09863</ele>
        <time>2012-04-15T14:09:46Z</time>
      </trkpt>
      <trkpt lat="59.8564697" lon="17.640147">
        <ele>10.2312</ele>
        <time>2012-04-15T14:09:51Z</time>
      </trkpt>
      <trkpt lat="59.8567556" lon="17.639831">
        <ele>11.1925</ele>
        <time>2012-04-15T14:09:57Z</time>
      </trkpt>
      <trkpt lat="59.8570163" lon="17.6394868">
        <ele>14.0764</ele>
        <time>2012-04-15T14:10:03Z</time>
      </trkpt>
      <trkpt lat="59.8571127" lon="17.639349">
        <ele>16.4797</ele>
        <time>2012-04-15T14:10:05Z</time>
      </trkpt>
      <trkpt lat="59.8572783" lon="17.6391487">
        <ele>18.4023</ele>
        <time>2012-04-15T14:10:08Z</time>
      </trkpt>
      <trkpt lat="59.8575642" lon="17.6386514">
        <ele>19.3638</ele>
        <time>2012-04-15T14:10:14Z</time>
      </trkpt>
      <trkpt lat="59.8577878" lon="17.6382626">
        <ele>14.557</ele>
        <time>2012-04-15T14:10:20Z</time>
      </trkpt>
      <trkpt lat="59.8579626" lon="17.6379207">
        <ele>13.5958</ele>
        <time>2012-04-15T14:10:26Z</time>
      </trkpt>
      <trkpt lat="59.8580978" lon="17.6375988">
        <ele>16.9604</ele>
        <time>2012-04-15T14:10:31Z</time>
      </trkpt>
      <trkpt lat="59.8582298" lon="17.6373507">
        <ele>15.999</ele>
        <time>2012-04-15T14:10:35Z</time>
      </trkpt>
      <trkpt lat="59.8584605" lon="17.6369194">
        <ele>12.6344</ele>
        <time>2012-04-15T14:10:41Z</time>
      </trkpt>
      <trkpt lat="59.8586433" lon="17.636621">
        <ele>13.5958</ele>
        <time>2012-04-15T14:10:45Z</time>
      </trkpt>
      <trkpt lat="59.8588495" lon="17.6360735">
        <ele>15.0377</ele>
        <time>2012-04-15T14:10:52Z</time>
      </trkpt>
      <trkpt lat="59.8590865" lon="17.6355637">
        <ele>15.0377</ele>
        <time>2012-04-15T14:10:58Z</time>
      </trkpt>
      <trkpt lat="59.8592674" lon="17.6352312">
        <ele>14.0764</ele>
        <time>2012-04-15T14:11:02Z</time>
      </trkpt>
      <trkpt lat="59.8595778" lon="17.634837">
        <ele>11.6732</ele>
        <time>2012-04-15T14:11:08Z</time>
      </trkpt>
      <trkpt lat="59.8597851" lon="17.6345562">
        <ele>10.7118</ele>
        <time>2012-04-15T14:11:13Z</time>
      </trkpt>
      <trkpt lat="59.8598159" lon="17.634484">
        <ele>10.7118</ele>
        <time>2012-04-15T14:11:14Z</time>
      </trkpt>
      <trkpt lat="59.8598974" lon="17.6343727">
        <ele>10.2312</ele>
        <time>2012-04-15T14:11:16Z</time>
      </trkpt>
      <trkpt lat="59.8600269" lon="17.6339463">
        <ele>15.0377</ele>
        <time>2012-04-15T14:11:22Z</time>
      </trkpt>
      <trkpt lat="59.8600455" lon="17.6339096">
        <ele>14.557</ele>
        <time>2012-04-15T14:11:23Z</time>
      </trkpt>
      <trkpt lat="59.8602057" lon="17.6339543">
        <ele>11.6732</ele>
        <time>2012-04-15T14:11:27Z</time>
      </trkpt>
      <trkpt lat="59.8602826" lon="17.6339061">
        <ele>11.1925</ele>
        <time>2012-04-15T14:11:29Z</time>
      </trkpt>
      <trkpt lat="59.8604801" lon="17.6336663">
        <ele>12.1538</ele>
        <time>2012-04-15T14:11:34Z</time>
      </trkpt>
      <trkpt lat="59.8607516" lon="17.633487">
        <ele>19.3638</ele>
        <time>2012-04-15T14:11:39Z</time>
      </trkpt>
      <trkpt lat="59.8609604" lon="17.6332907">
        <ele>25.1317</ele>
        <time>2012-04-15T14:11:43Z</time>
      </trkpt>
      <trkpt lat="59.8612709" lon="17.6330514">
        <ele>26.0929</ele>
        <time>2012-04-15T14:11:49Z</time>
      </trkpt>
      <trkpt lat="59.8612966" lon="17.6329689">
        <ele>25.1317</ele>
        <time>2012-04-15T14:11:53Z</time>
      </trkpt>
      <trkpt lat="59.8611967" lon="17.6328193">
        <ele>19.8444</ele>
        <time>2012-04-15T14:11:56Z</time>
      </trkpt>
      <trkpt lat="59.8611131" lon="17.6326286">
        <ele>14.0764</ele>
        <time>2012-04-15T14:12:01Z</time>
      </trkpt>
      <trkpt lat="59.8610936" lon="17.6325658">
        <ele>12.1538</ele>
        <time>2012-04-15T14:12:03Z</time>
      </trkpt>
      <trkpt lat="59.8611536" lon="17.6324028">
        <ele>7.34717</ele>
        <time>2012-04-15T14:12:08Z</time>
      </trkpt>
      <trkpt lat="59.8611865" lon="17.6323775">
        <ele>6.86646</ele>
        <time>2012-04-15T14:12:09Z</time>
      </trkpt>
      <trkpt lat="59.8614805" lon="17.6321491">
        <ele>5.42456</ele>
        <time>2012-04-15T14:12:17Z</time>
      </trkpt>
      <trkpt lat="59.8617607" lon="17.6319991">
        <ele>8.30859</ele>
        <time>2012-04-15T14:12:23Z</time>
      </trkpt>
      <trkpt lat="59.8619576" lon="17.6319569">
        <ele>8.78918</ele>
        <time>2012-04-15T14:12:28Z</time>
      </trkpt>
      <trkpt lat="59.8621176" lon="17.6318693">
        <ele>11.6732</ele>
        <time>2012-04-15T14:12:33Z</time>
      </trkpt>
      <trkpt lat="59.8622365" lon="17.6320531">
        <ele>12.1538</ele>
        <time>2012-04-15T14:12:37Z</time>
      </trkpt>
      <trkpt lat="59.8623647" lon="17.6321274">
        <ele>12.6344</ele>
        <time>2012-04-15T14:12:40Z</time>
      </trkpt>
      <trkpt lat="59.8624341" lon="17.6320877">
        <ele>13.5958</ele>
        <time>2012-04-15T14:12:41Z</time>
      </trkpt>
      <trkpt lat="59.8627971" lon="17.6318171">
        <ele>14.557</ele>
        <time>2012-04-15T14:12:49Z</time>
      </trkpt>
      <trkpt lat="59.8631479" lon="17.6315915">
        <ele>16.4797</ele>
        <time>2012-04-15T14:12:56Z</time>
      </trkpt>
      <trkpt lat="59.8634203" lon="17.6313703">
        <ele>14.557</ele>
        <time>2012-04-15T14:13:02Z</time>
      </trkpt>
      <trkpt lat="59.8637369" lon="17.6311648">
        <ele>16.4797</ele>
        <time>2012-04-15T14:13:08Z</time>
      </trkpt>
      <trkpt lat="59.864092" lon="17.6309486">
        <ele>18.4023</ele>
        <time>2012-04-15T14:13:15Z</time>
      </trkpt>
      <trkpt lat="59.864315" lon="17.6308121">
        <ele>15.999</ele>
        <time>2012-04-15T14:13:20Z</time>
      </trkpt>
      <trkpt lat="59.8644425" lon="17.6306046">
        <ele>13.5958</ele>
        <time>2012-04-15T14:13:24Z</time>
      </trkpt>
      <trkpt lat="59.8644797" lon="17.6305523">
        <ele>12.6344</ele>
        <time>2012-04-15T14:13:25Z</time>
      </trkpt>
      <trkpt lat="59.8647279" lon="17.6302081">
        <ele>8.78918</ele>
        <time>2012-04-15T14:13:30Z</time>
      </trkpt>
      <trkpt lat="59.8650395" lon="17.6298257">
        <ele>6.38586</ele>
        <time>2012-04-15T14:13:35Z</time>
      </trkpt>
      <trkpt lat="59.8651213" lon="17.6298149">
        <ele>8.30859</ele>
        <time>2012-04-15T14:13:38Z</time>
      </trkpt>
      <trkpt lat="59.8651653" lon="17.6297512">
        <ele>10.2312</ele>
        <time>2012-04-15T14:13:40Z</time>
      </trkpt>
      <trkpt lat="59.8652829" lon="17.6293086">
        <ele>9.75061</ele>
        <time>2012-04-15T14:13:46Z</time>
      </trkpt>
      <trkpt lat="59.8653832" lon="17.6290775">
        <ele>8.30859</ele>
        <time>2012-04-15T14:13:49Z</time>
      </trkpt>
      <trkpt lat="59.8655478" lon="17.6289">
        <ele>7.34717</ele>
        <time>2012-04-15T14:13:53Z</time>
      </trkpt>
      <trkpt lat="59.8657657" lon="17.6285125">
        <ele>15.5184</ele>
        <time>2012-04-15T14:13:58Z</time>
      </trkpt>
      <trkpt lat="59.8659808" lon="17.6280661">
        <ele>11.1925</ele>
        <time>2012-04-15T14:14:04Z</time>
      </trkpt>
      <trkpt lat="59.8661038" lon="17.627896">
        <ele>10.2312</ele>
        <time>2012-04-15T14:14:07Z</time>
      </trkpt>
      <trkpt lat="59.8662421" lon="17.6276333">
        <ele>10.2312</ele>
        <time>2012-04-15T14:14:11Z</time>
      </trkpt>
      <trkpt lat="59.8664037" lon="17.627305">
        <ele>8.78918</ele>
        <time>2012-04-15T14:14:15Z</time>
      </trkpt>
      <trkpt lat="59.866627" lon="17.6269575">
        <ele>9.75061</ele>
        <time>2012-04-15T14:14:20Z</time>
      </trkpt>
      <trkpt lat="59.8668102" lon="17.6267223">
        <ele>10.2312</ele>
        <time>2012-04-15T14:14:25Z</time>
      </trkpt>
      <trkpt lat="59.8668574" lon="17.6265653">
        <ele>9.75061</ele>
        <time>2012-04-15T14:14:27Z</time>
      </trkpt>
      <trkpt lat="59.8669007" lon="17.6264042">
        <ele>9.75061</ele>
        <time>2012-04-15T14:14:29Z</time>
      </trkpt>
      <trkpt lat="59.8669634" lon="17.626253">
        <ele>10.2312</ele>
        <time>2012-04-15T14:14:31Z</time>
      </trkpt>
      <trkpt lat="59.8672545" lon="17.6257878">
        <ele>9.2699</ele>
        <time>2012-04-15T14:14:38Z</time>
      </trkpt>
      <trkpt lat="59.867539" lon="17.6254536">
        <ele>9.75061</ele>
        <time>2012-04-15T14:14:44Z</time>
      </trkpt>
      <trkpt lat="59.8676737" lon="17.6252999">
        <ele>10.2312</ele>
        <time>2012-04-15T14:14:46Z</time>
      </trkpt>
      <trkpt lat="59.8677932" lon="17.6251086">
        <ele>11.6732</ele>
        <time>2012-04-15T14:14:50Z</time>
      </trkpt>
      <trkpt lat="59.8678674" lon="17.6250358">
        <ele>12.1538</ele>
        <time>2012-04-15T14:14:52Z</time>
      </trkpt>
      <trkpt lat="59.8682011" lon="17.6248327">
        <ele>11.1925</ele>
        <time>2012-04-15T14:14:59Z</time>
      </trkpt>
      <trkpt lat="59.8685703" lon="17.6246193">
        <ele>10.7118</ele>
        <time>2012-04-15T14:15:07Z</time>
      </trkpt>
      <trkpt lat="59.8688969" lon="17.6243367">
        <ele>9.2699</ele>
        <time>2012-04-15T14:15:14Z</time>
      </trkpt>
      <trkpt lat="59.8691895" lon="17.6240676">
        <ele>7.82788</ele>
        <time>2012-04-15T14:15:21Z</time>
      </trkpt>
      <trkpt lat="59.8692586" lon="17.6240102">
        <ele>7.82788</ele>
        <time>2012-04-15T14:15:23Z</time>
      </trkpt>
      <trkpt lat="59.8693773" lon="17.6237097">
        <ele>10.2312</ele>
        <time>2012-04-15T14:15:28Z</time>
      </trkpt>
      <trkpt lat="59.8693594" lon="17.6235216">
        <ele>10.7118</ele>
        <time>2012-04-15T14:15:30Z</time>
      </trkpt>
      <trkpt lat="59.8692851" lon="17.6231443">
        <ele>10.7118</ele>
        <time>2012-04-15T14:15:34Z</time>
      </trkpt>
      <trkpt lat="59.8693185" lon="17.6227118">
        <ele>10.2312</ele>
        <time>2012-04-15T14:15:38Z</time>
      </trkpt>
      <trkpt lat="59.8694148" lon="17.6223208">
        <ele>10.2312</ele>
        <time>2012-04-15T14:15:42Z</time>
      </trkpt>
      <trkpt lat="59.8696354" lon="17.621746">
        <ele>10.2312</ele>
        <time>2012-04-15T14:15:49Z</time>
      </trkpt>
      <trkpt lat="59.8697504" lon="17.6212568">
        <ele>10.7118</ele>
        <time>2012-04-15T14:15:54Z</time>
      </trkpt>
      <trkpt lat="59.8697738" lon="17.6210548">
        <ele>11.1925</ele>
        <time>2012-04-15T14:15:56Z</time>
      </trkpt>
      <trkpt lat="59.86991" lon="17.6201006">
        <ele>12.1538</ele>
        <time>2012-04-15T14:16:05Z</time>
      </trkpt>
      <trkpt lat="59.8699649" lon="17.6193522">
        <ele>11.1925</ele>
        <time>2012-04-15T14:16:12Z</time>
      </trkpt>
      <trkpt lat="59.8699597" lon="17.6187089">
        <ele>10.7118</ele>
        <time>2012-04-15T14:16:18Z</time>
      </trkpt>
      <trkpt lat="59.870051" lon="17.6182983">
        <ele>10.7118</ele>
        <time>2012-04-15T14:16:22Z</time>
      </trkpt>
      <trkpt lat="59.8701391" lon="17.6175265">
        <ele>10.2312</ele>
        <time>2012-04-15T14:16:29Z</time>
      </trkpt>
      <trkpt lat="59.8701622" lon="17.6173065">
        <ele>10.7118</ele>
        <time>2012-04-15T14:16:31Z</time>
      </trkpt>
      <trkpt lat="59.8703314" lon="17.6164238">
        <ele>9.75061</ele>
        <time>2012-04-15T14:16:39Z</time>
      </trkpt>
      <trkpt lat="59.8704584" lon="17.6157975">
        <ele>9.75061</ele>
        <time>2012-04-15T14:16:45Z</time>
      </trkpt>
      <trkpt lat="59.870492" lon="17.6156831">
        <ele>11.1925</ele>
        <time>2012-04-15T14:16:46Z</time>
      </trkpt>
      <trkpt lat="59.8706887" lon="17.614995">
        <ele>12.6344</ele>
        <time>2012-04-15T14:16:53Z</time>
      </trkpt>
      <trkpt lat="59.8709248" lon="17.6141564">
        <ele>13.5958</ele>
        <time>2012-04-15T14:17:02Z</time>
      </trkpt>
      <trkpt lat="59.8710407" lon="17.6135254">
        <ele>14.557</ele>
        <time>2012-04-15T14:17:08Z</time>
      </trkpt>
      <trkpt lat="59.8711548" lon="17.6130794">
        <ele>12.6344</ele>
        <time>2012-04-15T14:17:13Z</time>
      </trkpt>
      <trkpt lat="59.8713693" lon="17.6125346">
        <ele>13.5958</ele>
        <time>2012-04-15T14:17:19Z</time>
      </trkpt>
      <trkpt lat="59.871663" lon="17.6118694">
        <ele>13.1151</ele>
        <time>2012-04-15T14:17:27Z</time>
      </trkpt>
      <trkpt lat="59.8719777" lon="17.6112748">
        <ele>9.75061</ele>
        <time>2012-04-15T14:17:35Z</time>
      </trkpt>
      <trkpt lat="59.8722042" lon="17.6108211">
        <ele>6.38586</ele>
        <time>2012-04-15T14:17:41Z</time>
      </trkpt>
      <trkpt lat="59.8724849" lon="17.6103546">
        <ele>8.30859</ele>
        <time>2012-04-15T14:17:47Z</time>
      </trkpt>
      <trkpt lat="59.872759" lon="17.6098654">
        <ele>8.78918</ele>
        <time>2012-04-15T14:17:53Z</time>
      </trkpt>
      <trkpt lat="59.8729145" lon="17.6094">
        <ele>9.2699</ele>
        <time>2012-04-15T14:17:58Z</time>
      </trkpt>
      <trkpt lat="59.8730781" lon="17.6092269">
        <ele>10.2312</ele>
        <time>2012-04-15T14:18:01Z</time>
      </trkpt>
      <trkpt lat="59.8732703" lon="17.6089058">
        <ele>9.75061</ele>
        <time>2012-04-15T14:18:05Z</time>
      </trkpt>
      <trkpt lat="59.873452" lon="17.6083936">
        <ele>10.7118</ele>
        <time>2012-04-15T14:18:10Z</time>
      </trkpt>
      <trkpt lat="59.8736091" lon="17.6082855">
        <ele>11.1925</ele>
        <time>2012-04-15T14:18:13Z</time>
      </trkpt>
      <trkpt lat="59.8736645" lon="17.6083231">
        <ele>11.1925</ele>
        <time>2012-04-15T14:18:14Z</time>
      </trkpt>
      <trkpt lat="59.8739672" lon="17.6083652">
        <ele>11.1925</ele>
        <time>2012-04-15T14:18:20Z</time>
      </trkpt>
      <trkpt lat="59.8740142" lon="17.6083592">
        <ele>10.7118</ele>
        <time>2012-04-15T14:18:21Z</time>
      </trkpt>
      <trkpt lat="59.8744167" lon="17.6081793">
        <ele>11.1925</ele>
        <time>2012-04-15T14:18:29Z</time>
      </trkpt>
      <trkpt lat="59.8748026" lon="17.6079277">
        <ele>10.2312</ele>
        <time>2012-04-15T14:18:36Z</time>
      </trkpt>
      <trkpt lat="59.8749707" lon="17.607792">
        <ele>10.2312</ele>
        <time>2012-04-15T14:18:39Z</time>
      </trkpt>
      <trkpt lat="59.8751023" lon="17.6076202">
        <ele>10.2312</ele>
        <time>2012-04-15T14:18:42Z</time>
      </trkpt>
      <trkpt lat="59.8751914" lon="17.6074974">
        <ele>10.2312</ele>
        <time>2012-04-15T14:18:44Z</time>
      </trkpt>
      <trkpt lat="59.8753884" lon="17.6070519">
        <ele>9.2699</ele>
        <time>2012-04-15T14:18:49Z</time>
      </trkpt>
      <trkpt lat="59.8757128" lon="17.6062661">
        <ele>6.86646</ele>
        <time>2012-04-15T14:18:56Z</time>
      </trkpt>
      <trkpt lat="59.8759433" lon="17.6058313">
        <ele>6.86646</ele>
        <time>2012-04-15T14:19:00Z</time>
      </trkpt>
      <trkpt lat="59.8761964" lon="17.6053466">
        <ele>8.30859</ele>
        <time>2012-04-15T14:19:07Z</time>
      </trkpt>
      <trkpt lat="59.8764438" lon="17.6048213">
        <ele>9.75061</ele>
        <time>2012-04-15T14:19:14Z</time>
      </trkpt>
      <trkpt lat="59.8767436" lon="17.6041701">
        <ele>10.7118</ele>
        <time>2012-04-15T14:19:22Z</time>
      </trkpt>
      <trkpt lat="59.8770948" lon="17.603489">
        <ele>11.1925</ele>
        <time>2012-04-15T14:19:31Z</time>
      </trkpt>
      <trkpt lat="59.8773655" lon="17.6030046">
        <ele>11.1925</ele>
        <time>2012-04-15T14:19:38Z</time>
      </trkpt>
      <trkpt lat="59.877445" lon="17.6028442">
        <ele>11.1925</ele>
        <time>2012-04-15T14:19:40Z</time>
      </trkpt>
      <trkpt lat="59.8775453" lon="17.6023443">
        <ele>11.1925</ele>
        <time>2012-04-15T14:19:45Z</time>
      </trkpt>
      <trkpt lat="59.8775714" lon="17.6020269">
        <ele>11.1925</ele>
        <time>2012-04-15T14:19:48Z</time>
      </trkpt>
      <trkpt lat="59.8777186" lon="17.6017149">
        <ele>10.7118</ele>
        <time>2012-04-15T14:19:52Z</time>
      </trkpt>
      <trkpt lat="59.8781251" lon="17.6012632">
        <ele>10.7118</ele>
        <time>2012-04-15T14:20:00Z</time>
      </trkpt>
      <trkpt lat="59.8783924" lon="17.6010358">
        <ele>10.7118</ele>
        <time>2012-04-15T14:20:05Z</time>
      </trkpt>
      <trkpt lat="59.8785784" lon="17.6007918">
        <ele>10.7118</ele>
        <time>2012-04-15T14:20:09Z</time>
      </trkpt>
      <trkpt lat="59.8789428" lon="17.5999871">
        <ele>10.2312</ele>
        <time>2012-04-15T14:20:18Z</time>
      </trkpt>
      <trkpt lat="59.8791011" lon="17.5996061">
        <ele>10.2312</ele>
        <time>2012-04-15T14:20:22Z</time>
      </trkpt>
      <trkpt lat="59.8793466" lon="17.5992311">
        <ele>10.7118</ele>
        <time>2012-04-15T14:20:27Z</time>
      </trkpt>
      <trkpt lat="59.8797449" lon="17.5984536">
        <ele>8.78918</ele>
        <time>2012-04-15T14:20:36Z</time>
      </trkpt>
      <trkpt lat="59.8800384" lon="17.5977139">
        <ele>8.78918</ele>
        <time>2012-04-15T14:20:44Z</time>
      </trkpt>
      <trkpt lat="59.8803515" lon="17.5969731">
        <ele>9.75061</ele>
        <time>2012-04-15T14:20:52Z</time>
      </trkpt>
      <trkpt lat="59.8805856" lon="17.5964263">
        <ele>9.75061</ele>
        <time>2012-04-15T14:20:58Z</time>
      </trkpt>
      <trkpt lat="59.8808445" lon="17.5959395">
        <ele>8.78918</ele>
        <time>2012-04-15T14:21:04Z</time>
      </trkpt>
      <trkpt lat="59.8809757" lon="17.5956152">
        <ele>7.82788</ele>
        <time>2012-04-15T14:21:07Z</time>
      </trkpt>
      <trkpt lat="59.8811165" lon="17.5949254">
        <ele>8.30859</ele>
        <time>2012-04-15T14:21:13Z</time>
      </trkpt>
      <trkpt lat="59.8812456" lon="17.5941422">
        <ele>8.30859</ele>
        <time>2012-04-15T14:21:20Z</time>
      </trkpt>
      <trkpt lat="59.8814695" lon="17.5932851">
        <ele>9.2699</ele>
        <time>2012-04-15T14:21:28Z</time>
      </trkpt>
      <trkpt lat="59.8815036" lon="17.5931848">
        <ele>9.2699</ele>
        <time>2012-04-15T14:21:29Z</time>
      </trkpt>
      <trkpt lat="59.8816429" lon="17.5925156">
        <ele>8.78918</ele>
        <time>2012-04-15T14:21:35Z</time>
      </trkpt>
      <trkpt lat="59.8817346" lon="17.5916422">
        <ele>8.78918</ele>
        <time>2012-04-15T14:21:42Z</time>
      </trkpt>
      <trkpt lat="59.8817782" lon="17.5914103">
        <ele>8.78918</ele>
        <time>2012-04-15T14:21:44Z</time>
      </trkpt>
      <trkpt lat="59.8820174" lon="17.5906685">
        <ele>8.30859</ele>
        <time>2012-04-15T14:21:51Z</time>
      </trkpt>
      <trkpt lat="59.8821931" lon="17.59024">
        <ele>8.78918</ele>
        <time>2012-04-15T14:21:55Z</time>
      </trkpt>
      <trkpt lat="59.8823971" lon="17.5894724">
        <ele>11.1925</ele>
        <time>2012-04-15T14:22:02Z</time>
      </trkpt>
      <trkpt lat="59.8826122" lon="17.5887263">
        <ele>12.6344</ele>
        <time>2012-04-15T14:22:09Z</time>
      </trkpt>
      <trkpt lat="59.882881" lon="17.5881216">
        <ele>13.1151</ele>
        <time>2012-04-15T14:22:15Z</time>
      </trkpt>
      <trkpt lat="59.8832247" lon="17.5875778">
        <ele>13.1151</ele>
        <time>2012-04-15T14:22:22Z</time>
      </trkpt>
      <trkpt lat="59.8835254" lon="17.5870331">
        <ele>11.1925</ele>
        <time>2012-04-15T14:22:28Z</time>
      </trkpt>
      <trkpt lat="59.8838185" lon="17.5862294">
        <ele>10.2312</ele>
        <time>2012-04-15T14:22:35Z</time>
      </trkpt>
      <trkpt lat="59.884066" lon="17.5853474">
        <ele>10.2312</ele>
        <time>2012-04-15T14:22:42Z</time>
      </trkpt>
      <trkpt lat="59.8843178" lon="17.5846263">
        <ele>11.6732</ele>
        <time>2012-04-15T14:22:49Z</time>
      </trkpt>
      <trkpt lat="59.884635" lon="17.5837802">
        <ele>12.1538</ele>
        <time>2012-04-15T14:22:57Z</time>
      </trkpt>
      <trkpt lat="59.8848228" lon="17.5832855">
        <ele>12.1538</ele>
        <time>2012-04-15T14:23:02Z</time>
      </trkpt>
      <trkpt lat="59.8848816" lon="17.5829308">
        <ele>12.6344</ele>
        <time>2012-04-15T14:23:05Z</time>
      </trkpt>
      <trkpt lat="59.8850436" lon="17.5825278">
        <ele>12.6344</ele>
        <time>2012-04-15T14:23:09Z</time>
      </trkpt>
      <trkpt lat="59.8850798" lon="17.582418">
        <ele>12.6344</ele>
        <time>2012-04-15T14:23:10Z</time>
      </trkpt>
      <trkpt lat="59.8853529" lon="17.5813944">
        <ele>13.1151</ele>
        <time>2012-04-15T14:23:19Z</time>
      </trkpt>
      <trkpt lat="59.8855122" lon="17.5809687">
        <ele>13.5958</ele>
        <time>2012-04-15T14:23:23Z</time>
      </trkpt>
      <trkpt lat="59.8858818" lon="17.5803359">
        <ele>12.6344</ele>
        <time>2012-04-15T14:23:30Z</time>
      </trkpt>
      <trkpt lat="59.886058" lon="17.5797661">
        <ele>12.6344</ele>
        <time>2012-04-15T14:23:35Z</time>
      </trkpt>
      <trkpt lat="59.8860714" lon="17.5796404">
        <ele>12.6344</ele>
        <time>2012-04-15T14:23:36Z</time>
      </trkpt>
      <trkpt lat="59.8861135" lon="17.5792724">
        <ele>12.1538</ele>
        <time>2012-04-15T14:23:39Z</time>
      </trkpt>
      <trkpt lat="59.8862428" lon="17.5786175">
        <ele>11.6732</ele>
        <time>2012-04-15T14:23:45Z</time>
      </trkpt>
      <trkpt lat="59.8862776" lon="17.5782807">
        <ele>11.1925</ele>
        <time>2012-04-15T14:23:48Z</time>
      </trkpt>
      <trkpt lat="59.886202" lon="17.5778567">
        <ele>10.7118</ele>
        <time>2012-04-15T14:23:52Z</time>
      </trkpt>
      <trkpt lat="59.8858636" lon="17.5772472">
        <ele>10.7118</ele>
        <time>2012-04-15T14:24:01Z</time>
      </trkpt>
      <trkpt lat="59.8854886" lon="17.5765752">
        <ele>10.7118</ele>
        <time>2012-04-15T14:24:11Z</time>
      </trkpt>
      <trkpt lat="59.8851348" lon="17.5759409">
        <ele>10.7118</ele>
        <time>2012-04-15T14:24:21Z</time>
      </trkpt>
      <trkpt lat="59.8847577" lon="17.5752554">
        <ele>10.7118</ele>
        <time>2012-04-15T14:24:32Z</time>
      </trkpt>
      <trkpt lat="59.8843551" lon="17.5745216">
        <ele>11.6732</ele>
        <time>2012-04-15T14:24:43Z</time>
      </trkpt>
      <trkpt lat="59.8839817" lon="17.5738357">
        <ele>11.6732</ele>
        <time>2012-04-15T14:24:53Z</time>
      </trkpt>
      <trkpt lat="59.8836408" lon="17.5732081">
        <ele>11.6732</ele>
        <time>2012-04-15T14:25:02Z</time>
      </trkpt>
      <trkpt lat="59.8831985" lon="17.5723904">
        <ele>11.6732</ele>
        <time>2012-04-15T14:25:14Z</time>
      </trkpt>
      <trkpt lat="59.8827996" lon="17.5716538">
        <ele>12.1538</ele>
        <time>2012-04-15T14:25:25Z</time>
      </trkpt>
      <trkpt lat="59.8824313" lon="17.5709801">
        <ele>12.6344</ele>
        <time>2012-04-15T14:25:35Z</time>
      </trkpt>
      <trkpt lat="59.882277" lon="17.5706761">
        <ele>13.1151</ele>
        <time>2012-04-15T14:25:40Z</time>
      </trkpt>
      <trkpt lat="59.8822578" lon="17.570351">
        <ele>13.5958</ele>
        <time>2012-04-15T14:25:45Z</time>
      </trkpt>
      <trkpt lat="59.8825238" lon="17.5697936">
        <ele>14.0764</ele>
        <time>2012-04-15T14:25:53Z</time>
      </trkpt>
      <trkpt lat="59.8828842" lon="17.5690745">
        <ele>15.0377</ele>
        <time>2012-04-15T14:26:02Z</time>
      </trkpt>
      <trkpt lat="59.8833347" lon="17.5682109">
        <ele>15.999</ele>
        <time>2012-04-15T14:26:12Z</time>
      </trkpt>
      <trkpt lat="59.8838508" lon="17.5672688">
        <ele>15.999</ele>
        <time>2012-04-15T14:26:23Z</time>
      </trkpt>
      <trkpt lat="59.8845164" lon="17.5660945">
        <ele>16.9604</ele>
        <time>2012-04-15T14:26:37Z</time>
      </trkpt>
      <trkpt lat="59.8849515" lon="17.5653387">
        <ele>17.4412</ele>
        <time>2012-04-15T14:26:46Z</time>
      </trkpt>
      <trkpt lat="59.8854021" lon="17.5645779">
        <ele>17.4412</ele>
        <time>2012-04-15T14:26:55Z</time>
      </trkpt>
      <trkpt lat="59.8859912" lon="17.5636003">
        <ele>18.4023</ele>
        <time>2012-04-15T14:27:06Z</time>
      </trkpt>
      <trkpt lat="59.8865353" lon="17.562718">
        <ele>18.4023</ele>
        <time>2012-04-15T14:27:16Z</time>
      </trkpt>
      <trkpt lat="59.8870231" lon="17.5619393">
        <ele>18.4023</ele>
        <time>2012-04-15T14:27:25Z</time>
      </trkpt>
      <trkpt lat="59.8875714" lon="17.5610781">
        <ele>19.3638</ele>
        <time>2012-04-15T14:27:35Z</time>
      </trkpt>
      <trkpt lat="59.8880643" lon="17.5603245">
        <ele>19.3638</ele>
        <time>2012-04-15T14:27:44Z</time>
      </trkpt>
      <trkpt lat="59.8886251" lon="17.5594969">
        <ele>18.8831</ele>
        <time>2012-04-15T14:27:54Z</time>
      </trkpt>
      <trkpt lat="59.88926" lon="17.5585776">
        <ele>18.4023</ele>
        <time>2012-04-15T14:28:05Z</time>
      </trkpt>
      <trkpt lat="59.889788" lon="17.5578291">
        <ele>17.9218</ele>
        <time>2012-04-15T14:28:14Z</time>
      </trkpt>
      <trkpt lat="59.8904455" lon="17.5569236">
        <ele>16.9604</ele>
        <time>2012-04-15T14:28:25Z</time>
      </trkpt>
      <trkpt lat="59.8910705" lon="17.5560845">
        <ele>16.4797</ele>
        <time>2012-04-15T14:28:35Z</time>
      </trkpt>
      <trkpt lat="59.8917089" lon="17.5552433">
        <ele>15.5184</ele>
        <time>2012-04-15T14:28:45Z</time>
      </trkpt>
      <trkpt lat="59.8923766" lon="17.5543885">
        <ele>14.557</ele>
        <time>2012-04-15T14:28:55Z</time>
      </trkpt>
      <trkpt lat="59.8930551" lon="17.5535374">
        <ele>13.5958</ele>
        <time>2012-04-15T14:29:05Z</time>
      </trkpt>
      <trkpt lat="59.8938129" lon="17.5526133">
        <ele>12.6344</ele>
        <time>2012-04-15T14:29:16Z</time>
      </trkpt>
      <trkpt lat="59.8944356" lon="17.5518829">
        <ele>12.1538</ele>
        <time>2012-04-15T14:29:25Z</time>
      </trkpt>
      <trkpt lat="59.8951001" lon="17.5511277">
        <ele>12.6344</ele>
        <time>2012-04-15T14:29:35Z</time>
      </trkpt>
      <trkpt lat="59.8958462" lon="17.550304">
        <ele>12.6344</ele>
        <time>2012-04-15T14:29:47Z</time>
      </trkpt>
      <trkpt lat="59.8965771" lon="17.5495212">
        <ele>13.1151</ele>
        <time>2012-04-15T14:29:59Z</time>
      </trkpt>
      <trkpt lat="59.8971566" lon="17.5489094">
        <ele>13.1151</ele>
        <time>2012-04-15T14:30:08Z</time>
      </trkpt>
      <trkpt lat="59.8979049" lon="17.5481549">
        <ele>13.5958</ele>
        <time>2012-04-15T14:30:19Z</time>
      </trkpt>
      <trkpt lat="59.8984927" lon="17.547587">
        <ele>14.0764</ele>
        <time>2012-04-15T14:30:28Z</time>
      </trkpt>
      <trkpt lat="59.8990894" lon="17.5470188">
        <ele>14.0764</ele>
        <time>2012-04-15T14:30:38Z</time>
      </trkpt>
      <trkpt lat="59.8996738" lon="17.5464764">
        <ele>14.557</ele>
        <time>2012-04-15T14:30:48Z</time>
      </trkpt>
      <trkpt lat="59.8998416" lon="17.546322">
        <ele>14.557</ele>
        <time>2012-04-15T14:30:51Z</time>
      </trkpt>
      <trkpt lat="59.9000819" lon="17.5463573">
        <ele>14.0764</ele>
        <time>2012-04-15T14:30:55Z</time>
      </trkpt>
      <trkpt lat="59.9001359" lon="17.5464309">
        <ele>14.0764</ele>
        <time>2012-04-15T14:30:56Z</time>
      </trkpt>
      <trkpt lat="59.9004216" lon="17.5470346">
        <ele>13.1151</ele>
        <time>2012-04-15T14:31:03Z</time>
      </trkpt>
      <trkpt lat="59.9006076" lon="17.5475083">
        <ele>13.1151</ele>
        <time>2012-04-15T14:31:09Z</time>
      </trkpt>
      <trkpt lat="59.9008632" lon="17.548168">
        <ele>13.1151</ele>
        <time>2012-04-15T14:31:17Z</time>
      </trkpt>
      <trkpt lat="59.9012644" lon="17.5491474">
        <ele>13.5958</ele>
        <time>2012-04-15T14:31:28Z</time>
      </trkpt>
      <trkpt lat="59.9016848" lon="17.5501687">
        <ele>14.0764</ele>
        <time>2012-04-15T14:31:39Z</time>
      </trkpt>
      <trkpt lat="59.9021468" lon="17.5512683">
        <ele>14.557</ele>
        <time>2012-04-15T14:31:51Z</time>
      </trkpt>
      <trkpt lat="59.9026083" lon="17.5523708">
        <ele>15.0377</ele>
        <time>2012-04-15T14:32:03Z</time>
      </trkpt>
      <trkpt lat="59.9029963" lon="17.5533033">
        <ele>15.0377</ele>
        <time>2012-04-15T14:32:13Z</time>
      </trkpt>
      <trkpt lat="59.9034703" lon="17.5544368">
        <ele>15.0377</ele>
        <time>2012-04-15T14:32:25Z</time>
      </trkpt>
      <trkpt lat="59.9040342" lon="17.5557351">
        <ele>15.999</ele>
        <time>2012-04-15T14:32:39Z</time>
      </trkpt>
      <trkpt lat="59.9044272" lon="17.5564771">
        <ele>16.4797</ele>
        <time>2012-04-15T14:32:48Z</time>
      </trkpt>
      <trkpt lat="59.9048488" lon="17.5572242">
        <ele>15.999</ele>
        <time>2012-04-15T14:32:57Z</time>
      </trkpt>
      <trkpt lat="59.9053782" lon="17.558158">
        <ele>15.5184</ele>
        <time>2012-04-15T14:33:08Z</time>
      </trkpt>
      <trkpt lat="59.9059861" lon="17.5592112">
        <ele>15.999</ele>
        <time>2012-04-15T14:33:20Z</time>
      </trkpt>
      <trkpt lat="59.9066507" lon="17.5603674">
        <ele>17.4412</ele>
        <time>2012-04-15T14:33:33Z</time>
      </trkpt>
      <trkpt lat="59.9072508" lon="17.5615064">
        <ele>17.4412</ele>
        <time>2012-04-15T14:33:45Z</time>
      </trkpt>
      <trkpt lat="59.9076728" lon="17.5623898">
        <ele>17.4412</ele>
        <time>2012-04-15T14:33:54Z</time>
      </trkpt>
      <trkpt lat="59.908224" lon="17.5635488">
        <ele>17.9218</ele>
        <time>2012-04-15T14:34:06Z</time>
      </trkpt>
      <trkpt lat="59.9088246" lon="17.5648148">
        <ele>18.4023</ele>
        <time>2012-04-15T14:34:19Z</time>
      </trkpt>
      <trkpt lat="59.9091036" lon="17.5653963">
        <ele>18.4023</ele>
        <time>2012-04-15T14:34:26Z</time>
      </trkpt>
      <trkpt lat="59.9095097" lon="17.5662307">
        <ele>18.4023</ele>
        <time>2012-04-15T14:34:37Z</time>
      </trkpt>
      <trkpt lat="59.9097552" lon="17.5667964">
        <ele>18.4023</ele>
        <time>2012-04-15T14:34:44Z</time>
      </trkpt>
      <trkpt lat="59.9100348" lon="17.5674869">
        <ele>18.4023</ele>
        <time>2012-04-15T14:34:52Z</time>
      </trkpt>
      <trkpt lat="59.910246" lon="17.5680986">
        <ele>17.9218</ele>
        <time>2012-04-15T14:34:58Z</time>
      </trkpt>
      <trkpt lat="59.9105655" lon="17.5690885">
        <ele>17.9218</ele>
        <time>2012-04-15T14:35:08Z</time>
      </trkpt>
      <trkpt lat="59.9108272" lon="17.5700215">
        <ele>17.9218</ele>
        <time>2012-04-15T14:35:17Z</time>
      </trkpt>
      <trkpt lat="59.9111358" lon="17.5712797">
        <ele>17.9218</ele>
        <time>2012-04-15T14:35:29Z</time>
      </trkpt>
      <trkpt lat="59.9113943" lon="17.5721246">
        <ele>18.4023</ele>
        <time>2012-04-15T14:35:37Z</time>
      </trkpt>
      <trkpt lat="59.9117122" lon="17.5727587">
        <ele>18.4023</ele>
        <time>2012-04-15T14:35:44Z</time>
      </trkpt>
      <trkpt lat="59.9121154" lon="17.5732179">
        <ele>17.9218</ele>
        <time>2012-04-15T14:35:51Z</time>
      </trkpt>
      <trkpt lat="59.912503" lon="17.5734441">
        <ele>17.4412</ele>
        <time>2012-04-15T14:35:57Z</time>
      </trkpt>
      <trkpt lat="59.9130089" lon="17.573534">
        <ele>15.0377</ele>
        <time>2012-04-15T14:36:05Z</time>
      </trkpt>
      <trkpt lat="59.9136522" lon="17.5736016">
        <ele>11.6732</ele>
        <time>2012-04-15T14:36:15Z</time>
      </trkpt>
      <trkpt lat="59.9138122" lon="17.573774">
        <ele>11.1925</ele>
        <time>2012-04-15T14:36:18Z</time>
      </trkpt>
      <trkpt lat="59.9138394" lon="17.5741458">
        <ele>11.1925</ele>
        <time>2012-04-15T14:36:21Z</time>
      </trkpt>
      <trkpt lat="59.9137481" lon="17.5744581">
        <ele>9.2699</ele>
        <time>2012-04-15T14:36:24Z</time>
      </trkpt>
      <trkpt lat="59.9137187" lon="17.5745358">
        <ele>8.78918</ele>
        <time>2012-04-15T14:36:25Z</time>
      </trkpt>
      <trkpt lat="59.913512" lon="17.575039">
        <ele>3.50195</ele>
        <time>2012-04-15T14:36:33Z</time>
      </trkpt>
      <trkpt lat="59.9134746" lon="17.5751161">
        <ele>3.50195</ele>
        <time>2012-04-15T14:36:34Z</time>
      </trkpt>
      <trkpt lat="59.9133254" lon="17.5756326">
        <ele>4.46326</ele>
        <time>2012-04-15T14:36:39Z</time>
      </trkpt>
      <trkpt lat="59.9133424" lon="17.5758682">
        <ele>6.38586</ele>
        <time>2012-04-15T14:36:41Z</time>
      </trkpt>
      <trkpt lat="59.9134923" lon="17.5764267">
        <ele>8.78918</ele>
        <time>2012-04-15T14:36:46Z</time>
      </trkpt>
      <trkpt lat="59.9136398" lon="17.5769743">
        <ele>9.75061</ele>
        <time>2012-04-15T14:36:51Z</time>
      </trkpt>
      <trkpt lat="59.913677" lon="17.5774017">
        <ele>10.2312</ele>
        <time>2012-04-15T14:36:55Z</time>
      </trkpt>
      <trkpt lat="59.9136303" lon="17.5778687">
        <ele>10.7118</ele>
        <time>2012-04-15T14:37:01Z</time>
      </trkpt>
      <trkpt lat="59.9135694" lon="17.5781489">
        <ele>11.6732</ele>
        <time>2012-04-15T14:37:06Z</time>
      </trkpt>
      <trkpt lat="59.9134291" lon="17.5785147">
        <ele>12.6344</ele>
        <time>2012-04-15T14:37:13Z</time>
      </trkpt>
      <trkpt lat="59.9132532" lon="17.5787883">
        <ele>14.557</ele>
        <time>2012-04-15T14:37:20Z</time>
      </trkpt>
      <trkpt lat="59.9130778" lon="17.5790452">
        <ele>15.999</ele>
        <time>2012-04-15T14:37:26Z</time>
      </trkpt>
      <trkpt lat="59.9128334" lon="17.5795037">
        <ele>18.8831</ele>
        <time>2012-04-15T14:37:34Z</time>
      </trkpt>
      <trkpt lat="59.9125406" lon="17.5802765">
        <ele>19.8444</ele>
        <time>2012-04-15T14:37:44Z</time>
      </trkpt>
      <trkpt lat="59.9123354" lon="17.5808464">
        <ele>18.8831</ele>
        <time>2012-04-15T14:37:52Z</time>
      </trkpt>
      <trkpt lat="59.9121061" lon="17.5814964">
        <ele>18.4023</ele>
        <time>2012-04-15T14:38:01Z</time>
      </trkpt>
      <trkpt lat="59.9118629" lon="17.5822037">
        <ele>18.8831</ele>
        <time>2012-04-15T14:38:12Z</time>
      </trkpt>
      <trkpt lat="59.9116717" lon="17.5828066">
        <ele>19.3638</ele>
        <time>2012-04-15T14:38:21Z</time>
      </trkpt>
      <trkpt lat="59.9114848" lon="17.5834406">
        <ele>19.8444</ele>
        <time>2012-04-15T14:38:30Z</time>
      </trkpt>
      <trkpt lat="59.9112765" lon="17.5841262">
        <ele>19.3638</ele>
        <time>2012-04-15T14:38:39Z</time>
      </trkpt>
      <trkpt lat="59.911018" lon="17.5850386">
        <ele>18.8831</ele>
        <time>2012-04-15T14:38:50Z</time>
      </trkpt>
      <trkpt lat="59.910859" lon="17.5859011">
        <ele>17.9218</ele>
        <time>2012-04-15T14:38:59Z</time>
      </trkpt>
      <trkpt lat="59.9106391" lon="17.5869439">
        <ele>17.4412</ele>
        <time>2012-04-15T14:39:10Z</time>
      </trkpt>
      <trkpt lat="59.9104221" lon="17.5876984">
        <ele>16.9604</ele>
        <time>2012-04-15T14:39:18Z</time>
      </trkpt>
      <trkpt lat="59.9100733" lon="17.5886459">
        <ele>15.999</ele>
        <time>2012-04-15T14:39:29Z</time>
      </trkpt>
      <trkpt lat="59.9096963" lon="17.589625">
        <ele>14.557</ele>
        <time>2012-04-15T14:39:40Z</time>
      </trkpt>
      <trkpt lat="59.9094061" lon="17.5903429">
        <ele>12.6344</ele>
        <time>2012-04-15T14:39:48Z</time>
      </trkpt>
      <trkpt lat="59.9090902" lon="17.5911377">
        <ele>15.5184</ele>
        <time>2012-04-15T14:39:56Z</time>
      </trkpt>
      <trkpt lat="59.9088115" lon="17.5919069">
        <ele>14.0764</ele>
        <time>2012-04-15T14:40:04Z</time>
      </trkpt>
      <trkpt lat="59.9086038" lon="17.592778">
        <ele>13.1151</ele>
        <time>2012-04-15T14:40:12Z</time>
      </trkpt>
      <trkpt lat="59.9083591" lon="17.593876">
        <ele>12.1538</ele>
        <time>2012-04-15T14:40:22Z</time>
      </trkpt>
      <trkpt lat="59.9080908" lon="17.5951114">
        <ele>15.0377</ele>
        <time>2012-04-15T14:40:33Z</time>
      </trkpt>
      <trkpt lat="59.9079659" lon="17.5961098">
        <ele>18.8831</ele>
        <time>2012-04-15T14:40:41Z</time>
      </trkpt>
      <trkpt lat="59.9079443" lon="17.5970999">
        <ele>20.8057</ele>
        <time>2012-04-15T14:40:49Z</time>
      </trkpt>
      <trkpt lat="59.9080401" lon="17.5982789">
        <ele>22.2476</ele>
        <time>2012-04-15T14:40:59Z</time>
      </trkpt>
      <trkpt lat="59.9082116" lon="17.5991451">
        <ele>22.2476</ele>
        <time>2012-04-15T14:41:07Z</time>
      </trkpt>
      <trkpt lat="59.9084606" lon="17.5999552">
        <ele>21.767</ele>
        <time>2012-04-15T14:41:15Z</time>
      </trkpt>
      <trkpt lat="59.9087727" lon="17.6006533">
        <ele>20.8057</ele>
        <time>2012-04-15T14:41:22Z</time>
      </trkpt>
      <trkpt lat="59.9091725" lon="17.6013141">
        <ele>18.8831</ele>
        <time>2012-04-15T14:41:29Z</time>
      </trkpt>
      <trkpt lat="59.9097903" lon="17.6022754">
        <ele>16.4797</ele>
        <time>2012-04-15T14:41:39Z</time>
      </trkpt>
      <trkpt lat="59.910249" lon="17.6029918">
        <ele>15.5184</ele>
        <time>2012-04-15T14:41:47Z</time>
      </trkpt>
      <trkpt lat="59.9107686" lon="17.6037964">
        <ele>16.4797</ele>
        <time>2012-04-15T14:41:57Z</time>
      </trkpt>
      <trkpt lat="59.911137" lon="17.6044537">
        <ele>16.4797</ele>
        <time>2012-04-15T14:42:05Z</time>
      </trkpt>
      <trkpt lat="59.9113854" lon="17.6051302">
        <ele>16.4797</ele>
        <time>2012-04-15T14:42:12Z</time>
      </trkpt>
      <trkpt lat="59.9115607" lon="17.6060195">
        <ele>16.4797</ele>
        <time>2012-04-15T14:42:20Z</time>
      </trkpt>
      <trkpt lat="59.9116311" lon="17.6065508">
        <ele>16.9604</ele>
        <time>2012-04-15T14:42:25Z</time>
      </trkpt>
      <trkpt lat="59.9115781" lon="17.6068582">
        <ele>16.9604</ele>
        <time>2012-04-15T14:42:29Z</time>
      </trkpt>
      <trkpt lat="59.9115053" lon="17.6069208">
        <ele>16.4797</ele>
        <time>2012-04-15T14:42:31Z</time>
      </trkpt>
      <trkpt lat="59.911108" lon="17.6071033">
        <ele>15.5184</ele>
        <time>2012-04-15T14:42:39Z</time>
      </trkpt>
      <trkpt lat="59.9105411" lon="17.6073784">
        <ele>14.557</ele>
        <time>2012-04-15T14:42:49Z</time>
      </trkpt>
      <trkpt lat="59.9098667" lon="17.6077019">
        <ele>14.557</ele>
        <time>2012-04-15T14:43:00Z</time>
      </trkpt>
      <trkpt lat="59.9092767" lon="17.6079901">
        <ele>14.0764</ele>
        <time>2012-04-15T14:43:09Z</time>
      </trkpt>
      <trkpt lat="59.9087916" lon="17.60821">
        <ele>14.0764</ele>
        <time>2012-04-15T14:43:17Z</time>
      </trkpt>
      <trkpt lat="59.9082522" lon="17.6084546">
        <ele>15.5184</ele>
        <time>2012-04-15T14:43:27Z</time>
      </trkpt>
      <trkpt lat="59.9078476" lon="17.6086511">
        <ele>15.999</ele>
        <time>2012-04-15T14:43:35Z</time>
      </trkpt>
      <trkpt lat="59.9075891" lon="17.6087664">
        <ele>16.9604</ele>
        <time>2012-04-15T14:43:41Z</time>
      </trkpt>
      <trkpt lat="59.9073155" lon="17.6088873">
        <ele>17.4412</ele>
        <time>2012-04-15T14:43:49Z</time>
      </trkpt>
      <trkpt lat="59.9070534" lon="17.6090005">
        <ele>17.9218</ele>
        <time>2012-04-15T14:43:56Z</time>
      </trkpt>
      <trkpt lat="59.9065837" lon="17.6092306">
        <ele>18.4023</ele>
        <time>2012-04-15T14:44:07Z</time>
      </trkpt>
      <trkpt lat="59.9060246" lon="17.6094933">
        <ele>18.8831</ele>
        <time>2012-04-15T14:44:19Z</time>
      </trkpt>
      <trkpt lat="59.9056314" lon="17.6096752">
        <ele>18.8831</ele>
        <time>2012-04-15T14:44:27Z</time>
      </trkpt>
      <trkpt lat="59.905587" lon="17.6096965">
        <ele>18.8831</ele>
        <time>2012-04-15T14:44:28Z</time>
      </trkpt>
      <trkpt lat="59.9054273" lon="17.6098587">
        <ele>18.8831</ele>
        <time>2012-04-15T14:44:32Z</time>
      </trkpt>
      <trkpt lat="59.905106" lon="17.6100588">
        <ele>18.4023</ele>
        <time>2012-04-15T14:44:39Z</time>
      </trkpt>
      <trkpt lat="59.9047335" lon="17.6102205">
        <ele>17.9218</ele>
        <time>2012-04-15T14:44:47Z</time>
      </trkpt>
      <trkpt lat="59.9045522" lon="17.6103147">
        <ele>18.4023</ele>
        <time>2012-04-15T14:44:52Z</time>
      </trkpt>
      <trkpt lat="59.9045103" lon="17.6105127">
        <ele>18.4023</ele>
        <time>2012-04-15T14:44:56Z</time>
      </trkpt>
      <trkpt lat="59.9045421" lon="17.6108877">
        <ele>18.4023</ele>
        <time>2012-04-15T14:45:00Z</time>
      </trkpt>
      <trkpt lat="59.9044105" lon="17.6112089">
        <ele>18.4023</ele>
        <time>2012-04-15T14:45:04Z</time>
      </trkpt>
      <trkpt lat="59.9043663" lon="17.6112678">
        <ele>17.9218</ele>
        <time>2012-04-15T14:45:05Z</time>
      </trkpt>
      <trkpt lat="59.9039805" lon="17.6118684">
        <ele>17.4412</ele>
        <time>2012-04-15T14:45:14Z</time>
      </trkpt>
      <trkpt lat="59.9038511" lon="17.6123572">
        <ele>17.4412</ele>
        <time>2012-04-15T14:45:19Z</time>
      </trkpt>
      <trkpt lat="59.903645" lon="17.6134297">
        <ele>16.9604</ele>
        <time>2012-04-15T14:45:29Z</time>
      </trkpt>
      <trkpt lat="59.9035547" lon="17.6143374">
        <ele>16.9604</ele>
        <time>2012-04-15T14:45:37Z</time>
      </trkpt>
      <trkpt lat="59.9034966" lon="17.6152907">
        <ele>17.9218</ele>
        <time>2012-04-15T14:45:45Z</time>
      </trkpt>
      <trkpt lat="59.9033599" lon="17.6159235">
        <ele>19.3638</ele>
        <time>2012-04-15T14:45:51Z</time>
      </trkpt>
      <trkpt lat="59.9030315" lon="17.6170759">
        <ele>18.8831</ele>
        <time>2012-04-15T14:46:03Z</time>
      </trkpt>
      <trkpt lat="59.9027864" lon="17.6178767">
        <ele>17.4412</ele>
        <time>2012-04-15T14:46:11Z</time>
      </trkpt>
      <trkpt lat="59.9024493" lon="17.6188155">
        <ele>16.4797</ele>
        <time>2012-04-15T14:46:21Z</time>
      </trkpt>
      <trkpt lat="59.9019676" lon="17.6199966">
        <ele>16.4797</ele>
        <time>2012-04-15T14:46:34Z</time>
      </trkpt>
      <trkpt lat="59.9015578" lon="17.621104">
        <ele>16.4797</ele>
        <time>2012-04-15T14:46:46Z</time>
      </trkpt>
      <trkpt lat="59.9013274" lon="17.6220164">
        <ele>16.4797</ele>
        <time>2012-04-15T14:46:55Z</time>
      </trkpt>
      <trkpt lat="59.9010751" lon="17.6231501">
        <ele>16.4797</ele>
        <time>2012-04-15T14:47:06Z</time>
      </trkpt>
      <trkpt lat="59.900906" lon="17.6241345">
        <ele>17.9218</ele>
        <time>2012-04-15T14:47:16Z</time>
      </trkpt>
      <trkpt lat="59.9008237" lon="17.6249642">
        <ele>19.8444</ele>
        <time>2012-04-15T14:47:26Z</time>
      </trkpt>
      <trkpt lat="59.9008021" lon="17.6255724">
        <ele>18.8831</ele>
        <time>2012-04-15T14:47:32Z</time>
      </trkpt>
      <trkpt lat="59.9007943" lon="17.6260342">
        <ele>18.4023</ele>
        <time>2012-04-15T14:47:36Z</time>
      </trkpt>
      <trkpt lat="59.9008176" lon="17.6265855">
        <ele>18.8831</ele>
        <time>2012-04-15T14:47:41Z</time>
      </trkpt>
      <trkpt lat="59.900984" lon="17.6273845">
        <ele>17.4412</ele>
        <time>2012-04-15T14:47:48Z</time>
      </trkpt>
      <trkpt lat="59.9012169" lon="17.6283334">
        <ele>17.4412</ele>
        <time>2012-04-15T14:47:56Z</time>
      </trkpt>
      <trkpt lat="59.9013077" lon="17.6290807">
        <ele>17.4412</ele>
        <time>2012-04-15T14:48:02Z</time>
      </trkpt>
      <trkpt lat="59.9013879" lon="17.6304593">
        <ele>16.9604</ele>
        <time>2012-04-15T14:48:13Z</time>
      </trkpt>
      <trkpt lat="59.9013528" lon="17.6312972">
        <ele>16.9604</ele>
        <time>2012-04-15T14:48:20Z</time>
      </trkpt>
      <trkpt lat="59.901233" lon="17.6319263">
        <ele>16.9604</ele>
        <time>2012-04-15T14:48:26Z</time>
      </trkpt>
      <trkpt lat="59.9012055" lon="17.6320251">
        <ele>16.9604</ele>
        <time>2012-04-15T14:48:27Z</time>
      </trkpt>
      <trkpt lat="59.9008697" lon="17.6327888">
        <ele>15.999</ele>
        <time>2012-04-15T14:48:36Z</time>
      </trkpt>
      <trkpt lat="59.9004511" lon="17.633389">
        <ele>12.1538</ele>
        <time>2012-04-15T14:48:45Z</time>
      </trkpt>
      <trkpt lat="59.9000379" lon="17.6338196">
        <ele>10.2312</ele>
        <time>2012-04-15T14:48:53Z</time>
      </trkpt>
      <trkpt lat="59.899678" lon="17.6340362">
        <ele>7.82788</ele>
        <time>2012-04-15T14:49:00Z</time>
      </trkpt>
      <trkpt lat="59.8993126" lon="17.6342255">
        <ele>6.38586</ele>
        <time>2012-04-15T14:49:07Z</time>
      </trkpt>
      <trkpt lat="59.8990476" lon="17.6343651">
        <ele>6.38586</ele>
        <time>2012-04-15T14:49:12Z</time>
      </trkpt>
      <trkpt lat="59.8986626" lon="17.6343873">
        <ele>9.2699</ele>
        <time>2012-04-15T14:49:20Z</time>
      </trkpt>
      <trkpt lat="59.8984083" lon="17.6343664">
        <ele>14.0764</ele>
        <time>2012-04-15T14:49:27Z</time>
      </trkpt>
      <trkpt lat="59.898258" lon="17.6344146">
        <ele>15.5184</ele>
        <time>2012-04-15T14:49:32Z</time>
      </trkpt>
      <trkpt lat="59.8981327" lon="17.6345871">
        <ele>14.0764</ele>
        <time>2012-04-15T14:49:36Z</time>
      </trkpt>
      <trkpt lat="59.8980178" lon="17.6349199">
        <ele>13.5958</ele>
        <time>2012-04-15T14:49:40Z</time>
      </trkpt>
      <trkpt lat="59.8977956" lon="17.6352973">
        <ele>15.0377</ele>
        <time>2012-04-15T14:49:46Z</time>
      </trkpt>
      <trkpt lat="59.8976158" lon="17.6358475">
        <ele>15.0377</ele>
        <time>2012-04-15T14:49:53Z</time>
      </trkpt>
      <trkpt lat="59.8974577" lon="17.6363885">
        <ele>16.9604</ele>
        <time>2012-04-15T14:50:00Z</time>
      </trkpt>
      <trkpt lat="59.8974322" lon="17.6367039">
        <ele>18.8831</ele>
        <time>2012-04-15T14:50:04Z</time>
      </trkpt>
      <trkpt lat="59.8974962" lon="17.6367961">
        <ele>20.325</ele>
        <time>2012-04-15T14:50:06Z</time>
      </trkpt>
      <trkpt lat="59.8975391" lon="17.6368307">
        <ele>20.8057</ele>
        <time>2012-04-15T14:50:07Z</time>
      </trkpt>
      <trkpt lat="59.8976147" lon="17.6369127">
        <ele>20.8057</ele>
        <time>2012-04-15T14:50:09Z</time>
      </trkpt>
      <trkpt lat="59.8977855" lon="17.6370296">
        <ele>21.2864</ele>
        <time>2012-04-15T14:50:13Z</time>
      </trkpt>
      <trkpt lat="59.8981186" lon="17.6372975">
        <ele>21.2864</ele>
        <time>2012-04-15T14:50:19Z</time>
      </trkpt>
      <trkpt lat="59.8984922" lon="17.6376173">
        <ele>21.2864</ele>
        <time>2012-04-15T14:50:26Z</time>
      </trkpt>
      <trkpt lat="59.8985485" lon="17.6376617">
        <ele>20.8057</ele>
        <time>2012-04-15T14:50:27Z</time>
      </trkpt>
      <trkpt lat="59.89908" lon="17.6381694">
        <ele>20.325</ele>
        <time>2012-04-15T14:50:37Z</time>
      </trkpt>
      <trkpt lat="59.8995469" lon="17.6386274">
        <ele>18.4023</ele>
        <time>2012-04-15T14:50:45Z</time>
      </trkpt>
      <trkpt lat="59.9000692" lon="17.6391692">
        <ele>17.4412</ele>
        <time>2012-04-15T14:50:54Z</time>
      </trkpt>
      <trkpt lat="59.9005803" lon="17.6396976">
        <ele>15.999</ele>
        <time>2012-04-15T14:51:03Z</time>
      </trkpt>
      <trkpt lat="59.9011912" lon="17.640334">
        <ele>15.0377</ele>
        <time>2012-04-15T14:51:14Z</time>
      </trkpt>
      <trkpt lat="59.9018168" lon="17.6409175">
        <ele>15.0377</ele>
        <time>2012-04-15T14:51:25Z</time>
      </trkpt>
      <trkpt lat="59.9022183" lon="17.6412293">
        <ele>15.5184</ele>
        <time>2012-04-15T14:51:32Z</time>
      </trkpt>
      <trkpt lat="59.9027802" lon="17.6415857">
        <ele>15.999</ele>
        <time>2012-04-15T14:51:42Z</time>
      </trkpt>
      <trkpt lat="59.9031753" lon="17.641813">
        <ele>15.999</ele>
        <time>2012-04-15T14:51:49Z</time>
      </trkpt>
      <trkpt lat="59.9034966" lon="17.642">
        <ele>15.999</ele>
        <time>2012-04-15T14:51:55Z</time>
      </trkpt>
      <trkpt lat="59.9036921" lon="17.6420209">
        <ele>15.5184</ele>
        <time>2012-04-15T14:51:59Z</time>
      </trkpt>
      <trkpt lat="59.9037412" lon="17.6420403">
        <ele>15.5184</ele>
        <time>2012-04-15T14:52:00Z</time>
      </trkpt>
      <trkpt lat="59.9041502" lon="17.642257">
        <ele>14.557</ele>
        <time>2012-04-15T14:52:08Z</time>
      </trkpt>
      <trkpt lat="59.9045667" lon="17.6424927">
        <ele>14.557</ele>
        <time>2012-04-15T14:52:15Z</time>
      </trkpt>
      <trkpt lat="59.904953" lon="17.6427532">
        <ele>14.557</ele>
        <time>2012-04-15T14:52:22Z</time>
      </trkpt>
      <trkpt lat="59.9053415" lon="17.6429309">
        <ele>13.5958</ele>
        <time>2012-04-15T14:52:30Z</time>
      </trkpt>
      <trkpt lat="59.9053932" lon="17.6429411">
        <ele>13.5958</ele>
        <time>2012-04-15T14:52:31Z</time>
      </trkpt>
      <trkpt lat="59.9057546" lon="17.6430348">
        <ele>14.557</ele>
        <time>2012-04-15T14:52:37Z</time>
      </trkpt>
      <trkpt lat="59.9062933" lon="17.6432807">
        <ele>15.5184</ele>
        <time>2012-04-15T14:52:46Z</time>
      </trkpt>
      <trkpt lat="59.9067012" lon="17.6434261">
        <ele>17.4412</ele>
        <time>2012-04-15T14:52:54Z</time>
      </trkpt>
      <trkpt lat="59.9071941" lon="17.6435427">
        <ele>19.3638</ele>
        <time>2012-04-15T14:53:04Z</time>
      </trkpt>
      <trkpt lat="59.9075495" lon="17.6436143">
        <ele>20.325</ele>
        <time>2012-04-15T14:53:11Z</time>
      </trkpt>
      <trkpt lat="59.9080982" lon="17.6436987">
        <ele>21.2864</ele>
        <time>2012-04-15T14:53:22Z</time>
      </trkpt>
      <trkpt lat="59.9086086" lon="17.6437442">
        <ele>21.2864</ele>
        <time>2012-04-15T14:53:31Z</time>
      </trkpt>
      <trkpt lat="59.9093206" lon="17.6436633">
        <ele>20.8057</ele>
        <time>2012-04-15T14:53:42Z</time>
      </trkpt>
      <trkpt lat="59.9097622" lon="17.6435732">
        <ele>21.2864</ele>
        <time>2012-04-15T14:53:49Z</time>
      </trkpt>
      <trkpt lat="59.9100512" lon="17.6436419">
        <ele>22.2476</ele>
        <time>2012-04-15T14:53:54Z</time>
      </trkpt>
      <trkpt lat="59.9103965" lon="17.6436075">
        <ele>22.7283</ele>
        <time>2012-04-15T14:54:01Z</time>
      </trkpt>
      <trkpt lat="59.9106824" lon="17.6434793">
        <ele>22.2476</ele>
        <time>2012-04-15T14:54:06Z</time>
      </trkpt>
      <trkpt lat="59.9112079" lon="17.6433804">
        <ele>22.7283</ele>
        <time>2012-04-15T14:54:15Z</time>
      </trkpt>
      <trkpt lat="59.9117339" lon="17.6432727">
        <ele>22.2476</ele>
        <time>2012-04-15T14:54:24Z</time>
      </trkpt>
      <trkpt lat="59.9122163" lon="17.6431361">
        <ele>20.8057</ele>
        <time>2012-04-15T14:54:32Z</time>
      </trkpt>
      <trkpt lat="59.9124993" lon="17.6430853">
        <ele>20.8057</ele>
        <time>2012-04-15T14:54:36Z</time>
      </trkpt>
      <trkpt lat="59.9127029" lon="17.6431452">
        <ele>21.2864</ele>
        <time>2012-04-15T14:54:39Z</time>
      </trkpt>
      <trkpt lat="59.9131266" lon="17.6431059">
        <ele>21.767</ele>
        <time>2012-04-15T14:54:46Z</time>
      </trkpt>
      <trkpt lat="59.9136505" lon="17.6429941">
        <ele>20.8057</ele>
        <time>2012-04-15T14:54:54Z</time>
      </trkpt>
      <trkpt lat="59.9141678" lon="17.6428958">
        <ele>19.8444</ele>
        <time>2012-04-15T14:55:02Z</time>
      </trkpt>
      <trkpt lat="59.9147643" lon="17.6427841">
        <ele>18.4023</ele>
        <time>2012-04-15T14:55:11Z</time>
      </trkpt>
      <trkpt lat="59.9150613" lon="17.6427246">
        <ele>17.9218</ele>
        <time>2012-04-15T14:55:15Z</time>
      </trkpt>
      <trkpt lat="59.915293" lon="17.6425938">
        <ele>17.4412</ele>
        <time>2012-04-15T14:55:18Z</time>
      </trkpt>
      <trkpt lat="59.9158248" lon="17.6424741">
        <ele>17.9218</ele>
        <time>2012-04-15T14:55:24Z</time>
      </trkpt>
      <trkpt lat="59.9164858" lon="17.6424391">
        <ele>18.8831</ele>
        <time>2012-04-15T14:55:32Z</time>
      </trkpt>
      <trkpt lat="59.9171183" lon="17.6423191">
        <ele>17.9218</ele>
        <time>2012-04-15T14:55:40Z</time>
      </trkpt>
      <trkpt lat="59.9171954" lon="17.6422959">
        <ele>17.9218</ele>
        <time>2012-04-15T14:55:41Z</time>
      </trkpt>
      <trkpt lat="59.9176751" lon="17.6422886">
        <ele>18.4023</ele>
        <time>2012-04-15T14:55:48Z</time>
      </trkpt>
      <trkpt lat="59.9181134" lon="17.6422643">
        <ele>19.8444</ele>
        <time>2012-04-15T14:55:55Z</time>
      </trkpt>
      <trkpt lat="59.9185388" lon="17.6422259">
        <ele>21.767</ele>
        <time>2012-04-15T14:56:02Z</time>
      </trkpt>
      <trkpt lat="59.9189604" lon="17.6421734">
        <ele>22.2476</ele>
        <time>2012-04-15T14:56:09Z</time>
      </trkpt>
      <trkpt lat="59.9194932" lon="17.6421155">
        <ele>21.767</ele>
        <time>2012-04-15T14:56:18Z</time>
      </trkpt>
      <trkpt lat="59.9200174" lon="17.6420104">
        <ele>21.2864</ele>
        <time>2012-04-15T14:56:26Z</time>
      </trkpt>
      <trkpt lat="59.9205562" lon="17.641984">
        <ele>21.2864</ele>
        <time>2012-04-15T14:56:34Z</time>
      </trkpt>
      <trkpt lat="59.9212722" lon="17.6419397">
        <ele>22.7283</ele>
        <time>2012-04-15T14:56:44Z</time>
      </trkpt>
      <trkpt lat="59.9218073" lon="17.6418741">
        <ele>23.209</ele>
        <time>2012-04-15T14:56:52Z</time>
      </trkpt>
      <trkpt lat="59.9225942" lon="17.6417813">
        <ele>22.2476</ele>
        <time>2012-04-15T14:57:03Z</time>
      </trkpt>
      <trkpt lat="59.923257" lon="17.6417043">
        <ele>21.2864</ele>
        <time>2012-04-15T14:57:12Z</time>
      </trkpt>
      <trkpt lat="59.9238906" lon="17.6416173">
        <ele>19.3638</ele>
        <time>2012-04-15T14:57:20Z</time>
      </trkpt>
      <trkpt lat="59.9245168" lon="17.6415597">
        <ele>18.8831</ele>
        <time>2012-04-15T14:57:28Z</time>
      </trkpt>
      <trkpt lat="59.9250388" lon="17.6414617">
        <ele>18.8831</ele>
        <time>2012-04-15T14:57:35Z</time>
      </trkpt>
      <trkpt lat="59.9257634" lon="17.6414101">
        <ele>18.4023</ele>
        <time>2012-04-15T14:57:44Z</time>
      </trkpt>
      <trkpt lat="59.9265338" lon="17.6413073">
        <ele>17.9218</ele>
        <time>2012-04-15T14:57:53Z</time>
      </trkpt>
      <trkpt lat="59.9274505" lon="17.6412137">
        <ele>18.4023</ele>
        <time>2012-04-15T14:58:04Z</time>
      </trkpt>
      <trkpt lat="59.9281082" lon="17.6411447">
        <ele>18.4023</ele>
        <time>2012-04-15T14:58:13Z</time>
      </trkpt>
      <trkpt lat="59.9289082" lon="17.6410142">
        <ele>18.8831</ele>
        <time>2012-04-15T14:58:24Z</time>
      </trkpt>
      <trkpt lat="59.9294395" lon="17.6409709">
        <ele>18.8831</ele>
        <time>2012-04-15T14:58:31Z</time>
      </trkpt>
      <trkpt lat="59.9299418" lon="17.6408884">
        <ele>19.3638</ele>
        <time>2012-04-15T14:58:38Z</time>
      </trkpt>
      <trkpt lat="59.9302298" lon="17.6408823">
        <ele>19.3638</ele>
        <time>2012-04-15T14:58:42Z</time>
      </trkpt>
      <trkpt lat="59.9306651" lon="17.6408801">
        <ele>19.8444</ele>
        <time>2012-04-15T14:58:49Z</time>
      </trkpt>
      <trkpt lat="59.9307833" lon="17.6408682">
        <ele>19.3638</ele>
        <time>2012-04-15T14:58:51Z</time>
      </trkpt>
      <trkpt lat="59.9310311" lon="17.6409521">
        <ele>18.4023</ele>
        <time>2012-04-15T14:58:55Z</time>
      </trkpt>
      <trkpt lat="59.9313196" lon="17.6411687">
        <ele>18.8831</ele>
        <time>2012-04-15T14:59:01Z</time>
      </trkpt>
      <trkpt lat="59.9315921" lon="17.6413673">
        <ele>19.3638</ele>
        <time>2012-04-15T14:59:07Z</time>
      </trkpt>
      <trkpt lat="59.9319588" lon="17.6416126">
        <ele>19.8444</ele>
        <time>2012-04-15T14:59:14Z</time>
      </trkpt>
      <trkpt lat="59.931998" lon="17.6416404">
        <ele>20.325</ele>
        <time>2012-04-15T14:59:15Z</time>
      </trkpt>
      <trkpt lat="59.9322406" lon="17.6418773">
        <ele>19.3638</ele>
        <time>2012-04-15T14:59:21Z</time>
      </trkpt>
      <trkpt lat="59.9325497" lon="17.6421638">
        <ele>19.8444</ele>
        <time>2012-04-15T14:59:27Z</time>
      </trkpt>
      <trkpt lat="59.9327162" lon="17.6423813">
        <ele>19.8444</ele>
        <time>2012-04-15T14:59:31Z</time>
      </trkpt>
      <trkpt lat="59.9328529" lon="17.6426377">
        <ele>20.325</ele>
        <time>2012-04-15T14:59:35Z</time>
      </trkpt>
      <trkpt lat="59.9331785" lon="17.6430914">
        <ele>21.2864</ele>
        <time>2012-04-15T14:59:44Z</time>
      </trkpt>
      <trkpt lat="59.9333507" lon="17.6433808">
        <ele>23.6896</ele>
        <time>2012-04-15T14:59:50Z</time>
      </trkpt>
      <trkpt lat="59.9336053" lon="17.6437198">
        <ele>23.6896</ele>
        <time>2012-04-15T14:59:58Z</time>
      </trkpt>
      <trkpt lat="59.9338593" lon="17.6439772">
        <ele>24.1703</ele>
        <time>2012-04-15T15:00:05Z</time>
      </trkpt>
      <trkpt lat="59.9341287" lon="17.644327">
        <ele>25.1317</ele>
        <time>2012-04-15T15:00:13Z</time>
      </trkpt>
      <trkpt lat="59.9343955" lon="17.6447215">
        <ele>26.0929</ele>
        <time>2012-04-15T15:00:21Z</time>
      </trkpt>
      <trkpt lat="59.9346333" lon="17.6450545">
        <ele>26.0929</ele>
        <time>2012-04-15T15:00:29Z</time>
      </trkpt>
      <trkpt lat="59.9348922" lon="17.645383">
        <ele>25.1317</ele>
        <time>2012-04-15T15:00:36Z</time>
      </trkpt>
      <trkpt lat="59.9352906" lon="17.645797">
        <ele>30.4188</ele>
        <time>2012-04-15T15:00:44Z</time>
      </trkpt>
      <trkpt lat="59.9356403" lon="17.6461778">
        <ele>30.8995</ele>
        <time>2012-04-15T15:00:51Z</time>
      </trkpt>
      <trkpt lat="59.9360075" lon="17.6466268">
        <ele>30.8995</ele>
        <time>2012-04-15T15:00:59Z</time>
      </trkpt>
      <trkpt lat="59.9364194" lon="17.6471771">
        <ele>29.4575</ele>
        <time>2012-04-15T15:01:07Z</time>
      </trkpt>
      <trkpt lat="59.9369881" lon="17.6479173">
        <ele>28.9769</ele>
        <time>2012-04-15T15:01:17Z</time>
      </trkpt>
      <trkpt lat="59.9372761" lon="17.6482823">
        <ele>28.0155</ele>
        <time>2012-04-15T15:01:22Z</time>
      </trkpt>
      <trkpt lat="59.9374637" lon="17.6486482">
        <ele>28.9769</ele>
        <time>2012-04-15T15:01:26Z</time>
      </trkpt>
      <trkpt lat="59.9376458" lon="17.6491616">
        <ele>29.4575</ele>
        <time>2012-04-15T15:01:31Z</time>
      </trkpt>
      <trkpt lat="59.9377406" lon="17.6493584">
        <ele>29.4575</ele>
        <time>2012-04-15T15:01:33Z</time>
      </trkpt>
      <trkpt lat="59.9381184" lon="17.6503576">
        <ele>29.4575</ele>
        <time>2012-04-15T15:01:42Z</time>
      </trkpt>
      <trkpt lat="59.9384188" lon="17.6511117">
        <ele>28.9769</ele>
        <time>2012-04-15T15:01:49Z</time>
      </trkpt>
      <trkpt lat="59.9387043" lon="17.6519728">
        <ele>29.9381</ele>
        <time>2012-04-15T15:01:57Z</time>
      </trkpt>
      <trkpt lat="59.9389565" lon="17.6528822">
        <ele>30.8995</ele>
        <time>2012-04-15T15:02:06Z</time>
      </trkpt>
      <trkpt lat="59.9392247" lon="17.6539936">
        <ele>31.3801</ele>
        <time>2012-04-15T15:02:17Z</time>
      </trkpt>
      <trkpt lat="59.9393735" lon="17.6547263">
        <ele>31.3801</ele>
        <time>2012-04-15T15:02:24Z</time>
      </trkpt>
      <trkpt lat="59.9396063" lon="17.6558667">
        <ele>31.3801</ele>
        <time>2012-04-15T15:02:35Z</time>
      </trkpt>
      <trkpt lat="59.9398321" lon="17.6569934">
        <ele>31.3801</ele>
        <time>2012-04-15T15:02:45Z</time>
      </trkpt>
      <trkpt lat="59.9400651" lon="17.6581211">
        <ele>30.8995</ele>
        <time>2012-04-15T15:02:55Z</time>
      </trkpt>
      <trkpt lat="59.9402682" lon="17.6590488">
        <ele>29.9381</ele>
        <time>2012-04-15T15:03:03Z</time>
      </trkpt>
      <trkpt lat="59.9403781" lon="17.6597036">
        <ele>30.4188</ele>
        <time>2012-04-15T15:03:09Z</time>
      </trkpt>
      <trkpt lat="59.9403951" lon="17.6597979">
        <ele>30.4188</ele>
        <time>2012-04-15T15:03:10Z</time>
      </trkpt>
      <trkpt lat="59.9404908" lon="17.6600826">
        <ele>30.8995</ele>
        <time>2012-04-15T15:03:14Z</time>
      </trkpt>
      <trkpt lat="59.9405286" lon="17.6605396">
        <ele>29.4575</ele>
        <time>2012-04-15T15:03:18Z</time>
      </trkpt>
      <trkpt lat="59.9404177" lon="17.661">
        <ele>27.5349</ele>
        <time>2012-04-15T15:03:22Z</time>
      </trkpt>
      <trkpt lat="59.9404018" lon="17.6611171">
        <ele>27.5349</ele>
        <time>2012-04-15T15:03:23Z</time>
      </trkpt>
      <trkpt lat="59.9404407" lon="17.6617331">
        <ele>27.5349</ele>
        <time>2012-04-15T15:03:29Z</time>
      </trkpt>
      <trkpt lat="59.9405659" lon="17.6620162">
        <ele>28.0155</ele>
        <time>2012-04-15T15:03:33Z</time>
      </trkpt>
      <trkpt lat="59.9407287" lon="17.6621381">
        <ele>28.4962</ele>
        <time>2012-04-15T15:03:37Z</time>
      </trkpt>
      <trkpt lat="59.9411773" lon="17.6623115">
        <ele>28.0155</ele>
        <time>2012-04-15T15:03:47Z</time>
      </trkpt>
      <trkpt lat="59.9413501" lon="17.6624597">
        <ele>28.0155</ele>
        <time>2012-04-15T15:03:51Z</time>
      </trkpt>
      <trkpt lat="59.9415751" lon="17.6627697">
        <ele>28.0155</ele>
        <time>2012-04-15T15:03:57Z</time>
      </trkpt>
      <trkpt lat="59.9419311" lon="17.663375">
        <ele>28.0155</ele>
        <time>2012-04-15T15:04:07Z</time>
      </trkpt>
      <trkpt lat="59.9423427" lon="17.6639797">
        <ele>27.5349</ele>
        <time>2012-04-15T15:04:17Z</time>
      </trkpt>
      <trkpt lat="59.9427262" lon="17.6644584">
        <ele>26.0929</ele>
        <time>2012-04-15T15:04:25Z</time>
      </trkpt>
      <trkpt lat="59.9432312" lon="17.6649603">
        <ele>25.1317</ele>
        <time>2012-04-15T15:04:34Z</time>
      </trkpt>
      <trkpt lat="59.9437373" lon="17.6653322">
        <ele>24.1703</ele>
        <time>2012-04-15T15:04:42Z</time>
      </trkpt>
      <trkpt lat="59.9442098" lon="17.6655929">
        <ele>23.209</ele>
        <time>2012-04-15T15:04:50Z</time>
      </trkpt>
      <trkpt lat="59.9446651" lon="17.6657751">
        <ele>22.7283</ele>
        <time>2012-04-15T15:04:58Z</time>
      </trkpt>
      <trkpt lat="59.9453095" lon="17.6660225">
        <ele>21.767</ele>
        <time>2012-04-15T15:05:09Z</time>
      </trkpt>
      <trkpt lat="59.9459171" lon="17.6662501">
        <ele>21.767</ele>
        <time>2012-04-15T15:05:19Z</time>
      </trkpt>
      <trkpt lat="59.9461681" lon="17.6663559">
        <ele>21.767</ele>
        <time>2012-04-15T15:05:23Z</time>
      </trkpt>
      <trkpt lat="59.94642" lon="17.6665318">
        <ele>21.767</ele>
        <time>2012-04-15T15:05:27Z</time>
      </trkpt>
      <trkpt lat="59.9466858" lon="17.6665853">
        <ele>21.2864</ele>
        <time>2012-04-15T15:05:31Z</time>
      </trkpt>
      <trkpt lat="59.9472219" lon="17.6667949">
        <ele>20.8057</ele>
        <time>2012-04-15T15:05:39Z</time>
      </trkpt>
      <trkpt lat="59.9479361" lon="17.6671529">
        <ele>20.325</ele>
        <time>2012-04-15T15:05:50Z</time>
      </trkpt>
      <trkpt lat="59.9486309" lon="17.6675414">
        <ele>19.3638</ele>
        <time>2012-04-15T15:06:01Z</time>
      </trkpt>
      <trkpt lat="59.9494089" lon="17.6679875">
        <ele>18.4023</ele>
        <time>2012-04-15T15:06:13Z</time>
      </trkpt>
      <trkpt lat="59.9500673" lon="17.668276">
        <ele>17.9218</ele>
        <time>2012-04-15T15:06:23Z</time>
      </trkpt>
      <trkpt lat="59.9506085" lon="17.6683228">
        <ele>17.9218</ele>
        <time>2012-04-15T15:06:31Z</time>
      </trkpt>
      <trkpt lat="59.9511721" lon="17.6681927">
        <ele>16.9604</ele>
        <time>2012-04-15T15:06:39Z</time>
      </trkpt>
      <trkpt lat="59.9514515" lon="17.6681132">
        <ele>16.4797</ele>
        <time>2012-04-15T15:06:43Z</time>
      </trkpt>
      <trkpt lat="59.9516991" lon="17.6683377">
        <ele>15.999</ele>
        <time>2012-04-15T15:06:47Z</time>
      </trkpt>
      <trkpt lat="59.9517347" lon="17.6684653">
        <ele>16.4797</ele>
        <time>2012-04-15T15:06:48Z</time>
      </trkpt>
      <trkpt lat="59.9518106" lon="17.6690957">
        <ele>17.4412</ele>
        <time>2012-04-15T15:06:53Z</time>
      </trkpt>
      <trkpt lat="59.9517626" lon="17.6701666">
        <ele>17.9218</ele>
        <time>2012-04-15T15:07:03Z</time>
      </trkpt>
      <trkpt lat="59.9517182" lon="17.6708869">
        <ele>18.8831</ele>
        <time>2012-04-15T15:07:10Z</time>
      </trkpt>
      <trkpt lat="59.9517808" lon="17.6713059">
        <ele>20.8057</ele>
        <time>2012-04-15T15:07:15Z</time>
      </trkpt>
      <trkpt lat="59.9518092" lon="17.6717835">
        <ele>22.2476</ele>
        <time>2012-04-15T15:07:22Z</time>
      </trkpt>
      <trkpt lat="59.9518419" lon="17.6722982">
        <ele>23.209</ele>
        <time>2012-04-15T15:07:29Z</time>
      </trkpt>
      <trkpt lat="59.951882" lon="17.6726953">
        <ele>24.1703</ele>
        <time>2012-04-15T15:07:35Z</time>
      </trkpt>
      <trkpt lat="59.9519422" lon="17.6731205">
        <ele>25.1317</ele>
        <time>2012-04-15T15:07:41Z</time>
      </trkpt>
      <trkpt lat="59.9520315" lon="17.673683">
        <ele>25.6123</ele>
        <time>2012-04-15T15:07:48Z</time>
      </trkpt>
      <trkpt lat="59.9521477" lon="17.6742669">
        <ele>26.5736</ele>
        <time>2012-04-15T15:07:57Z</time>
      </trkpt>
      <trkpt lat="59.9522442" lon="17.6748163">
        <ele>27.0543</ele>
        <time>2012-04-15T15:08:05Z</time>
      </trkpt>
      <trkpt lat="59.9523202" lon="17.6751879">
        <ele>28.4962</ele>
        <time>2012-04-15T15:08:12Z</time>
      </trkpt>
      <trkpt lat="59.9524611" lon="17.6755982">
        <ele>28.0155</ele>
        <time>2012-04-15T15:08:18Z</time>
      </trkpt>
      <trkpt lat="59.9526797" lon="17.6761555">
        <ele>26.0929</ele>
        <time>2012-04-15T15:08:24Z</time>
      </trkpt>
      <trkpt lat="59.9527784" lon="17.6764518">
        <ele>26.0929</ele>
        <time>2012-04-15T15:08:27Z</time>
      </trkpt>
      <trkpt lat="59.953101" lon="17.6772765">
        <ele>24.651</ele>
        <time>2012-04-15T15:08:36Z</time>
      </trkpt>
      <trkpt lat="59.9534612" lon="17.6783097">
        <ele>23.6896</ele>
        <time>2012-04-15T15:08:46Z</time>
      </trkpt>
      <trkpt lat="59.9537919" lon="17.6793159">
        <ele>22.7283</ele>
        <time>2012-04-15T15:08:55Z</time>
      </trkpt>
      <trkpt lat="59.9541053" lon="17.6802539">
        <ele>22.7283</ele>
        <time>2012-04-15T15:09:04Z</time>
      </trkpt>
      <trkpt lat="59.9543581" lon="17.6810018">
        <ele>23.209</ele>
        <time>2012-04-15T15:09:11Z</time>
      </trkpt>
      <trkpt lat="59.9546356" lon="17.681841">
        <ele>23.6896</ele>
        <time>2012-04-15T15:09:19Z</time>
      </trkpt>
      <trkpt lat="59.9548299" lon="17.6821366">
        <ele>23.6896</ele>
        <time>2012-04-15T15:09:23Z</time>
      </trkpt>
      <trkpt lat="59.9548983" lon="17.6823375">
        <ele>23.6896</ele>
        <time>2012-04-15T15:09:25Z</time>
      </trkpt>
      <trkpt lat="59.9551506" lon="17.6832672">
        <ele>23.209</ele>
        <time>2012-04-15T15:09:34Z</time>
      </trkpt>
      <trkpt lat="59.9553483" lon="17.684139">
        <ele>24.1703</ele>
        <time>2012-04-15T15:09:43Z</time>
      </trkpt>
      <trkpt lat="59.9555325" lon="17.6852386">
        <ele>25.1317</ele>
        <time>2012-04-15T15:09:55Z</time>
      </trkpt>
      <trkpt lat="59.9556349" lon="17.6859718">
        <ele>25.6123</ele>
        <time>2012-04-15T15:10:04Z</time>
      </trkpt>
      <trkpt lat="59.9557347" lon="17.6866701">
        <ele>26.0929</ele>
        <time>2012-04-15T15:10:13Z</time>
      </trkpt>
      <trkpt lat="59.9558546" lon="17.6874575">
        <ele>26.5736</ele>
        <time>2012-04-15T15:10:23Z</time>
      </trkpt>
      <trkpt lat="59.9560146" lon="17.6883915">
        <ele>27.0543</ele>
        <time>2012-04-15T15:10:34Z</time>
      </trkpt>
      <trkpt lat="59.9560955" lon="17.688936">
        <ele>28.0155</ele>
        <time>2012-04-15T15:10:41Z</time>
      </trkpt>
      <trkpt lat="59.9561214" lon="17.689103">
        <ele>27.5349</ele>
        <time>2012-04-15T15:10:43Z</time>
      </trkpt>
      <trkpt lat="59.9561816" lon="17.6893668">
        <ele>27.5349</ele>
        <time>2012-04-15T15:10:46Z</time>
      </trkpt>
      <trkpt lat="59.9562354" lon="17.6895175">
        <ele>27.5349</ele>
        <time>2012-04-15T15:10:48Z</time>
      </trkpt>
      <trkpt lat="59.956444" lon="17.6902112">
        <ele>28.0155</ele>
        <time>2012-04-15T15:10:57Z</time>
      </trkpt>
      <trkpt lat="59.9566207" lon="17.6907458">
        <ele>27.0543</ele>
        <time>2012-04-15T15:11:03Z</time>
      </trkpt>
      <trkpt lat="59.9569103" lon="17.6915863">
        <ele>25.1317</ele>
        <time>2012-04-15T15:11:11Z</time>
      </trkpt>
      <trkpt lat="59.9571812" lon="17.6923867">
        <ele>24.1703</ele>
        <time>2012-04-15T15:11:19Z</time>
      </trkpt>
      <trkpt lat="59.9574809" lon="17.6932556">
        <ele>23.209</ele>
        <time>2012-04-15T15:11:28Z</time>
      </trkpt>
      <trkpt lat="59.9578561" lon="17.6943543">
        <ele>22.2476</ele>
        <time>2012-04-15T15:11:39Z</time>
      </trkpt>
      <trkpt lat="59.9582214" lon="17.6953856">
        <ele>22.2476</ele>
        <time>2012-04-15T15:11:49Z</time>
      </trkpt>
      <trkpt lat="59.9586429" lon="17.6964526">
        <ele>22.7283</ele>
        <time>2012-04-15T15:12:00Z</time>
      </trkpt>
      <trkpt lat="59.9588415" lon="17.6971945">
        <ele>24.1703</ele>
        <time>2012-04-15T15:12:07Z</time>
      </trkpt>
      <trkpt lat="59.9589606" lon="17.6979061">
        <ele>25.6123</ele>
        <time>2012-04-15T15:12:14Z</time>
      </trkpt>
      <trkpt lat="59.9590037" lon="17.6987391">
        <ele>27.0543</ele>
        <time>2012-04-15T15:12:23Z</time>
      </trkpt>
      <trkpt lat="59.9590357" lon="17.6995586">
        <ele>26.0929</ele>
        <time>2012-04-15T15:12:31Z</time>
      </trkpt>
      <trkpt lat="59.9591533" lon="17.7007991">
        <ele>26.5736</ele>
        <time>2012-04-15T15:12:42Z</time>
      </trkpt>
      <trkpt lat="59.959288" lon="17.701707">
        <ele>27.0543</ele>
        <time>2012-04-15T15:12:51Z</time>
      </trkpt>
      <trkpt lat="59.9594913" lon="17.7025146">
        <ele>26.0929</ele>
        <time>2012-04-15T15:12:59Z</time>
      </trkpt>
      <trkpt lat="59.9596252" lon="17.7029692">
        <ele>26.5736</ele>
        <time>2012-04-15T15:13:04Z</time>
      </trkpt>
      <trkpt lat="59.9598423" lon="17.7036353">
        <ele>25.6123</ele>
        <time>2012-04-15T15:13:11Z</time>
      </trkpt>
      <trkpt lat="59.9599843" lon="17.7040799">
        <ele>24.651</ele>
        <time>2012-04-15T15:13:15Z</time>
      </trkpt>
      <trkpt lat="59.9601489" lon="17.7044114">
        <ele>24.1703</ele>
        <time>2012-04-15T15:13:19Z</time>
      </trkpt>
      <trkpt lat="59.9606045" lon="17.7049676">
        <ele>23.209</ele>
        <time>2012-04-15T15:13:28Z</time>
      </trkpt>
      <trkpt lat="59.9610568" lon="17.7056008">
        <ele>23.6896</ele>
        <time>2012-04-15T15:13:37Z</time>
      </trkpt>
      <trkpt lat="59.9615806" lon="17.7064849">
        <ele>24.651</ele>
        <time>2012-04-15T15:13:48Z</time>
      </trkpt>
      <trkpt lat="59.9619359" lon="17.706818">
        <ele>25.6123</ele>
        <time>2012-04-15T15:13:54Z</time>
      </trkpt>
      <trkpt lat="59.9624525" lon="17.7070988">
        <ele>26.0929</ele>
        <time>2012-04-15T15:14:02Z</time>
      </trkpt>
      <trkpt lat="59.9629498" lon="17.7072046">
        <ele>25.6123</ele>
        <time>2012-04-15T15:14:09Z</time>
      </trkpt>
      <trkpt lat="59.9636351" lon="17.7072238">
        <ele>25.1317</ele>
        <time>2012-04-15T15:14:18Z</time>
      </trkpt>
      <trkpt lat="59.9640952" lon="17.7072832">
        <ele>24.1703</ele>
        <time>2012-04-15T15:14:25Z</time>
      </trkpt>
      <trkpt lat="59.9645909" lon="17.7074745">
        <ele>23.209</ele>
        <time>2012-04-15T15:14:33Z</time>
      </trkpt>
      <trkpt lat="59.9650338" lon="17.7077883">
        <ele>22.7283</ele>
        <time>2012-04-15T15:14:40Z</time>
      </trkpt>
      <trkpt lat="59.9653817" lon="17.7080692">
        <ele>22.7283</ele>
        <time>2012-04-15T15:14:46Z</time>
      </trkpt>
      <trkpt lat="59.9654855" lon="17.7081666">
        <ele>22.7283</ele>
        <time>2012-04-15T15:14:48Z</time>
      </trkpt>
      <trkpt lat="59.9656231" lon="17.7083458">
        <ele>22.7283</ele>
        <time>2012-04-15T15:14:51Z</time>
      </trkpt>
      <trkpt lat="59.965904" lon="17.7089854">
        <ele>23.209</ele>
        <time>2012-04-15T15:14:58Z</time>
      </trkpt>
      <trkpt lat="59.966111" lon="17.709666">
        <ele>23.209</ele>
        <time>2012-04-15T15:15:04Z</time>
      </trkpt>
      <trkpt lat="59.966247" lon="17.7101743">
        <ele>22.7283</ele>
        <time>2012-04-15T15:15:09Z</time>
      </trkpt>
      <trkpt lat="59.9664603" lon="17.7109227">
        <ele>22.7283</ele>
        <time>2012-04-15T15:15:17Z</time>
      </trkpt>
      <trkpt lat="59.9666709" lon="17.7116101">
        <ele>23.209</ele>
        <time>2012-04-15T15:15:24Z</time>
      </trkpt>
      <trkpt lat="59.966798" lon="17.7120302">
        <ele>23.6896</ele>
        <time>2012-04-15T15:15:29Z</time>
      </trkpt>
      <trkpt lat="59.9669501" lon="17.712537">
        <ele>24.1703</ele>
        <time>2012-04-15T15:15:36Z</time>
      </trkpt>
      <trkpt lat="59.9671087" lon="17.713274">
        <ele>23.6896</ele>
        <time>2012-04-15T15:15:44Z</time>
      </trkpt>
      <trkpt lat="59.9671705" lon="17.7135893">
        <ele>23.209</ele>
        <time>2012-04-15T15:15:47Z</time>
      </trkpt>
      <trkpt lat="59.9673211" lon="17.7145805">
        <ele>21.2864</ele>
        <time>2012-04-15T15:15:55Z</time>
      </trkpt>
      <trkpt lat="59.9674027" lon="17.7151281">
        <ele>19.8444</ele>
        <time>2012-04-15T15:15:59Z</time>
      </trkpt>
      <trkpt lat="59.9674896" lon="17.715723">
        <ele>21.2864</ele>
        <time>2012-04-15T15:16:04Z</time>
      </trkpt>
      <trkpt lat="59.9675248" lon="17.7159388">
        <ele>21.767</ele>
        <time>2012-04-15T15:16:06Z</time>
      </trkpt>
      <trkpt lat="59.9677761" lon="17.7166042">
        <ele>24.1703</ele>
        <time>2012-04-15T15:16:14Z</time>
      </trkpt>
      <trkpt lat="59.9678872" lon="17.7168064">
        <ele>25.1317</ele>
        <time>2012-04-15T15:16:17Z</time>
      </trkpt>
      <trkpt lat="59.9680491" lon="17.7170347">
        <ele>25.6123</ele>
        <time>2012-04-15T15:16:21Z</time>
      </trkpt>
      <trkpt lat="59.9684355" lon="17.7173415">
        <ele>25.6123</ele>
        <time>2012-04-15T15:16:29Z</time>
      </trkpt>
      <trkpt lat="59.968752" lon="17.7174767">
        <ele>27.0543</ele>
        <time>2012-04-15T15:16:35Z</time>
      </trkpt>
      <trkpt lat="59.9689088" lon="17.717449">
        <ele>28.4962</ele>
        <time>2012-04-15T15:16:38Z</time>
      </trkpt>
      <trkpt lat="59.9691721" lon="17.7174964">
        <ele>28.9769</ele>
        <time>2012-04-15T15:16:43Z</time>
      </trkpt>
      <trkpt lat="59.9695615" lon="17.7176933">
        <ele>28.4962</ele>
        <time>2012-04-15T15:16:50Z</time>
      </trkpt>
      <trkpt lat="59.9700336" lon="17.7180743">
        <ele>28.0155</ele>
        <time>2012-04-15T15:16:58Z</time>
      </trkpt>
      <trkpt lat="59.9708383" lon="17.7188069">
        <ele>27.0543</ele>
        <time>2012-04-15T15:17:11Z</time>
      </trkpt>
      <trkpt lat="59.9714784" lon="17.7193865">
        <ele>26.5736</ele>
        <time>2012-04-15T15:17:21Z</time>
      </trkpt>
      <trkpt lat="59.9721848" lon="17.7200243">
        <ele>25.6123</ele>
        <time>2012-04-15T15:17:32Z</time>
      </trkpt>
      <trkpt lat="59.9726553" lon="17.7204599">
        <ele>25.1317</ele>
        <time>2012-04-15T15:17:40Z</time>
      </trkpt>
      <trkpt lat="59.9731044" lon="17.7210147">
        <ele>23.6896</ele>
        <time>2012-04-15T15:17:48Z</time>
      </trkpt>
      <trkpt lat="59.9734519" lon="17.721662">
        <ele>22.7283</ele>
        <time>2012-04-15T15:17:55Z</time>
      </trkpt>
      <trkpt lat="59.9737698" lon="17.7225198">
        <ele>22.7283</ele>
        <time>2012-04-15T15:18:03Z</time>
      </trkpt>
      <trkpt lat="59.9739483" lon="17.7232323">
        <ele>23.209</ele>
        <time>2012-04-15T15:18:10Z</time>
      </trkpt>
      <trkpt lat="59.9741039" lon="17.724173">
        <ele>24.1703</ele>
        <time>2012-04-15T15:18:20Z</time>
      </trkpt>
      <trkpt lat="59.9742532" lon="17.7252161">
        <ele>25.1317</ele>
        <time>2012-04-15T15:18:31Z</time>
      </trkpt>
      <trkpt lat="59.9743411" lon="17.7262134">
        <ele>25.1317</ele>
        <time>2012-04-15T15:18:41Z</time>
      </trkpt>
      <trkpt lat="59.9743739" lon="17.7274546">
        <ele>24.1703</ele>
        <time>2012-04-15T15:18:53Z</time>
      </trkpt>
      <trkpt lat="59.9744019" lon="17.7287223">
        <ele>23.6896</ele>
        <time>2012-04-15T15:19:04Z</time>
      </trkpt>
      <trkpt lat="59.9744205" lon="17.7296058">
        <ele>24.1703</ele>
        <time>2012-04-15T15:19:12Z</time>
      </trkpt>
      <trkpt lat="59.9743442" lon="17.7306308">
        <ele>24.651</ele>
        <time>2012-04-15T15:19:22Z</time>
      </trkpt>
      <trkpt lat="59.9743002" lon="17.7316125">
        <ele>25.1317</ele>
        <time>2012-04-15T15:19:32Z</time>
      </trkpt>
      <trkpt lat="59.9743097" lon="17.7323979">
        <ele>25.1317</ele>
        <time>2012-04-15T15:19:40Z</time>
      </trkpt>
      <trkpt lat="59.9743017" lon="17.7334421">
        <ele>24.651</ele>
        <time>2012-04-15T15:19:50Z</time>
      </trkpt>
      <trkpt lat="59.9742579" lon="17.734426">
        <ele>25.1317</ele>
        <time>2012-04-15T15:20:00Z</time>
      </trkpt>
      <trkpt lat="59.9742875" lon="17.7351941">
        <ele>25.6123</ele>
        <time>2012-04-15T15:20:08Z</time>
      </trkpt>
      <trkpt lat="59.974392" lon="17.7359739">
        <ele>26.0929</ele>
        <time>2012-04-15T15:20:17Z</time>
      </trkpt>
      <trkpt lat="59.9745981" lon="17.7367959">
        <ele>26.5736</ele>
        <time>2012-04-15T15:20:27Z</time>
      </trkpt>
      <trkpt lat="59.9748493" lon="17.7374486">
        <ele>27.0543</ele>
        <time>2012-04-15T15:20:36Z</time>
      </trkpt>
      <trkpt lat="59.9752007" lon="17.7381081">
        <ele>26.5736</ele>
        <time>2012-04-15T15:20:47Z</time>
      </trkpt>
      <trkpt lat="59.9755874" lon="17.7387884">
        <ele>25.6123</ele>
        <time>2012-04-15T15:20:58Z</time>
      </trkpt>
      <trkpt lat="59.9758301" lon="17.7391953">
        <ele>26.0929</ele>
        <time>2012-04-15T15:21:06Z</time>
      </trkpt>
      <trkpt lat="59.9760569" lon="17.7395298">
        <ele>27.0543</ele>
        <time>2012-04-15T15:21:14Z</time>
      </trkpt>
      <trkpt lat="59.976203" lon="17.739739">
        <ele>28.9769</ele>
        <time>2012-04-15T15:21:20Z</time>
      </trkpt>
      <trkpt lat="59.9763334" lon="17.7397656">
        <ele>29.4575</ele>
        <time>2012-04-15T15:21:25Z</time>
      </trkpt>
      <trkpt lat="59.976534" lon="17.7395768">
        <ele>29.4575</ele>
        <time>2012-04-15T15:21:32Z</time>
      </trkpt>
      <trkpt lat="59.9768069" lon="17.7394218">
        <ele>31.3801</ele>
        <time>2012-04-15T15:21:40Z</time>
      </trkpt>
      <trkpt lat="59.9770681" lon="17.7392865">
        <ele>32.3416</ele>
        <time>2012-04-15T15:21:47Z</time>
      </trkpt>
      <trkpt lat="59.9774091" lon="17.7391061">
        <ele>34.2642</ele>
        <time>2012-04-15T15:21:56Z</time>
      </trkpt>
      <trkpt lat="59.9776391" lon="17.7390625">
        <ele>36.6675</ele>
        <time>2012-04-15T15:22:03Z</time>
      </trkpt>
      <trkpt lat="59.9778804" lon="17.7391481">
        <ele>37.6287</ele>
        <time>2012-04-15T15:22:11Z</time>
      </trkpt>
      <trkpt lat="59.9781324" lon="17.7392674">
        <ele>38.1094</ele>
        <time>2012-04-15T15:22:19Z</time>
      </trkpt>
      <trkpt lat="59.9783567" lon="17.7393124">
        <ele>36.6675</ele>
        <time>2012-04-15T15:22:25Z</time>
      </trkpt>
      <trkpt lat="59.9787132" lon="17.7393677">
        <ele>36.1868</ele>
        <time>2012-04-15T15:22:33Z</time>
      </trkpt>
      <trkpt lat="59.9787983" lon="17.7393699">
        <ele>36.1868</ele>
        <time>2012-04-15T15:22:35Z</time>
      </trkpt>
      <trkpt lat="59.978877" lon="17.7393896">
        <ele>35.7061</ele>
        <time>2012-04-15T15:22:37Z</time>
      </trkpt>
    </trkseg>
  </trk>
</gpx>